     2              OBSERVATION DATA    GPS                 RINEX VERSION / TYPE
teqc 1997Jul24 19970902 20:59:37UTC                         PGM / RUN BY / DATE
                                                            COMMENT
BIT 2 OF LLI FLAGS DATA COLLECTED UNDER A-S CONDITION       COMMENT
BIT 2 OF LLI FLAGS DATA COLLECTED UNDER A-S CONDITION       COMMENT
Original Marker Name: -----.5113                            COMMENT
Campaign Name: Salt. Tr. Crust. Monit. May-Jun 1986         COMMENT
4-Character Station Name: 5113                              COMMENT
6-Character Antenna Code: TI4100                            COMMENT
Vertical Measurement Point: PAE                             COMMENT
Vertical Offset to Rinex Ref. Point: 0.0000                 COMMENT
Radial Measurement Point: RRP                               COMMENT
Radial Offset to Rinex Ref. Point: 0.0000                   COMMENT
Antenna Height from Field Measurement: 1.4070 m             COMMENT
Original XYZ: -2458594.1346 -4763438.8713 3444652.2603      COMMENT
New XYZ position is based on association with SCEC monument COMMENT
E1C8P4W3+0011. Position of that monument is believed to be  COMMENT
valid to within 1 m horizontally; vertical accuracy         COMMENT
should be no worse than 3-times this value.                 COMMENT
                                                            COMMENT
Revised Rinex header created by UCSD GPS archive for        COMMENT
GSAC on 01-Jun-1999 (1999:152) 22:55:09 GMT                 COMMENT
For assistance contact dagnew@ucsd.edu or hjohnson@ucsd.edu COMMENT
                                                            COMMENT
51134 DOPPLER                                               MARKER NAME
5 NATIONAL GEODETIC SURVEY                                  OBSERVER / AGENCY
UT-16 TI 4100 1.0                                           REC # / TYPE / VERS
4011 TI 4100                                                ANT # / TYPE
 -2455455.0000 -4767433.0000  3441461.0000                  APPROX POSITION XYZ
        1.4070        0.0000        0.0000                  ANTENNA: DELTA H/E/N
     1     1     0                                          WAVELENGTH FACT L1/2
     4    P1    P2    L1    L2                              # / TYPES OF OBSERV
     6                                                      INTERVAL
  1986     6    20     2    26   59.000000                  TIME OF FIRST OBS
  1986     6    20     4     4    5.000000                  TIME OF LAST OBS
     0                                                      # OF SATELLITES
                                                            END OF HEADER
 86  6 20  2 26 59.0800000  0  4G12G13G 9G11
  21206947.599    21206950.170     8021559.178 9 -19019725.770 9
  20763159.522    20763160.635    31686882.889 9 -44907658.730 9
  21138895.575    21138897.756    65300618.345 9-106952034.660 8
  24350304.866    24350307.110    94078848.150 9 -84123815.507 9
 86  6 20  2 27  5.0800000  0  4G12G13G 9G11
  21205110.109    21205111.354     8011900.511 9 -19027251.998 9
  20764087.282    20764088.087    31691758.073 9 -44903859.881 8
  21142003.327    21142005.250    65316952.204 9-106939306.989 8
  24353442.109    24353444.032    94095331.808 9 -84110971.105 9
 86  6 20  2 27 11.0800000  0  4G12G13G 9G11
  21203276.602    21203277.220     8002263.578 9 -19034761.292 9
  20765017.442    20765017.956    31696644.895 9 -44900051.969 9
  21145115.095    21145118.001    65333306.565 9-106926563.351 9
  24356577.972    24356581.090    94111813.085 8 -84098128.548 8
 86  6 20  2 27 17.0800000  0  4G12G13G 9G11
  21201447.405    21201447.743     7992648.383 9 -19042253.643 9
  20765951.146    20765949.873    31701543.211 9 -44896235.089 8
  21148231.887    21148234.127    65349681.457 9-106913803.693 8
  24359713.383    24359714.328    94128291.944 8 -84085287.873 8
 86  6 20  2 27 23.0800000  0  4G12G13G 9G11
  21199621.790    21199622.137     7983054.987 9 -19049729.018 9
  20766884.800    20766883.279    31706453.054 9 -44892409.234 8
  21151351.637    21151353.935    65366076.717 8-106901028.174 7
  24362849.837    24362850.122    94144768.368 9 -84072449.102 9
 86  6 20  2 27 29.0800000  0  4G12G13G 9G11
  21197799.721    21197800.882     7973483.414 9 -19057187.387 9
  20767820.467    20767821.029    31711374.401 9 -44888574.428 9
  21154474.675    21154477.800    65382492.600 8-106888236.599 8
  24365984.841    24365985.802    94161242.422 9 -84059612.172 9
 86  6 20  2 27 35.0800000  0  4G12G13G 9G11
  21195980.802    21195982.815     7963933.606 9 -19064628.809 8
  20768759.058    20768759.695    31716307.266 9 -44884730.641 9
  21157603.120    21157605.944    65398928.950 9-106875429.048 9
  24369120.036    24369120.557    94177714.071 9 -84046777.114 9
 86  6 20  2 27 41.0800000  0  4G12G13G 9G11
  21194168.325    21194169.899     7954405.591 9 -19072053.234 9
  20769698.591    20769700.044    31721251.552 9 -44880877.947 9
  21160735.053    21160736.540    65415385.751 9-106862605.569 9
  24372253.975    24372253.800    94194183.310 9 -84033943.942 9
 86  6 20  2 27 47.0800000  0  4G12G13G 9G11
  21192359.137    21192360.930     7944899.414 9 -19079460.655 9
  20770642.095    20770643.495    31726207.248 9 -44877016.369 9
  21163870.200    21163872.069    65431863.016 8-106849766.144 7
  24375387.300    24375388.647    94210650.219 9 -84021112.576 9
 86  6 20  2 27 53.0800000  0  4G12G13G 9G11
  21190554.257    21190556.884     7935415.105 9 -19086851.016 9
  20771585.495    20771589.578    31731174.281 9 -44873145.954 9
  21167009.921    21167012.179    65448360.700 8-106836910.824 8
  24378519.289    24378521.427    94227114.683 9 -84008283.132 9
 86  6 20  2 27 59.0800000  0  4G12G13G 9G11
  21188754.214    21188755.538     7925952.692 9 -19094224.334 9
  20772533.854    20772536.182    31736152.641 9 -44869266.725 8
  21170153.940    21170154.367    65464878.776 9-106824039.580 7
  24381651.260    24381654.932    94243576.658 8 -83995455.630 9
 86  6 20  2 28  5.0800000  0  4G12G13G 9G11
  21186957.395    21186959.183     7916512.150 9 -19101580.595 9
  20773482.444    20773486.582    31741142.354 9 -44865378.636 8
  21173301.387    21173301.415    65481417.191 9-106811152.506 8
  24384783.326    24384786.751    94260036.203 8 -83982630.022 9
 86  6 20  2 28 11.0800000  0  4G12G13G 9G11
  21185166.104    21185166.268     7907093.509 9 -19108919.788 9
  20774434.049    20774437.136    31746143.454 9 -44861481.669 9
  21176452.469    21176452.745    65497975.898 9-106798249.621 7
  24387914.101    24387917.344    94276493.308 9 -83969806.311 9
 86  6 20  2 28 17.0800000  0  4G12G13G 9G11
  21183377.783    21183378.402     7897696.897 9 -19116241.821 9
  20775388.660    20775391.999    31751155.916 9 -44857575.871 8
  21179607.219    21179607.792    65514554.931 8-106785330.899 8
  24391045.957    24391050.056    94292947.943 9 -83956984.512 9
 86  6 20  2 28 23.0800000  0  4G12G13G 9G11
  21181593.990    21181594.888     7888322.223 9 -19123546.760 9
  20776344.246    20776347.779    31756179.810 9 -44853661.141 9
  21182766.000    21182765.491    65531154.261 9-106772396.350 8
  24394176.045    24394180.523    94309400.153 9 -83944164.611 9
 86  6 20  2 28 29.0800000  0  4G12G13G 9G11
  21179814.112    21179815.567     7878969.534 9 -19130834.565 8
  20777302.956    20777305.727    31761215.066 9 -44849737.576 8
  21185928.187    21185928.341    65547773.963 9-106759445.941 9
  24397307.097    24397310.120    94325849.923 8 -83931346.600 9
 86  6 20  2 28 35.0800000  0  4G12G13G 9G11
  21178038.204    21178038.938     7869638.876 9 -19138105.205 8
  20778264.805    20778265.320    31766261.674 9 -44845805.141 9
  21189094.893    21189095.776    65564413.936 9-106746479.735 8
  24400437.496    24400440.133    94342297.174 8 -83918530.548 9
 86  6 20  2 28 41.0800000  0  4G12G13G 9G11
  21176266.542    21176267.204     7860330.263 9 -19145358.663 9
  20779226.003    20779228.935    31771319.567 9 -44841863.928 9
  21192265.299    21192265.333    65581074.123 9-106733497.770 8
  24403567.553    24403569.651    94358741.874 8 -83905716.490 9
 86  6 20  2 28 47.0800000  0  4G12G13G 9G11
  21174499.537    21174499.790     7851043.682 9 -19152594.964 9
  20780191.647    20780192.458    31776388.743 9 -44837913.920 9
  21195439.650    21195440.245    65597754.532 9-106720500.051 8
  24406695.838    24406698.103    94375184.114 9 -83892904.371 9
 86  6 20  2 28 53.0800000  0  4G12G13G 9G11
  21172735.841    21172737.442     7841779.223 9 -19159814.017 9
  20781158.316    20781160.023    31781469.216 9 -44833955.105 9
  21198618.405    21198619.515    65614455.194 9-106707486.563 9
  24409824.457    24409825.667    94391623.861 8 -83880094.175 9
 86  6 20  2 28 59.0800000  0  4G12G13G 9G11
  21170978.247    21170979.023     7832536.843 9 -19167015.858 9
  20782126.947    20782128.641    31786560.867 9 -44829987.580 8
  21201798.535    21201800.418    65631175.991 9-106694457.389 8
  24412952.714    24412953.892    94408061.114 9 -83867285.930 9
 86  6 20  2 29  5.0800000  0  4G12G13G 9G11
  21169223.158    21169224.126     7823316.590 9 -19174200.482 9
  20783098.167    20783099.639    31791663.732 9 -44826011.313 8
  21204985.449    21204985.885    65647917.027 9-106681412.437 9
  24416078.948    24416081.217    94424495.814 8 -83854479.675 9
 86  6 20  2 29 11.0800000  0  4G12G13G 9G11
  21167472.557    21167474.168     7814118.376 9 -19181367.916 9
  20784071.650    20784072.808    31796777.800 9 -44822026.333 8
  21208174.678    21208176.241    65664678.144 9-106668351.827 8
  24419206.791    24419209.097    94440928.032 8 -83841675.364 8
 86  6 20  2 29 17.0800000  0  4G12G13G 9G11
  21165726.010    21165728.569     7804942.300 9 -19188518.115 9
  20785047.204    20785048.528    31801903.133 9 -44818032.563 9
  21211368.723    21211369.889    65681459.448 8-106655275.498 8
  24422333.006    24422334.742    94457357.710 8 -83828873.013 9
 86  6 20  2 29 23.0800000  0  4G12G13G 9G11
  21163983.908    21163987.381     7795788.403 9 -19195651.011 9
  20786023.211    20786025.577    31807039.723 9 -44814030.022 9
  21214565.684    21214567.327    65698260.815 9-106642183.529 8
  24425458.401    24425460.185    94473784.862 8 -83816072.635 8
 86  6 20  2 29 29.0800000  0  4G12G13G 9G11
  21162247.060    21162249.482     7786656.633 9 -19202766.675 9
  20787004.347    20787005.110    31812187.456 9 -44810018.793 9
  21217766.333    21217768.983    65715082.332 9-106629075.862 8
  24428583.401    24428586.910    94490209.448 7 -83803274.258 9
 86  6 20  2 29 35.0800000  0  4G12G13G 9G11
  21160513.649    21160515.314     7777546.994 9 -19209865.084 9
  20787985.638    20787986.887    31817346.272 9 -44805998.936 9
  21220971.447    21220972.344    65731923.888 9-106615952.578 8
  24431707.921    24431711.380    94506631.473 8 -83790477.886 9
 86  6 20  2 29 41.0800000  0  4G12G13G 9G11
  21158784.999    21158786.478     7768459.577 9 -19216946.192 9
  20788970.808    20788970.683    31822516.194 9 -44801970.424 9
  21224180.111    21224181.634    65748785.451 9-106602813.699 8
  24434834.295    24434836.270    94523050.970 8 -83777683.480 9
 86  6 20  2 29 47.0800000  0  4G12G13G 9G11
  21157060.658    21157060.236     7759394.334 9 -19224010.015 9
  20789955.389    20789956.587    31827697.325 9 -44797933.186 9
  21227392.551    21227392.773    65765667.137 9-106589659.147 7
  24437958.819    24437959.886    94539467.917 8 -83764891.056 9
 86  6 20  2 29 53.0800000  0  4G12G13G 9G11
  21155339.451    21155340.385     7750351.308 9 -19231056.528 9
  20790943.210    20790945.220    31832889.549 9 -44793887.294 9
  21230609.348    21230608.566    65782568.805 9-106576489.019 7
  24441081.148    24441083.990    94555882.262 7 -83752100.659 9
 86  6 20  2 29 59.0800000  0  4G12G13G 9G11
  21153622.542    21153623.627     7741330.588 9 -19238085.679 9
  20791933.537    20791934.781    31838092.894 9 -44789832.727 9
  21233828.313    21233829.479    65799490.424 9-106563303.331 7
  24444204.629    24444207.761    94572294.056 7 -83739312.270 9
 86  6 20  2 30  5.0800000  0  4G12G13G 9G11
  21151909.687    21151910.942     7732332.195 9 -19245097.412 9
  20792925.330    20792926.276    31843307.376 9 -44785769.500 8
  21237052.713    21237054.141    65816432.058 9-106550102.077 8
  24447328.055    24447329.965    94588703.325 7 -83726525.837 9
 86  6 20  2 30 11.0800000  0  4G12G13G 9G11
  21150200.884    21150203.797     7723356.140 9 -19252091.745 8
  20793920.142    20793921.750    31848532.936 9 -44781697.640 8
  21240279.749    21240280.433    65833393.631 9-106536885.291 8
  24450449.029    24450453.711    94605109.965 7 -83713741.442 9
 86  6 20  2 30 17.0800000  0  4G12G13G 9G11
  21148496.120    21148499.716     7714402.341 9 -19259068.730 8
  20794915.504    20794917.749    31853769.442 9 -44777617.240 9
  21243511.488    21243512.819    65850375.102 8-106523652.959 9
  24453571.168    24453573.761    94621513.977 8 -83700959.098 8
 86  6 20  2 30 23.0800000  0  4G12G13G 9G11
  21146798.101    21146800.128     7705470.808 9 -19266028.367 9
  20795914.987    20795917.229    31859016.980 8 -44773528.251 9
  21246746.933    21246746.473    65867376.501 9-106510405.124 7
  24456690.820    24456694.559    94637915.360 7 -83688178.801 9
 86  6 20  2 30 29.0800000  0  4G12G13G 9G11
  21145103.249    21145105.394     7696561.585 9 -19272970.637 9
  20796915.891    20796916.526    31864275.497 9 -44769430.701 9
  21249985.502    21249986.453    65884397.839 9-106497141.752 7
  24459810.993    24459816.318    94654314.118 7 -83675400.571 8
 86  6 20  2 30 35.0800000  0  4G12G13G 9G11
  21143411.478    21143413.027     7687674.806 9 -19279895.381 8
  20797918.700    20797919.749    31869545.060 9 -44765324.548 9
  21253228.394    21253227.916    65901439.023 9-106483862.910 9
  24462932.347    24462935.937    94670710.305 8 -83662624.316 8
 86  6 20  2 30 41.0800000  0  4G12G13G 9G11
  21141725.183    21141726.918     7678810.445 9 -19286802.682 9
  20798922.758    20798924.489    31874825.694 9 -44761209.769 9
  21256475.350    21256475.402    65918499.962 8-106470568.684 8
  24466051.623    24466054.104    94687103.829 8 -83649850.138 8
 86  6 20  2 30 47.0800000  0  4G12G13G 9G11
  21140041.714    21140043.300     7669968.421 9 -19293692.578 9
  20799929.896    20799932.503    31880117.323 9 -44757086.430 9
  21259725.255    21259726.437    65935580.759 9-106457258.968 7
  24469169.806    24469174.026    94703494.702 8 -83637078.062 8
 86  6 20  2 30 53.0800000  0  4G12G13G 9G11
  21138363.558    21138365.862     7661148.815 9 -19300564.997 9
  20800939.361    20800941.678    31885419.929 9 -44752954.538 9
  21262979.706    21262982.004    65952681.315 9-106443933.874 7
  24472287.197    24472292.212    94719883.005 6 -83624307.969 9
 86  6 20  2 30 59.0800000  0  4G12G13G 9G11
  21136690.089    21136690.189     7652351.616 9 -19307419.953 8
  20801950.105    20801952.852    31890733.367 9 -44748814.192 9
  21266237.994    21266239.446    65969801.724 9-106430593.310 7
  24475405.774    24475409.928    94736268.649 8 -83611539.921 8
 86  6 20  2 31  5.0800000  0  4G12G13G 9G11
  21135019.678    21135019.781     7643576.897 9 -19314257.381 8
  20802963.253    20802965.524    31896057.746 9 -44744665.328 9
  21269499.400    21269500.310    65986941.803 9-106417237.416 8
  24478522.615    24478528.155    94752651.667 7 -83598773.952 7
 86  6 20  2 31 11.0800000  0  4G12G13G 9G11
  21133354.218    21133354.211     7634824.647 9 -19321077.315 9
  20803978.050    20803980.241    31901393.090 9 -44740507.904 8
  21272765.220    21272766.271    66004101.671 9-106403866.088 8
  24481641.580    24481643.502    94769032.008 6 -83586010.058 8
 86  6 20  2 31 17.0800000  0  4G12G13G 9G11
  21131692.606    21131692.954     7626094.884 9 -19327879.719 8
  20804995.884    20804997.802    31906739.327 9 -44736342.007 8
  21276034.782    21276034.999    66021281.328 9-106390479.341 9
  24484758.930    24484761.958    94785409.671 8 -83573248.256 8
 86  6 20  2 31 23.0800000  0  4G12G13G 9G11
  21130036.279    21130036.377     7617387.598 9 -19334664.610 8
  20806016.154    20806017.303    31912096.411 9 -44732167.652 9
  21279307.006    21279307.472    66038480.688 9-106377077.250 7
  24487875.460    24487876.737    94801784.604 7 -83560488.579 9
 86  6 20  2 31 29.0800000  0  4G12G13G 9G11
  21128383.405    21128383.685     7608702.731 9 -19341432.037 9
  20807037.218    20807039.054    31917464.332 9 -44727984.842 8
  21282584.094    21282586.531    66055699.644 8-106363659.886 8
  24490990.183    24490993.061    94818156.863 9 -83547730.996 8
 86  6 20  2 31 35.0800000  0  4G12G13G 9G11
  21126735.096    21126735.287     7600040.444 9 -19348181.869 8
  20808060.897    20808061.737    31922843.131 9 -44723793.577 9
  21285864.732    21285865.385    66072938.343 9-106350227.147 9
  24494104.979    24494107.999    94834526.428 8 -83534975.506 9
 86  6 20  2 31 41.0800000  0  4G12G13G 9G11
  21125091.137    21125091.847     7591400.730 9 -19354914.122 8
  20809085.032    20809087.072    31928232.707 9 -44719593.903 8
  21289148.037    21289148.330    66090196.606 9-106336779.158 8
  24497219.159    24497222.034    94850893.279 9 -83522222.127 7
 86  6 20  2 31 47.0800000  0  4G12G13G 9G11
  21123451.156    21123452.480     7582783.614 9 -19361628.758 9
  20810114.226    20810114.477    31933633.084 9 -44715385.816 9
  21292436.602    21292437.223    66107474.489 9-106323315.881 8
  24500333.036    24500337.108    94867257.471 8 -83509470.798 8
 86  6 20  2 31 53.0800000  0  4G12G13G 9G11
  21121816.628    21121817.428     7574189.108 9 -19368325.778 8
  20811143.503    20811145.277    31939044.262 9 -44711169.315 9
  21295726.658    21295727.944    66124771.942 9-106309837.352 8
  24503448.230    24503450.367    94883618.969 8 -83496721.571 8
 86  6 20  2 31 59.0800000  0  4G12G13G 9G11
  21120184.760    21120186.983     7565617.230 9 -19375005.161 9
  20812175.829    20812177.485    31944466.250 9 -44706944.391 8
  21299023.267    21299023.714    66142089.031 9-106296343.520 8
  24506560.225    24506563.103    94899977.703 8 -83483974.495 8
 86  6 20  2 32  5.0800000  0  4G12G13G 9G11
  21118557.567    21118559.130     7557067.964 9 -19381666.933 9
  20813210.048    20813210.545    31949899.033 9 -44702711.053 9
  21302321.364    21302322.815    66159425.593 9-106282834.519 8
  24509672.801    24509675.766    94916333.675 9 -83471229.593 8
 86  6 20  2 32 11.0800000  0  4G12G13G 9G11
  21116935.138    21116937.460     7548541.403 9 -19388310.995 9
  20814245.628    20814246.427    31955342.579 9 -44698469.327 9
  21305624.468    21305625.923    66176781.772 9-106269310.227 7
  24512784.650    24512787.520    94932686.946 9 -83458486.791 8
 86  6 20  2 32 17.0800000  0  4G12G13G 9G11
  21115316.521    21115318.804     7540037.532 9 -19394937.400 9
  20815283.624    20815285.400    31960796.857 9 -44694219.245 8
  21308931.114    21308931.116    66194157.319 8-106255770.839 8
  24515895.379    24515899.059    94949037.448 8 -83445746.145 8
 86  6 20  2 32 23.0800000  0  4G12G13G 9G11
  21113702.281    21113704.718     7531556.320 9 -19401546.129 9
  20816323.270    20816324.671    31966261.896 9 -44689960.767 9
  21312241.319    21312240.856    66211552.443 9-106242216.205 9
  24519006.160    24519010.453    94965385.220 9 -83433007.630 8
 86  6 20  2 32 29.0800000  0  4G12G13G 9G11
  21112092.418    21112096.765     7523097.798 9 -19408137.178 9
  20817365.724    20817365.820    31971737.677 9 -44685693.930 9
  21315554.069    21315555.811    66228966.986 9-106228646.443 8
  24522118.028    24522120.273    94981730.259 9 -83420271.236 8
 86  6 20  2 32 35.0800000  0  4G12G13G 9G11
  21110487.494    21110490.798     7514662.011 9 -19414710.518 9
  20818409.059    20818410.283    31977224.103 9 -44681418.793 9
  21318871.939    21318872.846    66246400.963 8-106215061.527 7
  24525228.165    24525230.605    94998072.539 9 -83407536.994 7
 86  6 20  2 32 41.0800000  0  4G12G13G 9G11
  21108886.214    21108889.180     7506248.960 9 -19421266.143 9
  20819455.438    20819456.804    31982721.212 9 -44677135.328 9
  21322192.412    21322194.744    66263854.437 8-106201461.433 8
  24528337.044    24528339.180    95014412.079 9 -83394804.891 7
 86  6 20  2 32 47.0800000  0  4G12G13G 9G11
  21107288.556    21107293.257     7497858.542 9 -19427804.144 9
  20820503.870    20820504.334    31988228.980 9 -44672843.558 8
  21325517.986    21325519.670    66281327.312 8-106187846.214 8
  24531445.656    24531449.254    95030748.811 8 -83382074.964 7
 86  6 20  2 32 53.0800000  0  4G12G13G 9G11
  21105696.165    21105700.558     7489490.863 9 -19434324.412 9
  20821554.061    20821554.417    31993747.357 9 -44668543.539 9
  21328847.648    21328848.540    66298819.517 8-106174215.924 7
  24534553.809    24534555.019    95047082.730 9 -83369347.212 7
 86  6 20  2 32 59.0800000  0  4G12G13G 9G11
  21104109.121    21104112.907     7481145.965 9 -19440826.930 9
  20822606.525    20822606.086    31999276.366 9 -44664235.218 9
  21332178.888    21332180.089    66316331.017 9-106160570.595 8
  24537660.962    24537663.751    95063413.942 9 -83356621.598 7
 86  6 20  2 33  5.0800000  0  4G12G13G 9G11
  21102525.312    21102528.925     7472823.849 9 -19447311.690 9
  20823660.843    20823661.245    32004815.966 9 -44659918.646 8
  21335514.792    21335516.166    66333861.844 8-106146910.225 7
  24540768.600    24540769.289    95079742.335 9 -83343898.176 7
 86  6 20  2 33 11.0800000  0  4G12G13G 9G11
  21100947.891    21100948.791     7464524.584 9 -19453778.648 9
  20824716.332    20824716.326    32010366.094 9 -44655593.864 8
  21338854.722    21338855.919    66351412.026 8-106133234.769 8
  24543875.762    24543875.482    95096067.917 9 -83331176.916 6
 86  6 20  2 33 17.0800000  0  4G12G13G 9G11
  21099371.935    21099374.112     7456248.142 9 -19460227.818 9
  20825774.477    20825775.303    32015926.756 9 -44651260.886 9
  21342197.496    21342200.466    66368981.520 8-106119544.261 7
  24546982.338    24546983.105    95112390.671 9 -83318457.885 7
 86  6 20  2 33 23.0800000  0  4G12G13G 9G11
  21097801.669    21097803.690     7447994.518 9 -19466659.210 9
  20826833.403    20826835.306    32021497.955 9 -44646919.683 9
  21345544.816    21345545.854    66386570.285 9-106105838.721 8
  24550086.873    24550090.633    95128710.593 9 -83305741.076 7
 86  6 20  2 33 29.0800000  0  4G12G13G 9G11
  21096235.059    21096237.309     7439763.717 9 -19473072.819 9
  20827895.849    20827897.540    32027079.774 9 -44642570.215 8
  21348895.770    21348895.754    66404178.232 9-106092118.265 8
  24553192.146    24553196.719    95145027.735 9 -83293026.430 7
 86  6 20  2 33 35.0800000  0  4G12G13G 9G11
  21094673.426    21094675.490     7431555.871 9 -19479468.539 8
  20828960.341    20828962.800    32032672.171 9 -44638212.504 8
  21352251.620    21352251.756    66421805.421 9-106078382.787 8
  24556296.462    24556299.909    95161342.056 9 -83280313.982 8
 86  6 20  2 33 41.0800000  0  4G12G13G 9G11
  21093115.804    21093117.715     7423370.940 9 -19485846.403 8
  20830026.344    20830028.813    32038275.138 9 -44633846.552 8
  21355608.436    21355608.872    66439451.858 9-106064632.331 8
  24559399.712    24559403.487    95177653.539 9 -83267603.754 8
 86  6 20  2 33 47.0800000  0  4G12G13G 9G11
  21091562.117    21091563.184     7415208.883 9 -19492206.444 9
  20831095.038    20831095.729    32043888.591 9 -44629472.438 9
  21358971.816    21358970.574    66457117.517 9-106050866.885 7
  24562504.463    24562507.849    95193962.100 9 -83254895.793 6
 86  6 20  2 33 53.0800000  0  4G12G13G 9G11
  21090014.098    21090014.578     7407069.786 9 -19498548.592 9
  20832165.454    20832165.959    32049512.556 9 -44625090.119 9
  21362335.562    21362336.028    66474802.272 9-106037086.559 8
  24565606.403    24565609.544    95210267.851 9 -83242190.008 7
 86  6 20  2 33 59.0800000  0  4G12G13G 9G11
  21088470.321    21088471.131     7398953.637 9 -19504872.859 9
  20833236.892    20833238.222    32055147.002 9 -44620699.636 9
  21365705.378    21365705.625    66492506.141 9-106023291.352 8
  24568709.282    24568712.065    95226570.821 9 -83229486.379 8
 86  6 20  2 34  5.0800000  0  4G12G13G 9G11
  21086928.664    21086930.738     7390860.425 9 -19511179.262 8
  20834311.913    20834313.305    32060791.855 9 -44616301.056 9
  21369078.026    21369078.701    66510229.162 9-106009481.209 7
  24571811.054    24571812.695    95242870.930 9 -83216785.024 7
 86  6 20  2 34 11.0800000  0  4G12G13G 9G11
  21085393.966    21085395.160     7382790.261 9 -19517467.703 8
  20835387.655    20835389.803    32066447.131 9 -44611894.342 9
  21372453.362    21372454.226    66527971.298 8-105995656.178 8
  24574912.294    24574913.751    95259168.207 9 -83204085.835 7
 86  6 20  2 34 17.0800000  0  4G12G13G 9G11
  21083861.770    21083863.505     7374743.077 9 -19523738.241 8
  20836465.294    20836467.320    32072112.874 9 -44607479.488 9
  21375833.303    21375834.087    66545732.533 8-105981816.278 7
  24578013.573    24578015.261    95275462.652 9 -83191388.867 7
 86  6 20  2 34 23.0800000  0  4G12G13G 9G11
  21082335.836    21082336.952     7366718.861 9 -19529990.877 8
  20837545.850    20837547.772    32077788.993 9 -44603056.545 9
  21379216.939    21379218.315    66563512.824 9-105967961.509 8
  24581113.803    24581114.872    95291754.181 9 -83178694.145 8
 86  6 20  2 34 29.0800000  0  4G12G13G 9G11
  21080812.334    21080814.789     7358717.685 9 -19536225.569 9
  20838627.095    20838630.148    32083475.457 9 -44598625.539 9
  21382604.987    21382605.209    66581312.199 9-105954091.868 7
  24584212.739    24584214.554    95308042.773 9 -83166001.741 8
 86  6 20  2 34 35.0800000  0  4G12G13G 9G11
  21079294.248    21079296.241     7350739.540 9 -19542442.301 9
  20839711.111    20839713.479    32089172.335 9 -44594186.404 8
  21385995.178    21385995.557    66599130.477 9-105940207.496 7
  24587312.482    24587314.137    95324328.471 9 -83153311.619 8
 86  6 20  2 34 41.0800000  0  4G12G13G 9G11
  21077780.212    21077782.758     7342784.439 9 -19548641.088 9
  20840797.961    20840799.926    32094879.619 9 -44589739.172 9
  21389389.883    21389389.083    66616967.798 9-105926308.289 7
  24590410.911    24590412.213    95340611.294 9 -83140623.712 8
 86  6 20  2 34 47.0800000  0  4G12G13G 9G11
  21076270.603    21076272.746     7334852.412 9 -19554821.883 9
  20841885.699    20841889.352    32100597.248 9 -44585283.870 9
  21392786.287    21392787.955    66634824.116 9-105912394.289 8
  24593506.963    24593509.132    95356891.185 9 -83127938.092 7
 86  6 20  2 34 53.0800000  0  4G12G13G 9G11
  21074766.720    21074768.470     7326943.525 9 -19560984.650 8
  20842976.169    20842978.671    32106325.233 9 -44580820.513 9
  21396188.180    21396190.665    66652699.333 9-105898465.554 8
  24596605.768    24596606.511    95373168.155 9 -83115254.729 7
 86  6 20  2 34 59.0800000  0  4G12G13G 9G11
  21073265.701    21073268.266     7319057.740 9 -19567129.424 9
  20844068.884    20844071.064    32112063.568 9 -44576349.081 9
  21399593.598    21399594.395    66670593.498 9-105884522.042 8
  24599701.755    24599703.862    95389442.195 9 -83102573.658 7
 86  6 20  2 35  5.0800000  0  4G12G13G 9G11
  21071770.129    21071771.047     7311195.109 9 -19573256.146 8
  20845162.811    20845164.343    32117812.250 9 -44571869.592 9
  21403003.079    21403003.970    66688506.575 9-105870563.815 8
  24602798.312    24602800.502    95405713.391 9 -83089894.771 7
 86  6 20  2 35 11.0800000  0  4G12G13G 9G11
  21070278.039    21070279.449     7303355.637 9 -19579364.831 9
  20846258.625    20846260.176    32123571.107 9 -44567382.163 9
  21406414.874    21406416.652    66706438.541 8-105856590.847 8
  24605893.473    24605896.542    95421981.684 9 -83077218.170 8
 86  6 20  2 35 17.0800000  0  4G12G13G 9G11
  21068791.142    21068791.904     7295539.362 9 -19585455.420 9
  20847356.564    20847357.936    32129340.219 9 -44562886.754 8
  21409829.853    21409833.204    66724389.345 8-105842603.209 8
  24608989.181    24608993.132    95438247.122 9 -83064543.799 8
 86  6 20  2 35 23.0800000  0  4G12G13G 9G11
  21067308.109    21067309.052     7287746.239 9 -19591527.993 9
  20848455.775    20848457.483    32135119.567 9 -44558383.367 9
  21413249.946    21413251.510    66742359.039 8-105828600.866 9
  24612084.358    24612087.885    95454509.560 9 -83051871.781 7
 86  6 20  2 35 29.0800000  0  4G12G13G 9G11
  21065828.406    21065830.808     7279976.280 9 -19597582.500 9
  20849557.812    20849560.292    32140909.195 9 -44553871.964 8
  21416672.904    21416674.456    66760347.517 9-105814583.877 8
  24615179.112    24615181.752    95470769.080 9 -83039202.031 8
 86  6 20  2 35 35.0800000  0  4G12G13G 9G11
  21064354.053    21064356.485     7272229.483 9 -19603618.969 8
  20850661.444    20850661.774    32146709.071 9 -44549352.577 9
  21420099.036    21420101.834    66778354.682 9-105800552.329 9
  24618272.530    24618277.362    95487025.563 9 -83026534.629 7
 86  6 20  2 35 41.0800000  0  4G12G13G 9G11
  21062883.407    21062886.303     7264505.861 9 -19609637.373 9
  20851767.786    20851767.291    32152519.156 9 -44544825.241 9
  21423530.838    21423531.422    66796380.720 9-105786506.067 8
  24621365.281    24621368.572    95503279.103 9 -83013869.528 8
 86  6 20  2 35 47.0800000  0  4G12G13G 9G11
  21061418.165    21061421.967     7256805.432 9 -19615637.710 8
  20852874.234    20852875.314    32158339.329 9 -44540290.033 8
  21426963.014    21426967.528    66814425.486 9-105772445.221 8
  24624458.343    24624460.638    95519529.663 9 -83001206.740 8
 86  6 20  2 35 53.0800000  0  4G12G13G 9G11
  21059957.474    21059960.367     7249128.271 9 -19621619.906 9
  20853983.302    20853985.279    32164169.731 9 -44535746.878 9
  21430401.193    21430402.665    66832488.958 9-105758369.793 8
  24627549.637    24627552.608    95535777.283 9 -82988546.256 9
 86  6 20  2 35 59.0800000  0  4G12G13G 9G11
  21058501.846    21058504.292     7241474.437 8 -19627583.940 9
  20855095.014    20855096.707    32170010.223 9 -44531195.841 9
  21433842.093    21433844.321    66850571.134 8-105744279.783 8
  24630640.480    24630643.786    95552021.933 9 -82975888.093 8
 86  6 20  2 36  5.0800000  0  4G12G13G 9G11
  21057049.441    21057052.157     7233843.862 9 -19633529.844 9
  20856209.222    20856209.946    32175860.950 9 -44526636.828 8
  21437287.297    21437288.777    66868672.004 9-105730175.217 8
  24633731.234    24633734.379    95568263.587 9 -82963232.248 8
 86  6 20  2 36 11.0800000  0  4G12G13G 9G11
  21055602.014    21055603.573     7226236.637 9 -19639457.554 9
  20857323.250    20857324.992    32181721.819 9 -44522069.914 9
  21440735.554    21440736.189    66886791.556 9-105716056.105 8
  24636821.454    24636825.133    95584502.257 9 -82950578.738 8
 86  6 20  2 36 17.0800000  0  4G12G13G 9G11
  21054159.623    21054161.473     7218652.665 9 -19645367.150 9
  20858440.346    20858442.420    32187592.787 9 -44517495.139 9
  21444186.586    21444187.666    66904929.668 9-105701922.511 8
  24639910.191    24639913.314    95600737.882 9 -82937927.596 8
 86  6 20  2 36 23.0800000  0  4G12G13G 9G11
  21052720.787    21052722.427     7211092.088 9 -19651258.517 9
  20859559.548    20859561.405    32193473.843 9 -44512912.494 9
  21447641.248    21447642.236    66923086.436 9-105687774.395 7
  24642999.437    24643003.330    95616970.509 9 -82925278.797 8
 86  6 20  2 36 29.0800000  0  4G12G13G 9G11
  21051286.572    21051288.513     7203554.882 9 -19657131.656 9
  20860681.151    20860682.043    32199364.967 9 -44508322.002 9
  21451100.612    21451101.451    66941261.806 8-105673611.774 8
  24646087.676    24646091.534    95633200.111 9 -82912632.366 9
 86  6 20  2 36 35.0800000  0  4G12G13G 9G11
  21049856.870    21049858.320     7196041.026 9 -19662986.610 8
  20861803.922    20861806.539    32205266.044 9 -44503723.770 8
  21454562.863    21454562.540    66959455.701 8-105659434.715 8
  24649175.123    24649178.867    95649426.672 9 -82899988.297 8
 86  6 20  2 36 41.0800000  0  4G12G13G 9G11
  21048431.838    21048433.562     7188550.599 9 -19668823.315 9
  20862928.502    20862930.658    32211177.112 9 -44499117.739 8
  21458028.179    21458028.528    66977668.154 8-105645243.200 7
  24652262.592    24652266.067    95665650.237 8 -82887346.557 9
 86  6 20  2 36 47.0800000  0  4G12G13G 9G11
  21047010.061    21047012.490     7181083.566 9 -19674641.777 8
  20864055.842    20864057.432    32217098.286 9 -44494503.830 9
  21461497.639    21461498.264    66995899.054 9-105631037.313 8
  24655350.140    24655351.767    95681870.824 9 -82874707.140 8
 86  6 20  2 36 53.0800000  0  4G12G13G 9G11
  21045594.105    21045595.612     7173639.885 9 -19680442.048 9
  20865183.885    20865185.901    32223029.432 9 -44489882.151 9
  21464969.167    21464970.006    67014148.527 9-105616816.943 8
  24658435.666    24658438.343    95698088.358 9 -82862070.085 9
 86  6 20  2 36 59.0800000  0  4G12G13G 9G11
  21044182.131    21044183.428     7166219.592 9 -19686224.087 9
  20866315.402    20866316.836    32228970.598 9 -44485252.683 9
  21468445.521    21468447.544    67032416.510 9-105602582.166 8
  24661521.765    24661523.329    95714302.851 9 -82849435.424 8
 86  6 20  2 37  5.0800000  0  4G12G13G 9G11
  21042774.203    21042775.126     7158822.784 9 -19691987.842 8
  20867447.506    20867448.917    32234921.782 9 -44480615.395 9
  21471925.835    21471926.075    67050702.959 9-105588332.981 7
  24664607.170    24664608.617    95730514.312 9 -82836803.130 8
 86  6 20  2 37 11.0800000  0  4G12G13G 9G11
  21041369.380    21041372.169     7151449.455 9 -19697733.291 8
  20868580.440    20868583.138    32240882.935 9 -44475970.335 9
  21475408.838    21475410.631    67069007.763 9-105574069.516 8
  24667691.952    24667693.919    95746722.681 9 -82824173.214 9
 86  6 20  2 37 17.0800000  0  4G12G13G 9G11
  21039971.305    21039973.227     7144099.634 9 -19703460.419 9
  20869717.823    20869719.642    32246854.130 9 -44471317.464 9
  21478896.014    21478897.478    67087330.970 9-105559791.683 8
  24670775.004    24670776.822    95762928.037 9 -82811545.663 8
 86  6 20  2 37 23.0800000  0  4G12G13G 9G11
  21038577.815    21038579.569     7136773.270 9 -19709169.274 9
  20870855.118    20870858.197    32252835.263 9 -44466656.842 9
  21482385.793    21482388.211    67105672.598 9-105545499.518 7
  24673857.796    24673859.423    95779130.300 9 -82798920.515 8
 86  6 20  2 37 29.0800000  0  4G12G13G 9G11
  21037187.214    21037190.071     7129470.369 9 -19714859.851 9
  20871994.783    20871997.764    32258826.399 9 -44461988.416 9
  21485879.667    21485881.549    67124032.624 8-105531193.012 9
  24676940.937    24676943.402    95795329.537 9 -82786297.742 8
 86  6 20  2 37 35.0800000  0  4G12G13G 9G11
  21035801.803    21035804.615     7122190.982 9 -19720532.084 9
  20873138.332    20873139.172    32264827.482 9 -44457312.249 9
  21489376.835    21489379.476    67142410.995 9-105516872.215 7
  24680021.929    24680025.492    95811525.696 8 -82773677.357 9
 86  6 20  2 37 41.0800000  0  4G12G13G 9G11
  21034422.628    21034424.706     7114935.092 9 -19726186.030 9
  20874281.860    20874283.879    32270838.485 9 -44452628.353 9
  21492877.948    21492881.665    67160807.706 9-105502537.126 8
  24683102.704    24683106.072    95827718.754 8 -82761059.390 8
 86  6 20  2 37 47.0800000  0  4G12G13G 9G11
  21033046.559    21033048.524     7107702.757 9 -19731821.613 9
  20875428.398    20875429.176    32276859.352 9 -44447936.770 9
  21496381.101    21496383.420    67179222.655 8-105488187.823 8
  24686184.198    24686188.043    95843908.740 8 -82748443.809 8
 86  6 20  2 37 53.0800000  0  4G12G13G 9G11
  21031674.653    21031676.807     7100494.075 9 -19737438.781 8
  20876574.557    20876576.818    32282890.069 9 -44443237.511 9
  21499890.226    21499892.322    67197655.888 9-105473824.280 9
  24689263.963    24689267.917    95860095.627 9 -82735830.649 8
 86  6 20  2 37 59.0800000  0  4G12G13G 9G11
  21030306.727    21030309.591     7093308.994 9 -19743037.538 8
  20877724.792    20877726.762    32288930.581 9 -44438530.616 9
  21503402.068    21503403.700    67216107.389 9-105459446.485 8
  24692344.356    24692347.116    95876279.408 9 -82723219.919 9
 86  6 20  2 38  5.0800000  0  4G12G13G 9G11
  21028942.995    21028946.519     7086147.481 9 -19748617.942 9
  20878876.341    20878877.954    32294980.871 9 -44433816.112 9
  21506916.895    21506918.721    67234577.090 9-105445054.523 8
  24695422.257    24695426.671    95892460.070 8 -82710611.607 8
 86  6 20  2 38 11.0800000  0  4G12G13G 9G11
  21027585.660    21027588.193     7079009.594 9 -19754179.928 9
  20880028.918    20880031.429    32301041.001 9 -44429093.923 9
  21510435.554    21510436.924    67253065.020 9-105430648.336 9
  24698503.459    24698504.693    95908637.636 8 -82698005.694 8
 86  6 20  2 38 17.0800000  0  4G12G13G 9G11
  21026231.579    21026235.605     7071895.401 9 -19759723.456 9
  20881184.144    20881185.998    32307110.916 9 -44424364.126 8
  21513956.273    21513956.992    67271571.170 9-105416227.966 8
  24701578.899    24701582.763    95924812.107 9 -82685402.204 8
 86  6 20  2 38 23.0800000  0  4G12G13G 9G11
  21024882.141    21024886.075     7064804.743 9 -19765248.648 8
  20882340.931    20882342.804    32313190.590 9 -44419626.713 8
  21517482.546    21517482.935    67290095.515 9-105401793.414 8
  24704656.914    24704660.091    95940983.499 9 -82672801.118 9
 86  6 20  2 38 29.0800000  0  4G12G13G 9G11
  21023538.142    21023540.260     7057737.734 9 -19770755.408 9
  20883500.003    20883501.460    32319280.039 9 -44414881.683 9
  21521011.392    21521010.739    67308637.978 9-105387344.738 8
  24707734.159    24707736.059    95957151.793 7 -82660202.444 9
 86  6 20  2 38 35.0800000  0  4G12G13G 9G11
  21022198.817    21022199.945     7050694.380 9 -19776243.725 9
  20884661.012    20884661.186    32325379.182 8 -44410129.090 8
  21524542.954    21524543.079    67327198.539 9-105372881.972 9
  24710809.638    24710813.387    95973316.958 9 -82647606.215 9
 86  6 20  2 38 41.0800000  0  4G12G13G 9G11
  21020863.292    21020863.870     7043674.749 9 -19781713.571 9
  20885823.746    20885824.357    32331488.114 9 -44405368.892 8
  21528079.298    21528079.205    67345777.212 9-105358405.083 8
  24713886.283    24713888.747    95989478.960 9 -82635012.446 9
 86  6 20  2 38 47.0800000  0  4G12G13G 9G11
  21019532.141    21019533.017     7036678.834 9 -19787164.947 9
  20886987.346    20886988.645    32337606.756 9 -44400601.113 8
  21531618.222    21531617.380    67364373.915 9-105343914.148 9
  24716960.546    24716964.278    96005637.842 7 -82622421.106 9
 86  6 20  2 38 53.0800000  0  4G12G13G 9G11
  21018205.857    21018206.327     7029706.628 9 -19792597.837 9
  20888153.425    20888154.580    32343735.153 9 -44395825.734 9
  21535159.571    21535159.467    67382988.698 9-105329409.114 8
  24720033.950    24720038.306    96021793.608 7 -82609832.216 9
 86  6 20  2 38 59.0800000  0  4G12G13G 9G11
  21016882.976    21016883.995     7022758.176 9 -19798012.206 9
  20889321.925    20889323.956    32349873.304 9 -44391042.763 9
  21538705.530    21538705.173    67401621.546 9-105314890.025 8
  24723106.567    24723111.842    96037946.231 7 -82597245.774 9
 86  6 20  2 39  5.0800000  0  4G12G13G 9G11
  21015565.018    21015566.425     7015833.465 9 -19803408.093 9
  20890491.441    20890492.536    32356021.146 9 -44386252.233 9
  21542253.582    21542254.075    67420272.380 9-105300356.911 8
  24726181.453    24726185.077    96054095.698 7 -82584661.780 9
 86  6 20  2 39 11.0800000  0  4G12G13G 9G11
  21014251.331    21014253.300     7008932.557 9 -19808785.420 8
  20891663.541    20891664.448    32362178.633 9 -44381454.184 8
  21545805.352    21545806.863    67438941.118 9-105285809.850 7
  24729252.670    24729257.865    96070241.979 6 -82572080.262 9
 86  6 20  2 39 17.0800000  0  4G12G13G 9G11
  21012942.331    21012943.818     7002055.390 9 -19814144.244 9
  20892837.084    20892838.088    32368345.787 8 -44376648.614 8
  21549362.385    21549362.164    67457627.782 8-105271248.811 8
  24732324.681    24732330.352    96086385.102 6 -82559501.218 9
 86  6 20  2 39 23.0800000  0  4G12G13G 9G11
  21011638.415    21011639.374     6995202.012 9 -19819484.537 9
  20894011.846    20894013.180    32374522.561 9 -44371835.545 9
  21552921.226    21552922.270    67476332.509 9-105256673.702 8
  24735395.504    24735401.799    96102525.049 7 -82546924.645 9
 86  6 20  2 39 29.0800000  0  4G12G13G 9G11
  21010338.192    21010338.896     6988372.475 8 -19824806.263 9
  20895188.647    20895190.267    32380708.931 9 -44367014.985 8
  21556483.587    21556485.553    67495055.121 9-105242084.672 8
  24738465.023    24738472.212    96118661.740 7 -82534350.591 9
 86  6 20  2 39 35.0800000  0  4G12G13G 9G11
  21009042.701    21009044.030     6981566.706 9 -19830109.459 8
  20896369.021    20896369.143    32386904.925 9 -44362186.943 8
  21560049.577    21560050.587    67513795.597 9-105227481.701 8
  24741538.431    24741541.796    96134795.256 6 -82521779.007 9
 86  6 20  2 39 41.0800000  0  4G12G13G 9G11
  21007752.651    21007754.047     6974784.751 9 -19835394.088 9
  20897549.847    20897550.791    32393110.634 9 -44357351.326 9
  21563619.693    21563619.986    67532553.952 8-105212864.814 8
  24744607.244    24744611.833    96150925.617 7 -82509209.877 8
 86  6 20  2 39 47.0800000  0  4G12G13G 9G11
  21006465.435    21006467.345     6968026.653 9 -19840660.152 9
  20898732.743    20898733.016    32399325.921 9 -44352508.239 9
  21567192.064    21567193.772    67551330.216 8-105198233.976 8
  24747676.744    24747680.692    96167052.815 4 -82496643.249 9
 86  6 20  2 39 53.0800000  0  4G12G13G 9G11
  21005184.485    21005186.520     6961292.411 9 -19845907.606 9
  20899916.737    20899918.527    32405550.740 9 -44347657.738 9
  21570768.966    21570769.355    67570124.293 8-105183589.238 9
  24750745.051    24750749.061    96183176.827 5 -82484079.070 9
 86  6 20  2 39 59.0800000  0  4G12G13G 9G11
  21003908.469    21003909.625     6954582.090 9 -19851136.431 9
  20901103.607    20901104.741    32411785.012 9 -44342799.864 9
  21574347.921    21574350.296    67588936.165 9-105168930.636 8
  24753814.067    24753816.494    96199297.683 4 -82471517.392 8
 86  6 20  2 40  5.0800000  0  4G12G13G 9G11
  21002635.195    21002637.262     6947895.642 9 -19856346.651 9
  20902290.926    20902293.555    32418028.813 9 -44337934.561 8
  21577930.774    21577932.399    67607765.785 8-105154258.219 7
  24756881.633    24756882.884    96215415.255 5 -82458958.229 9
 86  6 20  2 40 11.0800000  0  4G12G13G 9G11
  21001368.245    21001369.925     6941233.160 9 -19861538.191 8
  20903480.595    20903483.518    32424282.139 9 -44333061.833 9
  21581517.511    21581518.964    67626613.162 9-105139571.953 8
  24759946.978    24759949.214    96231529.620 6 -82446401.575 9
 86  6 20  2 40 17.0800000  0  4G12G13G 9G11
  21000105.202    21000106.101     6934594.589 8 -19866711.102 9
  20904673.355    20904675.137    32430544.914 9 -44328181.759 9
  21585108.117    21585109.041    67645478.266 9-105124871.882 9
  24763012.026    24763014.971    96247640.785 5 -82433847.433 8
 86  6 20  2 40 23.0800000  0  4G12G13G 9G11
  20998846.283    20998846.721     6927979.971 9 -19871865.350 9
  20905867.881    20905868.976    32436817.181 9 -44323294.269 9
  21588701.955    21588702.449    67664361.000 8-105110158.069 9
  24766076.161    24766079.038    96263748.752 6 -82421295.770 9
 86  6 20  2 40 29.0800000  0  4G12G13G 9G11
  20997593.333    20997593.981     6921389.299 9 -19877000.928 9
  20907062.699    20907064.137    32443098.912 9 -44318399.408 8
  21592298.568    21592298.620    67683261.457 9-105095430.449 8
  24769140.271    24769144.905    96279853.502 4 -82408746.629 9
 86  6 20  2 40 35.0800000  0  3G12G13G 9
  20996344.345    20996344.988     6914822.601 9 -19882117.838 8
  20908260.166    20908260.048    32449390.115 9 -44313497.173 9
  21595898.301    21595899.184    67702179.598 9-105080689.042 8
 86  6 20  2 40 41.0800000  0  3G12G13G 9
  20995099.012    20995099.582     6908279.940 9 -19887216.026 8
  20909458.572    20909459.067    32455690.743 9 -44308587.590 9
  21599502.275    21599502.772    67721115.409 8-105065933.871 8
 86  6 20  2 40 47.0800000  0  3G12G13G 9
  20993858.508    20993858.986     6901761.337 9 -19892295.460 8
  20910659.801    20910660.242    32462000.751 9 -44303670.693 9
  21603108.422    21603109.601    67740068.822 9-105051164.979 9
 86  6 20  2 40 53.0800000  0  3G12G13G 9
  20992621.943    20992623.311     6895266.678 9 -19897356.236 9
  20911861.225    20911863.227    32468320.200 9 -44298746.449 8
  21606718.739    21606719.524    67759039.812 9-105036382.396 9
 86  6 20  2 40 59.0800000  0  3G12G13G 9
  20991389.671    20991392.274     6888796.076 9 -19902398.272 8
  20913065.622    20913065.950    32474649.115 9 -44293814.833 9
  21610331.352    21610334.037    67778028.417 9-105021586.082 8
 86  6 20  2 41  5.0800000  0  3G12G13G 9
  20990162.920    20990165.128     6882349.358 9 -19907421.687 9
  20914271.668    20914272.460    32480987.350 9 -44288875.944 9
  21613948.458    21613950.551    67797034.543 9-105006776.118 8
 86  6 20  2 41 11.0800000  0  3G12G13G 9
  20988940.758    20988943.083     6875926.735 9 -19912426.335 8
  20915479.805    20915480.626    32487334.916 9 -44283929.793 9
  21617568.225    21617570.368    67816058.192 9-104991952.500 8
 86  6 20  2 41 17.0800000  0  3G12G13G 9
  20987721.524    20987725.992     6869528.138 9 -19917412.251 8
  20916690.606    20916690.382    32493691.766 9 -44278976.403 8
  21621191.372    21621194.856    67835099.241 8-104977115.336 8
 86  6 20  2 41 23.0800000  0  3G12G13G 9
  20986509.435    20986512.830     6863153.628 9 -19922379.411 9
  20917901.130    20917901.272    32500057.924 9 -44274015.761 8
  21624818.151    21624821.461    67854157.792 9-104962264.522 8
 86  6 20  2 41 29.0800000  0  3G12G13G 9
  20985300.570    20985303.685     6856803.207 9 -19927327.803 9
  20919114.614    20919115.635    32506433.412 9 -44269047.859 9
  21628448.967    21628451.619    67873233.835 9-104947400.072 8
 86  6 20  2 41 35.0800000  0  3G12G13G 9
  20984096.643    20984099.880     6850476.915 9 -19932257.369 8
  20920329.537    20920331.418    32512818.217 9 -44264072.686 8
  21632081.695    21632085.067    67892327.358 8-104932522.013 8
 86  6 20  2 41 41.0800000  0  3G12G13G 9
  20982898.070    20982900.296     6844174.807 9 -19937168.099 8
  20921546.784    20921547.008    32519212.286 9 -44259090.291 9
  21635718.344    21635720.558    67911438.202 9-104917630.449 8
 86  6 20  2 41 47.0800000  0  3G12G13G 9
  20981703.389    20981705.505     6837896.802 9 -19942060.045 9
  20922764.944    20922764.680    32525615.588 9 -44254100.704 9
  21639358.777    21639360.772    67930566.461 9-104902725.316 9
 86  6 20  2 41 53.0800000  0  3G12G13G 9
  20980513.353    20980515.269     6831642.987 9 -19946933.149 8
  20923984.471    20923986.186    32532028.224 9 -44249103.844 9
  21643002.154    21643002.351    67949712.042 9-104887806.680 8
 86  6 20  2 41 59.0800000  0  3G12G13G 9
  20979328.017    20979330.219     6825413.337 9 -19951787.412 9
  20925206.550    20925207.791    32538450.142 9 -44244099.755 8
  21646649.106    21646650.528    67968874.973 9-104872874.532 8
 86  6 20  2 42  5.0800000  0  3G12G13G 9
  20978148.023    20978148.643     6819207.844 9 -19956622.848 8
  20926430.146    20926431.678    32544881.286 9 -44239088.469 9
  21650298.353    21650300.291    67988055.211 9-104857928.900 8
 86  6 20  2 42 11.0800000  0  3G12G13G 9
  20976971.907    20976972.256     6813026.503 9 -19961439.481 9
  20927655.162    20927656.895    32551321.590 9 -44234070.035 9
  21653952.264    21653953.272    68007252.743 9-104842969.779 7
 86  6 20  2 42 17.0800000  0  3G12G13G 9
  20975800.521    20975799.981     6806869.420 9 -19966237.210 8
  20928883.768    20928884.325    32557771.086 9 -44229044.443 8
  21657608.147    21657610.571    68026467.530 8-104827997.227 9
 86  6 20  2 42 23.0800000  0  3G12G13G 9
  20974632.303    20974633.399     6800736.561 9 -19971016.059 9
  20930112.636    20930113.325    32564229.776 9 -44224011.712 9
  21661268.633    21661268.486    68045699.596 9-104813011.209 8
 86  6 20  2 42 29.0800000  0  3G12G13G 9
  20973470.901    20973471.820     6794627.924 9 -19975776.041 9
  20931344.595    20931343.921    32570697.699 9 -44218971.771 9
  21664931.734    21664933.742    68064948.914 9-104798011.755 9
 86  6 20  2 42 35.0800000  0  3G12G13G 9
  20972312.431    20972313.136     6788543.525 9 -19980517.130 8
  20932577.480    20932576.287    32577174.846 8 -44213924.641 9
  21668597.370    21668598.021    68084215.396 8-104782998.909 8
 86  6 20  2 42 41.0800000  0  3G12G13G 9
  20971159.145    20971159.433     6782483.334 9 -19985239.351 9
  20933810.701    20933809.760    32583661.116 9 -44208870.410 9
  21672266.454    21672268.886    68103499.026 9-104767972.716 8
 86  6 20  2 42 47.0800000  0  3G12G13G 9
  20970010.854    20970011.876     6776447.428 9 -19989942.671 8
  20935047.541    20935047.208    32590156.520 9 -44203809.052 9
  21675938.506    21675941.517    68122799.717 9-104752933.225 9
 86  6 20  2 42 53.0800000  0  3G12G13G 9
  20968866.971    20968867.913     6770435.815 9 -19994627.044 9
  20936283.845    20936285.326    32596660.962 9 -44198740.666 9
  21679615.710    21679617.287    68142117.611 9-104737880.322 8
 86  6 20  2 42 59.0800000  0  3G12G13G 9
  20967727.776    20967729.113     6764448.489 9 -19999292.495 9
  20937522.446    20937524.274    32603174.495 9 -44193665.189 9
  21683294.229    21683296.528    68161452.691 9-104722814.051 8
 86  6 20  2 43  5.0800000  0  3G12G13G 9
  20966593.617    20966594.812     6758485.497 9 -20003938.986 9
  20938763.911    20938765.316    32609697.122 9 -44188582.626 9
  21686976.751    21686978.607    68180804.865 8-104707734.437 9
 86  6 20  2 43 11.0800000  0  3G12G13G 9
  20965463.640    20965465.341     6752546.808 9 -20008566.535 9
  20940007.388    20940008.434    32616228.744 9 -44183493.037 8
  21690662.429    21690665.743    68200174.015 8-104692641.603 8
 86  6 20  2 43 17.0800000  0  3G12G13G 9
  20964338.613    20964340.295     6746632.480 9 -20013175.106 9
  20941252.121    20941253.769    32622769.390 9 -44178396.432 9
  21694352.798    21694352.528    68219560.148 8-104677535.528 8
 86  6 20  2 43 23.0800000  0  3G12G13G 9
  20963217.120    20963218.218     6740742.519 9 -20017764.684 8
  20942498.662    20942500.483    32629319.063 9 -44173292.789 9
  21698045.341    21698046.569    68238963.319 9-104662416.179 8
 86  6 20  2 43 29.0800000  0  3G12G13G 9
  20962100.202    20962102.607     6734876.981 9 -20022335.244 8
  20943747.116    20943747.278    32635877.694 9 -44168182.168 9
  21701740.687    21701742.026    68258383.424 9-104647283.638 8
 86  6 20  2 43 35.0800000  0  3G12G13G 9
  20960988.422    20960991.585     6729035.788 9 -20026886.818 9
  20944996.325    20944997.151    32642445.301 9 -44163064.546 8
  21705439.266    21705439.955    68277820.530 9-104632137.839 8
 86  6 20  2 43 41.0800000  0  3G12G13G 9
  20959881.764    20959884.044     6723218.926 9 -20031419.446 9
  20946248.087    20946248.392    32649021.877 9 -44157939.944 9
  21709141.143    21709142.751    68297274.585 8-104616978.854 8
 86  6 20  2 43 47.0800000  0  3G12G13G 9
  20958779.206    20958781.567     6717426.496 8 -20035933.013 9
  20947501.349    20947500.905    32655607.343 9 -44152808.419 9
  21712847.029    21712847.145    68316745.522 9-104601806.690 8
 86  6 20  2 43 53.0800000  0  3G12G13G 9
  20957681.394    20957683.594     6711658.518 9 -20040427.551 9
  20948756.443    20948757.092    32662201.723 9 -44147669.940 8
  21716554.849    21716555.913    68336233.386 9-104586621.347 8
 86  6 20  2 43 59.0800000  0  3G12G13G 9
  20956588.090    20956590.507     6705914.893 9 -20044903.088 8
  20950012.850    20950013.500    32668805.160 9 -44142524.401 8
  21720267.743    21720268.224    68355738.074 9-104571422.883 8
 86  6 20  2 44  5.0800000  0  3G12G13G 9
  20955500.496    20955502.092     6700195.784 9 -20049359.545 8
  20951270.971    20951272.590    32675417.561 9 -44137371.880 9
  21723981.720    21723982.094    68375259.553 9-104556211.352 8
 86  6 20  2 44 11.0800000  0  3G12G13G 9
  20954416.327    20954418.526     6694501.187 9 -20053796.887 8
  20952530.984    20952533.121    32682038.868 9 -44132212.417 9
  21727699.503    21727699.882    68394797.903 9-104540986.658 8
 86  6 20  2 44 17.0800000  0  3G12G13G 9
  20953337.176    20953338.058     6688831.011 9 -20058215.206 9
  20953792.125    20953794.396    32688669.027 9 -44127046.062 8
  21731420.813    21731421.223    68414353.043 9-104525748.890 9
 86  6 20  2 44 23.0800000  0  3G12G13G 9
  20952263.914    20952263.799     6683185.306 9 -20062614.453 9
  20955055.958    20955057.887    32695308.132 9 -44121872.740 8
  21735145.065    21735145.342    68433924.987 9-104510498.032 9
 86  6 20  2 44 29.0800000  0  3G12G13G 9
  20951193.960    20951194.245     6677564.122 9 -20066994.602 8
  20956321.005    20956322.406    32701956.118 9 -44116692.482 9
  21738873.897    21738873.517    68453513.648 9-104495234.145 8
 86  6 20  2 44 35.0800000  0  3G12G13G 9
  20950129.513    20950129.375     6671967.365 9 -20071355.710 9
  20957588.230    20957589.857    32708612.908 9 -44111505.376 9
  21742603.876    21742604.486    68473119.041 9-104479957.207 8
 86  6 20  2 44 41.0800000  0  3G12G13G 9
  20949069.184    20949069.990     6666395.062 9 -20075697.750 8
  20958856.123    20958857.796    32715278.510 9 -44106311.398 9
  21746336.512    21746339.424    68492741.117 9-104464667.295 8
 86  6 20  2 44 47.0800000  0  3G12G13G 9
  20948011.816    20948014.563     6660847.392 9 -20080020.616 8
  20960125.994    20960128.543    32721952.998 9 -44101110.498 9
  21750074.814    21750075.694    68512379.880 9-104449364.363 8
 86  6 20  2 44 53.0800000  0  3G12G13G 9
  20946961.186    20946963.333     6655324.324 9 -20084324.313 9
  20961397.721    20961399.846    32728636.319 9 -44095902.714 8
  21753815.411    21753815.203    68532035.318 9-104434048.440 8
 86  6 20  2 44 59.0800000  0  3G12G13G 9
  20945914.390    20945917.475     6649825.771 9 -20088608.898 9
  20962672.218    20962672.328    32735328.375 9 -44090688.120 8
  21757558.153    21757559.183    68551707.359 9-104418719.582 7
 86  6 20  2 45  5.0800000  0  3G12G13G 9
  20944872.533    20944875.422     6644351.746 9 -20092874.373 9
  20963945.851    20963947.466    32742029.153 9 -44085466.744 9
  21761304.953    21761305.892    68571395.968 9-104403377.815 8
 86  6 20  2 45 11.0800000  0  3G12G13G 9
  20943835.530    20943837.491     6638902.247 9 -20097120.732 8
  20965224.018    20965225.562    32748738.707 9 -44080238.522 9
  21765054.593    21765056.304    68591101.122 9-104388023.150 8
 86  6 20  2 45 17.0800000  0  3G12G13G 9
  20942804.260    20942806.113     6633477.365 9 -20101347.908 8
  20966502.287    20966503.408    32755456.956 9 -44075003.527 8
  21768806.916    21768809.031    68610822.853 9-104372655.578 9
 86  6 20  2 45 23.0800000  0  3G12G13G 9
  20941776.211    20941777.761     6628077.112 9 -20105555.895 8
  20967781.409    20967783.103    32762183.964 9 -44069761.696 9
  21772563.771    21772565.778    68630561.109 9-104357275.126 8
 86  6 20  2 45 29.0800000  0  3G12G13G 9
  20940753.286    20940755.178     6622701.480 8 -20109744.704 9
  20969063.463    20969065.818    32768919.581 9 -44064513.168 8
  21776322.560    21776324.616    68650315.761 9-104341881.896 8
 86  6 20  2 45 35.0800000  0  3G12G13G 9
  20939735.234    20939737.537     6617350.487 8 -20113914.303 9
  20970346.930    20970349.123    32775663.884 9 -44059257.862 8
  21780084.275    21780086.642    68670086.967 9-104326475.771 9
 86  6 20  2 45 41.0800000  0  3G12G13G 9
  20938721.764    20938723.206     6612024.145 9 -20118064.697 9
  20971631.703    20971633.311    32782416.845 9 -44053995.798 9
  21783850.168    21783852.527    68689874.691 8-104311056.766 9
 86  6 20  2 45 47.0800000  0  3G12G13G 9
  20937712.691    20937714.675     6606722.488 8 -20122195.851 9
  20972918.225    20972920.903    32789178.530 9 -44048726.964 9
  21787619.152    21787620.092    68709678.832 9-104295624.963 8
 86  6 20  2 45 53.0800000  0  3G12G13G 9
  20936708.150    20936710.171     6601445.469 9 -20126307.812 9
  20974207.360    20974209.062    32795948.916 9 -44043451.337 9
  21791389.801    21791393.535    68729499.344 9-104280180.424 9
 86  6 20  2 45 59.0800000  0  3G12G13G 9
  20935708.957    20935710.884     6596193.157 8 -20130400.517 9
  20975496.713    20975499.104    32802728.030 9 -44038168.909 9
  21795164.644    21795167.357    68749336.195 9-104264723.141 9
 86  6 20  2 46  5.0800000  0  3G12G13G 9
  20934713.893    20934715.100     6590965.571 9 -20134473.959 9
  20976789.022    20976789.920    32809515.781 9 -44032879.747 8
  21798942.674    21798945.984    68769189.435 9-104249253.083 8
 86  6 20  2 46 11.0800000  0  3G12G13G 9
  20933723.935    20933725.226     6585762.678 9 -20138528.157 8
  20978082.565    20978084.449    32816312.126 9 -44027583.897 9
  21802725.196    21802727.171    68789058.997 9-104233770.312 8
 86  6 20  2 46 17.0800000  0  3G12G13G 9
  20932738.633    20932739.583     6580584.442 9 -20142563.133 7
  20979376.920    20979379.087    32823117.031 9 -44022281.376 9
  21806507.801    21806511.570    68808944.923 9-104218274.797 9
 86  6 20  2 46 23.0800000  0  3G12G13G 9
  20931758.774    20931759.859     6575430.913 9 -20146578.876 8
  20980674.151    20980675.511    32829930.457 9 -44016972.210 8
  21810295.129    21810297.779    68828847.096 9-104202766.618 8
 86  6 20  2 46 29.0800000  0  3G12G13G 9
  20930783.493    20930784.335     6570302.153 9 -20150575.304 8
  20981971.731    20981973.143    32836752.473 9 -44011656.347 8
  21814086.149    21814088.109    68848765.552 9-104187245.754 9
 86  6 20  2 46 35.0800000  0  3G12G13G 9
  20929811.469    20929813.419     6565198.100 9 -20154552.500 9
  20983271.604    20983272.652    32843582.999 9 -44006333.865 9
  21817879.857    21817882.279    68868700.220 9-104171712.245 8
 86  6 20  2 46 41.0800000  0  3G12G13G 9
  20928844.168    20928846.157     6560118.787 8 -20158510.404 9
  20984574.793    20984575.831    32850422.086 9 -44001004.690 8
  21821676.001    21821678.425    68888651.139 9-104156166.097 8
 86  6 20  2 46 47.0800000  0  3G12G13G 9
  20927882.810    20927884.645     6555064.295 8 -20162448.974 8
  20985877.485    20985877.773    32857269.764 9 -43995668.846 8
  21825475.661    21825477.799    68908618.254 8-104140607.303 8
 86  6 20  2 46 53.0800000  0  3G12G13G 9
  20926925.976    20926927.543     6550034.634 8 -20166368.181 8
  20987182.154    20987181.495    32864125.979 9 -43990326.342 8
  21829278.818    21829280.224    68928601.463 9-104125035.983 8
 86  6 20  2 46 59.0800000  0  3G12G13G 9
  20925972.817    20925973.845     6545029.779 9 -20170268.077 9
  20988487.459    20988489.069    32870990.607 9 -43984977.271 9
  21833084.339    21833086.126    68948600.783 8-104109452.102 8
 86  6 20  2 47  5.0800000  0  3G12G13G 9
  20925024.336    20925026.623     6540049.657 9 -20174148.686 8
  20989796.126    20989795.812    32877863.687 9 -43979621.627 9
  21836892.477    21836894.888    68968616.260 9-104093855.633 8
 86  6 20  2 47 11.0800000  0  3G12G13G 9
  20924082.868    20924083.830     6535094.379 9 -20178009.945 9
  20991105.571    20991104.938    32884745.210 9 -43974259.395 8
  21840704.329    21840707.001    68988647.849 9-104078246.609 8
 86  6 20  2 47 17.0800000  0  3G12G13G 9
  20923144.572    20923146.405     6530163.940 9 -20181851.847 8
  20992416.313    20992416.730    32891635.189 9 -43968890.587 8
  21844519.818    21844521.687    69008695.500 9-104062625.065 8
 86  6 20  2 47 23.0800000  0  3G12G13G 9
  20922211.168    20922213.124     6525258.285 9 -20185674.428 8
  20993729.402    20993729.399    32898533.508 9 -43963515.269 8
  21848337.767    21848339.193    69028759.162 9-104046991.047 8
 86  6 20  2 47 29.0800000  0  3G12G13G 9
  20921282.136    20921283.846     6520377.514 9 -20189477.632 9
  20995042.861    20995043.588    32905440.237 9 -43958133.410 8
  21852158.892    21852160.048    69048838.732 9-104031344.631 8
 86  6 20  2 47 35.0800000  0  3G12G13G 9
  20920358.216    20920360.274     6515521.615 9 -20193261.455 8
  20996358.810    20996359.989    32912355.411 9 -43952744.957 8
  21855983.538    21855984.291    69068934.307 9-104015685.748 8
 86  6 20  2 47 41.0800000  0  3G12G13G 9
  20919438.498    20919439.812     6510690.654 9 -20197025.825 8
  20997676.237    20997677.212    32919278.977 9 -43947349.971 9
  21859810.960    21859811.869    69089045.886 9-104000014.395 8
 86  6 20  2 47 47.0800000  0  3G12G13G 9
  20918524.330    20918525.943     6505884.555 9 -20200770.839 8
  20998994.743    20998996.857    32926210.971 9 -43941948.416 8
  21863640.500    21863641.325    69109173.476 9-103984330.554 8
 86  6 20  2 47 53.0800000  0  3G12G13G 9
  20917613.924    20917614.668     6501103.367 8 -20204496.446 8
  21000315.885    21000317.093    32933151.268 9 -43936540.397 8
  21867473.850    21867473.872    69129316.943 8-103968634.348 8
 86  6 20  2 47 59.0800000  0  3G12G13G 9
  20916708.846    20916710.278     6496347.062 9 -20208202.645 8
  21001638.292    21001639.610    32940099.841 9 -43931125.926 8
  21871309.885    21871311.035    69149476.300 8-103952925.761 8
 86  6 20  2 48  5.0800000  0  3G12G13G 9
  20915808.958    20915809.810     6491615.672 9 -20211889.445 9
  21002962.175    21002963.388    32947056.782 9 -43925704.923 9
  21875149.611    21875150.924    69169651.556 9-103937204.796 8
 86  6 20  2 48 11.0800000  0  3G12G13G 9
  20914912.850    20914912.548     6486909.229 9 -20215556.813 8
  21004287.596    21004290.050    32954022.048 9 -43920277.444 8
  21878991.888    21878992.040    69189842.637 9-103921471.479 8
 86  6 20  2 48 17.0800000  0  3G12G13G 9
  20914022.002    20914022.812     6482227.700 9 -20219204.760 7
  21005615.547    21005615.855    32960995.606 9 -43914843.495 9
  21882837.909    21882837.791    69210049.522 9-103905725.859 9
 86  6 20  2 48 23.0800000  0  3G12G13G 9
  20913135.827    20913137.390     6477571.153 8 -20222833.234 8
  21006942.467    21006943.924    32967977.431 9 -43909403.114 8
  21886684.565    21886686.876    69230272.190 9-103889967.941 7
 86  6 20  2 48 29.0800000  0  3G12G13G 9
  20912254.766    20912256.267     6472939.620 9 -20226442.220 8
  21008273.773    21008273.015    32974967.462 9 -43903956.342 9
  21890536.657    21890537.408    69250510.623 9-103874197.730 8
 86  6 20  2 48 35.0800000  0  3G12G13G 9
  20911377.984    20911379.669     6468333.099 8 -20230031.717 8
  21009605.215    21009605.653    32981965.736 9 -43898503.137 9
  21894391.097    21894391.949    69270764.831 9-103858415.236 9
 86  6 20  2 48 41.0800000  0  3G12G13G 9
  20910505.806    20910508.221     6463751.516 9 -20233601.768 9
  21010936.924    21010939.715    32988972.298 9 -43893043.478 9
  21898247.535    21898249.486    69291034.749 9-103842620.496 9
 86  6 20  2 48 47.0800000  0  3G12G13G 9
  20909639.567    20909640.587     6459194.994 9 -20237152.310 8
  21012273.099    21012274.270    32995987.120 9 -43887577.380 8
  21902108.613    21902108.733    69311320.387 9-103826813.501 8
 86  6 20  2 48 53.0800000  0  3G12G13G 9
  20908776.965    20908778.411     6454663.436 9 -20240683.397 8
  21013608.482    21013610.280    33003010.141 9 -43882104.908 8
  21905971.979    21905972.987    69331621.699 9-103810994.304 9
 86  6 20  2 48 59.0800000  0  3G12G13G 9
  20907920.628    20907920.659     6450156.845 9 -20244195.027 9
  21014947.506    21014948.647    33010041.284 9 -43876626.080 9
  21909838.269    21909840.365    69351938.609 9-103795162.946 8
 86  6 20  2 49  5.0800000  0  3G12G13G 9
  20907067.452    20907068.136     6445675.332 9 -20247687.115 8
  21016288.223    21016289.017    33017080.652 9 -43871140.867 9
  21913706.554    21913708.225    69372271.186 9-103779319.382 8
 86  6 20  2 49 11.0800000  0  3G12G13G 9
  20906219.670    20906219.870     6441218.832 9 -20251159.722 8
  21017629.223    21017630.379    33024128.159 9 -43865649.297 9
  21917579.080    21917580.975    69392619.314 9-103763463.715 9
 86  6 20  2 49 17.0800000  0  3G12G13G 9
  20905375.954    20905377.212     6436787.413 9 -20254612.773 8
  21018972.398    21018973.657    33031183.699 9 -43860151.470 9
  21921453.694    21921455.433    69412983.009 9-103747595.907 9
 86  6 20  2 49 23.0800000  0  3G12G13G 9
  20904537.336    20904539.057     6432381.111 9 -20258046.259 8
  21020316.244    21020316.591    33038247.442 9 -43854647.268 9
  21925331.513    21925333.698    69433362.266 9-103731715.978 8
 86  6 20  2 49 29.0800000  0  3G12G13G 9
  20903703.903    20903705.250     6427999.938 9 -20261460.166 9
  21021661.076    21021661.988    33045319.247 9 -43849136.764 9
  21929213.053    21929215.203    69453757.054 9-103715823.935 8
 86  6 20  2 49 35.0800000  0  3G12G13G 9
  20902874.441    20902876.375     6423643.848 9 -20264854.519 8
  21023008.490    21023010.400    33052399.138 9 -43843619.957 9
  21933096.251    21933098.719    69474167.338 8-103699919.828 8
 86  6 20  2 49 41.0800000  0  3G12G13G 9
  20902049.894    20902051.271     6419312.789 9 -20268229.377 9
  21024357.517    21024358.366    33059487.034 8 -43838096.921 9
  21936984.311    21936985.608    69494593.014 9-103684003.715 8
 86  6 20  2 49 47.0800000  0  3G12G13G 9
  20901229.830    20901232.480     6415006.848 8 -20271584.658 8
  21025707.143    21025707.477    33066583.008 9 -43832567.590 9
  21940874.242    21940874.190    69515034.221 9-103668075.508 8
 86  6 20  2 49 53.0800000  0  3G12G13G 9
  20900415.613    20900418.477     6410725.994 9 -20274920.395 9
  21027058.160    21027058.237    33073687.125 9 -43827031.916 9
  21944767.685    21944767.717    69535490.907 9-103652135.239 8
 86  6 20  2 49 59.0800000  0  3G12G13G 9
  20899606.373    20899608.217     6406470.246 9 -20278236.560 8
  21028412.731    21028413.087    33080799.351 9 -43821489.922 8
  21948661.559    21948663.385    69555962.983 9-103636182.974 8
 86  6 20  2 50  5.0800000  0  3G12G13G 9
  20898801.732    20898801.778     6402239.682 9 -20281533.104 8
  21029768.301    21029768.556    33087919.569 9 -43815941.696 7
  21952561.297    21952561.348    69576450.388 9-103620218.763 8
 86  6 20  2 50 11.0800000  0  3G12G13G 9
  20898000.551    20898001.704     6398034.301 9 -20284810.024 9
  21031124.334    21031124.512    33095047.857 9 -43810387.192 9
  21956462.899    21956464.140    69596953.189 8-103604242.567 8
 86  6 20  2 50 17.0800000  0  3G12G13G 9
  20897204.903    20897207.401     6393854.097 9 -20288067.323 8
  21032481.472    21032482.947    33102184.123 9 -43804826.470 8
  21960366.959    21960367.343    69617471.317 9-103588254.421 9
 86  6 20  2 50 23.0800000  0  3G12G13G 9
  20896414.875    20896415.434     6389698.992 8 -20291305.057 9
  21033841.460    21033842.001    33109328.367 9 -43799259.522 9
  21964274.574    21964275.843    69638004.754 9-103572254.357 8
 86  6 20  2 50 29.0800000  0  3G12G13G 9
  20895628.617    20895630.035     6385569.029 9 -20294523.220 9
  21035201.998    21035203.577    33116480.581 9 -43793686.376 9
  21968184.674    21968186.037    69658553.397 9-103556242.429 8
 86  6 20  2 50 35.0800000  0  3G12G13G 9
  20894848.685    20894849.132     6381464.214 9 -20297721.761 8
  21036564.408    21036565.898    33123640.801 9 -43788106.979 7
  21972097.896    21972099.035    69679117.330 9-103540218.597 9
 86  6 20  2 50 41.0800000  0  3G12G13G 9
  20894071.020    20894072.431     6377384.574 9 -20300900.697 9
  21037928.355    21037930.909    33130808.930 9 -43782521.424 9
  21976013.753    21976015.274    69699696.493 9-103524182.881 8
 86  6 20  2 50 47.0800000  0  3G12G13G 9
  20893299.433    20893300.517     6373330.211 9 -20304059.955 9
  21039293.709    21039295.886    33137985.005 9 -43776929.677 8
  21979933.120    21979933.468    69720290.823 9-103508135.349 8
 86  6 20  2 50 53.0800000  0  3G12G13G 9
  20892532.234    20892535.145     6369301.086 9 -20307199.527 8
  21040661.309    21040662.122    33145168.942 8 -43771331.793 8
  21983854.526    21983855.549    69740900.321 9-103492076.003 8
 86  6 20  2 50 59.0800000  0  3G12G13G 9
  20891771.564    20891773.413     6365297.179 9 -20310319.465 9
  21042028.584    21042030.458    33152360.819 9 -43765727.732 9
  21987778.935    21987780.122    69761525.003 9-103476004.819 8
 86  6 20  2 51  5.0800000  0  3G12G13G 9
  20891014.455    20891015.875     6361318.547 9 -20313419.689 9
  21043399.737    21043401.954    33159560.599 9 -43760117.525 9
  21991707.267    21991707.846    69782164.915 9-103459921.779 8
 86  6 20  2 51 11.0800000  0  3G12G13G 9
  20890262.301    20890264.223     6357365.136 9 -20316500.273 9
  21044771.894    21044773.238    33166768.270 8 -43754501.152 8
  21995637.915    21995639.428    69802819.909 9-103443826.977 9
 86  6 20  2 51 17.0800000  0  3G12G13G 9
  20889515.237    20889516.130     6353436.974 9 -20319561.189 9
  21046145.073    21046145.913    33173983.772 9 -43748878.685 8
  21999570.879    21999571.452    69823489.800 9-103427720.573 8
 86  6 20  2 51 23.0800000  0  3G12G13G 9
  20888772.524    20888772.642     6349534.054 9 -20322602.429 9
  21047519.510    21047520.678    33181207.126 9 -43743250.089 9
  22003507.769    22003508.091    69844174.728 9-103411602.452 9
 86  6 20  2 51 29.0800000  0  3G12G13G 9
  20888034.709    20888035.416     6345656.451 9 -20325623.942 8
  21048894.850    21048897.657    33188438.357 9 -43737615.375 9
  22007446.684    22007447.035    69864874.708 9-103395472.604 8
 86  6 20  2 51 35.0800000  0  3G12G13G 9
  20887300.758    20887302.772     6341804.159 9 -20328625.724 9
  21050273.020    21050274.630    33195677.375 9 -43731974.576 8
  22011388.039    22011389.227    69885589.770 9-103379330.990 8
 86  6 20  2 51 41.0800000  0  3G12G13G 9
  20886574.038    20886574.075     6337977.222 9 -20331607.750 8
  21051651.751    21051655.461    33202924.109 9 -43726327.775 9
  22015333.684    22015334.263    69906319.894 9-103363177.649 8
 86  6 20  2 51 47.0800000  0  3G12G13G 9
  20885848.762    20885850.736     6334175.659 9 -20334570.016 9
  21053032.307    21053034.988    33210178.684 9 -43720674.855 8
  22019280.734    22019281.684    69927064.931 9-103347012.697 8
 86  6 20  2 51 53.0800000  0  3G12G13G 9
  20885130.331    20885132.262     6330399.453 9 -20337512.522 9
  21054414.346    21054417.667    33217440.996 9 -43715015.918 9
  22023230.987    22023231.706    69947824.851 8-103330836.141 8
 86  6 20  2 51 59.0800000  0  3G12G13G 9
  20884416.989    20884419.043     6326648.542 9 -20340435.303 8
  21055796.821    21055799.782    33224711.017 9 -43709350.952 9
  22027183.159    22027186.621    69968599.640 9-103314647.995 8
 86  6 20  2 52  5.0800000  0  3G12G13G 9
  20883708.551    20883710.338     6322922.959 3 -20343338.346 1
  21057182.395    21057184.042    33231988.865 9 -43703679.910 9
  22031138.759    22031142.146    69989389.298 8-103298448.270 8
 86  6 20  2 52 11.0800000  0  3G12G13G 9
  20883002.265    20883004.882     6319222.694 1 -20346221.677 1
  21058567.785    21058571.223    33239274.363 6 -43698002.891 7
  22035098.772    22035101.204    70010193.772 6-103282237.002 7
 86  6 20  2 52 17.0800000  0  3G12G13G 9
  20882304.794    20882304.751     6315547.731 1 -20349085.285 1
  21059956.689    21059957.813    33246567.521 9 -43692319.919 9
  22039059.850    22039063.142    70031013.106 8-103266014.150 8
 86  6 20  2 52 23.0800000  0  3G12G13G 9
  20881608.564    20881611.530     6311898.135 8 -20351929.128 7
  21061346.276    21061346.963    33253868.461 9 -43686630.872 9
  22043022.983    22043028.213    70051847.281 9-103249779.740 8
 86  6 20  2 52 29.0800000  0  4G12G13G 9G 7
  20880919.421    20880922.014     6308273.871 6 -20354753.228 7
  21062736.701    21062737.884    33261177.090 9 -43680935.842 9
  22046991.441    22046995.597    70072696.215 9-103233533.824 8
                  25094879.534    -9106829.748 9
 86  6 20  2 52 35.0800000  0  4G12G13G 9G 7
  20880234.670    20880236.135     6304675.024 7 -20357557.529 7
  21064128.641    21064130.033    33268493.408 9 -43675234.814 8
  22050961.924    22050965.280    70093559.881 8-103217276.428 8
                  25091137.439    -9126495.669 9
 86  6 20  2 52 41.0800000  0  4G12G13G 9G 7
  20879554.334    20879556.519     6301101.612 7 -20360342.014 7
  21065522.849    21065524.836    33275817.412 9 -43669527.794 8
  22054934.759    22054938.622    70114438.165 8-103201007.636 8
                  25087426.697    -9146152.083 8
 86  6 20  2 52 47.0800000  0  4G12G13G 9G 7
  20878880.181    20878882.420     6297553.569 7 -20363106.724 7
  21066917.925    21066919.270    33283149.070 9 -43663814.813 9
  22058911.820    22058914.456    70135331.235 8-103184727.330 8
  25083689.723    25083711.716    -9165789.917 8  11753493.379 9
 86  6 20  2 52 53.0800000  0  4G12G13G 9G 7
  20878209.728    20878211.975     6294030.947 7 -20365851.617 7
  21068314.595    21068315.493    33290488.259 9 -43658095.970 9
  22062890.326    22062892.152    70156238.948 8-103168435.609 8
  25079956.254    25079956.790    -9185405.394 9  11738208.317 9
 86  6 20  2 52 59.0800000  0  4G12G13G 9G 7
  20877544.406    20877546.012     6290533.822 8 -20368576.658 7
  21069713.056    21069713.831    33297835.117 9 -43652371.139 8
  22066871.631    22066874.761    70177161.335 9-103152132.463 8
  25076227.164    25076229.449    -9204998.921 9  11722940.651 9
 86  6 20  2 53  5.0800000  0  4G12G13G 9G 7
  20876884.247    20876886.037     6287062.088 9 -20371281.895 6
  21071112.209    21071113.806    33305189.615 9 -43646640.363 9
  22070855.510    22070857.967    70198098.422 9-103135817.851 8
  25072502.579    25072504.595    -9224574.487 8  11707686.972 8
 86  6 20  2 53 11.0800000  0  4G12G13G 9G 7
  20876229.528    20876230.424     6283615.818 9 -20373967.296 9
  21072512.924    21072513.708    33312551.705 9 -43640903.661 9
  22074844.000    22074845.927    70219050.079 9-103119491.889 8
  25068780.028    25068781.451    -9244136.931 9  11692443.521 8
 86  6 20  2 53 17.0800000  0  4G12G13G 9G 7
  20875578.746    20875580.050     6280194.955 9 -20376632.913 9
  21073915.516    21073915.426    33319921.344 9 -43635161.089 9
  22078833.800    22078834.832    70240016.253 9-103103154.616 8
  25065059.443    25065060.756    -9263689.526 8  11677207.721 9
 86  6 20  2 53 23.0800000  0  4G12G13G 9G 7
  20874931.163    20874933.091     6276799.538 8 -20379278.691 9
  21075318.406    21075319.668    33327298.574 9 -43629412.599 8
  22082825.865    22082827.478    70260996.882 9-103086806.068 9
  25061339.725    25061341.330    -9283234.569 9  11661977.821 9
 86  6 20  2 53 29.0800000  0  4G12G13G 9G 7
  20874289.488    20874291.777     6273429.622 9 -20381904.605 9
  21076724.937    21076725.356    33334683.303 9 -43623658.264 8
  22086821.279    22086822.406    70281992.098 9-103070446.159 9
  25057621.232    25057623.000    -9302773.867 9  11646752.405 9
 86  6 20  2 53 35.0800000  0  4G12G13G 9G 7
  20873653.435    20873655.259     6270085.206 9 -20384510.643 9
  21078131.898    21078130.953    33342075.588 9 -43617898.046 8
  22090820.266    22090820.038    70303001.846 9-103054074.928 9
  25053905.170    25053906.177    -9322306.925 9  11631531.843 8
 86  6 20  2 53 41.0800000  0  4G12G13G 9G 7
  20873020.829    20873023.978     6266766.295 8 -20387096.809 8
  21079540.484    21079539.703    33349475.374 9 -43612131.980 8
  22094820.919    22094822.019    70324026.095 9-103037692.396 9
                  25050191.149                    11616319.995 9
 86  6 20  2 53 47.0800000  0  4G12G13G 9G 7
  20872394.520    20872396.884     6263472.829 9 -20389663.143 8
  21080950.002    21080950.871    33356882.644 9 -43606360.077 9
  22098823.172    22098824.503    70345064.781 9-103021298.621 9
  25046376.381    25046479.053    -9377932.876 9  11601122.522 8
 86  6 20  2 53 53.0800000  0  4G12G13G 9G 7
  20871773.030    20871773.985     6260204.843 9 -20392209.631 9
  21082361.083    21082360.423    33364297.319 9 -43600582.407 9
  22102830.746    22102830.145    70366117.880 9-103004893.614 9
  25042772.683    25042771.981    -9397412.713 9  11585943.312 8
 86  6 20  2 53 59.0800000  0  4G12G13G 9G 7
  20871156.322    20871157.012     6256962.343 9 -20394736.261 9
  21083773.263    21083773.692    33371719.475 9 -43594798.913 9
  22106839.493    22106840.398    70387185.406 9-102988477.353 8
  25039070.546    25039069.963    -9416871.410 9  11570781.078 9
 86  6 20  2 54  5.0800000  0  4G12G13G 9G 7
  20870543.498    20870544.177     6253745.377 9 -20397242.979 9
  21085187.228    21085186.883    33379149.096 9 -43589009.599 9
  22110851.185    22110851.586    70408267.344 9-102972049.872 8
  25035370.350    25035370.101    -9436312.010 9  11555632.546 9
 86  6 20  2 54 11.0800000  0  4G12G13G 9G 7
  20869936.378    20869936.977     6250553.976 9 -20399729.779 8
  21086602.488    21086603.098    33386586.182 9 -43583214.467 9
  22114865.200    22114865.038    70429363.556 9-102955611.267 8
  25031673.308    25031673.521    -9455739.531 9  11540494.230 8
 86  6 20  2 54 17.0800000  0  4G12G13G 9G 7
  20869334.918    20869333.733     6247388.106 9 -20402196.676 9
  21088018.709    21088020.052    33394030.760 9 -43577413.492 9
  22118882.059    22118883.495    70450474.044 9-102939161.545 9
  25027977.747    25027979.080    -9475157.309 8  11525363.496 8
 86  6 20  2 54 23.0800000  0  4G12G13G 9G 7
  20868737.088    20868737.334     6244247.723 9 -20404643.741 8
  21089436.303    21089438.124    33401482.694 9 -43571606.787 9
  22122901.781    22122902.499    70471598.893 9-102922700.628 8
  25024284.246    25024286.124    -9494567.650 9  11510238.566 8
 86  6 20  2 54 29.0800000  0  4G12G13G 9G 7
  20868143.970    20868144.929     6241132.866 9 -20407070.900 8
  21090855.752    21090858.048    33408941.932 9 -43565794.400 9
  22126924.299    22126924.962    70492737.989 9-102906228.612 8
  25020591.431    25020592.150    -9513971.990 9  11495118.298 9
 86  6 20  2 54 35.0800000  0  4G12G13G 9G 7
  20867556.647    20867557.367     6238043.582 9 -20409478.137 9
  21092277.102    21092278.826    33416408.518 9 -43559976.283 9
  22130948.993    22130949.963    70513891.233 8-102889745.561 8
  25016900.203    25016900.741    -9533369.430 9  11480003.420 9
 86  6 20  2 54 41.0800000  0  4G12G13G 9G 7
  20866971.948    20866974.723     6234979.890 9 -20411865.436 8
  21093699.092    21093700.203    33423882.624 9 -43554152.301 8
  22134977.909    22134978.423    70535058.733 9-102873251.411 8
                  25013212.138    -9552754.510 9
 86  6 20  2 54 47.0800000  0  4G12G13G 9G 7
  20866394.660    20866396.006     6231941.768 8 -20414232.814 7
  21095123.120    21095124.337    33431364.182 9 -43548322.520 9
  22139007.983    22139010.054    70556240.450 9-102856746.190 8
  25009525.523    25009527.687    -9572119.994 9  11511313.202 8
 86  6 20  2 54 53.0800000  0  4G12G13G 9G 7
  20865820.718    20865822.780     6228929.225 9 -20416580.251 8
  21096547.423    21096549.032    33438853.040 9 -43542487.047 9
  22143041.793    22143043.926    70577436.326 9-102840229.931 8
  25005844.992    25005846.967    -9591461.993 9  11496241.458 8
 86  6 20  2 54 59.0800000  0  4G12G13G 9G 7
  20865253.246    20865253.961     6225942.253 9 -20418907.764 8
  21097974.438    21097974.972    33446349.160 9 -43536645.916 9
  22147078.024    22147079.504    70598646.327 9-102823702.663 8
  25002168.659    25002170.648    -9610782.258 9  11481186.707 8
 86  6 20  2 55  5.0800000  0  4G12G13G 9G 7
  20864689.588    20864690.523     6222980.948 9 -20421215.278 8
  21099401.637    21099403.227    33453852.630 9 -43530799.067 9
  22151117.051    22151118.875    70619870.482 9-102807164.374 9
  24998495.423    24998498.194    -9630084.944 9  11466145.646 8
 86  6 20  2 55 11.0800000  0  4G12G13G 9G 7
  20864131.304    20864132.159     6220045.224 9 -20423502.856 7
  21100831.035    21100832.970    33461363.352 9 -43524946.548 9
  22155158.322    22155159.488    70641108.682 9-102790615.119 9
  24994824.423    24994826.741    -9649374.805 9  11451114.593 8
 86  6 20  2 55 17.0800000  0  4G12G13G 9G 7
  20863578.185    20863577.953     6217135.087 8 -20425770.497 9
  21102261.737    21102262.979    33468881.325 9 -43519088.397 9
  22159202.059    22159204.328    70662360.987 8-102774054.902 8
  24991155.103    24991158.198    -9668654.945 8  11436091.122 8
 86  6 20  2 55 23.0800000  0  4G12G13G 9G 7
  20863029.155    20863029.631     6214250.622 8 -20428018.146 8
  21103692.782    21103695.267    33476406.593 9 -43513224.549 9
  22163248.249    22163250.001    70683627.333 8-102757483.731 9
  24987488.077    24987490.963    -9687927.686 9  11421073.396 9
 86  6 20  2 55 29.0800000  0  4G12G13G 9G 7
  20862483.691    20862485.255     6211391.808 8 -20430245.805 9
  21105126.322    21105129.271    33483939.083 9 -43507355.070 8
  22167298.396    22167300.209    70704907.676 9-102740901.647 8
  24983822.529    24983825.024    -9707194.298 9  11406060.463 8
 86  6 20  2 55 35.0800000  0  4G12G13G 9G 7
  20861945.653    20861947.172     6208558.610 9 -20432453.490 8
  21106560.972    21106563.666    33491478.800 9 -43501479.974 9
  22171350.915    22171352.620    70726202.025 9-102724308.636 9
  24980157.800    24980157.902    -9726453.408 9  11391053.366 8
 86  6 20  2 55 41.0800000  0  4G12G13G 9G 7
  20861411.251    20861412.207     6205751.077 9 -20434641.175 9
  21107997.238    21108000.497    33499025.720 9 -43495599.258 9
  22175405.559    22175408.274    70747510.341 9-102707704.781 8
                  24976494.804    -9745699.068 8
 86  6 20  2 55 47.0800000  0  4G12G13G 9G 7
  20860881.404    20860883.398     6202969.190 9 -20436808.894 9
  21109434.154    21109438.061    33506579.893 9 -43489712.895 9
  22179463.589    22179466.890    70768832.581 8-102691090.044 9
  24972836.861    24972858.883    -9764924.335 9  11430748.873 7
 86  6 20  2 55 53.0800000  0  4G12G13G 9G 7
  20860356.766    20860358.652     6200212.940 9 -20438956.613 7
  21110874.440    21110876.272    33514141.226 9 -43483820.946 9
  22183523.131    22183525.007    70790168.707 9-102674464.501 8
  24969183.189    24969184.640    -9784125.644 9  11415786.953 8
 86  6 20  2 55 59.0800000  0  4G12G13G 9G 7
  20859837.611    20859838.200     6197482.410 8 -20441084.294 8
  21112315.021    21112316.295    33521709.793 9 -43477923.364 8
  22187586.545    22187588.312    70811518.720 9-102657828.133 9
  24965533.533    24965533.381    -9803305.276 9  11400841.792 8
 86  6 20  2 56  5.0800000  0  4G12G13G 9G 7
  20859322.870    20859324.960     6194777.515 8 -20443192.005 8
  21113756.397    21113758.092    33529285.546 9 -43472020.179 8
  22191651.746    22191652.950    70832882.676 9-102641180.905 8
  24961887.924    24961887.681    -9822467.418 9  11385910.245 9
 86  6 20  2 56 11.0800000  0  4G12G13G 9G 7
  20858812.558    20858814.204     6192098.303 9 -20445279.695 8
  21115198.786    21115201.166    33536868.428 9 -43466111.428 9
  22195719.808    22195722.345    70854260.416 8-102624522.930 8
  24958242.637    24958243.908    -9841616.936 9  11370988.541 8
 86  6 20  2 56 17.0800000  0  4G12G13G 9G 7
  20858307.615    20858309.412     6189444.869 9 -20447347.314 8
  21116643.717    21116644.032    33544458.532 9 -43460197.071 9
  22199790.549    22199791.888    70875652.002 9-102607854.152 8
  24954600.700    24954601.392    -9860756.867 9  11356074.316 8
 86  6 20  2 56 23.0800000  0  4G12G13G 9G 7
  20857807.643    20857809.448     6186817.171 9 -20449394.865 8
  21118089.472    21118091.342    33552055.813 9 -43454277.111 9
  22203864.363    22203866.526    70897057.278 9-102591174.712 8
  24950958.955    24950961.485    -9879889.366 9  11341165.872 8
 86  6 20  2 56 29.0800000  0  4G12G13G 9G 7
  20857311.818    20857314.032     6184215.227 8 -20451422.361 8
  21119536.830    21119537.681    33559660.196 9 -43448351.617 8
  22207939.874    22207941.807    70918476.248 9-102574484.607 8
  24947319.250    24947321.539    -9899015.433 9  11326262.450 9
 86  6 20  2 56 35.0800000  0  4G12G13G 9G 7
  20856822.541    20856823.260     6181638.947 8 -20453429.847 8
  21120985.349    21120987.114    33567271.670 9 -43442420.595 8
  22212017.806    22212019.217    70939908.955 9-102557783.804 8
  24943682.366    24943684.155    -9918133.137 9  11311365.533 9
 86  6 20  2 56 41.0800000  0  4G12G13G 9G 7
  20856336.318    20856339.493     6179088.344 9 -20455417.327 8
  21122434.178    21122435.818    33574890.137 9 -43436484.126 9
  22216099.605    22216101.656    70961355.415 9-102541072.267 8
                  24940047.264    -9937236.526 9
 86  6 20  2 56 47.0800000  0  4G12G13G 9G 7
  20855856.516    20855857.246     6176563.422 9 -20457384.793 8
  21123886.183    21123886.682    33582515.605 9 -43430542.205 8
  22220182.983    22220184.059    70982815.605 9-102524350.049 8
  24936415.506    24936417.254    -9956318.644 9  11342895.594 7
 86  6 20  2 56 53.0800000  0  4G12G13G 9G 7
  20855381.023    20855382.841     6174064.306 9 -20459332.168 9
  21125337.959    21125338.836    33590148.107 9 -43424594.799 9
  22224269.173    22224272.096    71004289.449 9-102507617.179 8
  24932789.269    24932789.746    -9975376.436 9  11328045.376 7
 86  6 20  2 56 59.0800000  0  4G12G13G 9G 7
  20854909.682    20854911.959     6171590.933 9 -20461259.469 8
  21126791.035    21126793.346    33597787.671 9 -43418641.897 9
  22228357.897    22228360.328    71025776.884 9-102490873.735 9
  24929167.526    24929167.464    -9994412.584 9  11313212.009 8
 86  6 20  2 57  5.0800000  0  4G12G13G 9G 7
  20854444.406    20854445.563     6169143.334 9 -20463166.689 8
  21128246.177    21128249.252    33605434.298 9 -43412683.492 8
  22232449.803    22232451.531    71047277.916 9-102474119.682 8
  24925547.702    24925547.372   -10013431.718 9  11298391.906 8
 86  6 20  2 57 11.0800000  0  4G12G13G 9G 7
  20853983.330    20853985.035     6166721.436 9 -20465053.884 8
  21129702.487    21129705.933    33613087.954 9 -43406719.605 9
  22236543.949    22236545.049    71068792.554 9-102457355.033 9
  24921930.385    24921930.949   -10032438.301 9  11283581.566 8
 86  6 20  2 57 17.0800000  0  4G12G13G 9G 7
  20853527.116    20853529.466     6164325.284 9 -20466921.016 8
  21131160.124    21131163.652    33620748.550 9 -43400750.297 8
  22240641.530    22240643.145    71090320.712 9-102440579.835 8
  24918315.349    24918316.207   -10051435.263 9  11268778.744 8
 86  6 20  2 57 23.0800000  0  4G12G13G 9G 7
  20853077.136    20853078.608     6161954.848 9 -20468768.110 8
  21132619.754    21132622.393    33628416.159 9 -43394775.543 9
  22244740.446    22244742.172    71111862.424 9-102423794.106 8
  24914701.306    24914702.789   -10070424.788 9  11253981.707 8
 86  6 20  2 57 29.0800000  0  4G12G13G 9G 7
  20852631.077    20852632.448     6159610.182 8 -20470595.129 8
  21134080.779    21134081.419    33636090.729 9 -43388795.350 8
  22248840.970    22248843.970    71133417.592 9-102406997.863 8
  24911089.569    24911091.205   -10089407.575 9  11239189.931 8
 86  6 20  2 57 35.0800000  0  4G12G13G 9G 7
  20852189.478    20852191.156     6157291.355 9 -20472402.004 9
  21135541.976    21135543.844    33643772.349 9 -43382809.668 8
  22252946.155    22252949.060    71154986.270 9-102390191.101 9
  24907479.475    24907480.177   -10108381.303 9  11224405.205 8
 86  6 20  2 57 41.0800000  0  4G12G13G 9G 7
  20851753.538    20851755.846     6154998.328 9 -20474188.783 8
  21137006.219    21137007.466    33651460.984 9 -43376818.515 9
  22257053.077    22257055.420    71176568.376 9-102373373.883 9
                  24903870.967   -10127339.722 9
 86  6 20  2 57 47.0800000  0  4G12G13G 9G 7
  20851322.400    20851323.074     6152731.168 9 -20475955.395 9
  21138471.480    21138472.244    33659156.599 9 -43370821.941 8
  22261162.432    22261164.472    71198163.923 9-102356546.197 8
  24900267.840    24900269.544   -10146275.901 9  11256047.441 8
 86  6 20  2 57 53.0800000  0  4G12G13G 9G 7
  20850895.936    20850898.213     6150489.829 9 -20477701.894 8
  21139936.673    21139937.458    33666859.051 9 -43364820.024 9
  22265273.940    22265276.852    71219772.895 8-102339708.043 8
  24896669.661    24896671.504   -10165187.697 9  11241310.987 8
 86  6 20  2 57 59.0800000  0  4G12G13G 9G 7
  20850473.712    20850475.518     6148274.257 8 -20479428.319 8
  21141402.827    21141403.578    33674568.352 9 -43358812.783 9
  22269389.730    22269391.119    71241395.228 9-102322859.468 8
  24893074.439    24893077.354   -10184077.950 9  11226590.808 8
 86  6 20  2 58  5.0800000  0  4G12G13G 9G 7
  20850056.446    20850058.892     6146084.539 9 -20481134.593 8
  21142871.093    21142873.205    33682284.503 9 -43352800.202 9
  22273505.586    22273508.352    71263030.981 9-102306000.459 9
  24889482.822    24889485.807   -10202951.569 9  11211884.094 8
 86  6 20  2 58 11.0800000  0  4G12G13G 9G 7
  20849643.695    20849647.103     6143920.614 9 -20482820.776 8
  21144340.466    21144343.141    33690007.536 9 -43346782.258 9
  22277626.093    22277627.341    71284679.964 8-102289131.120 9
  24885893.887    24885896.064   -10221812.750 9  11197187.073 8
 86  6 20  2 58 17.0800000  0  4G12G13G 9G 7
  20849237.678    20849238.832     6141782.566 8 -20484486.784 8
  21145811.438    21145813.999    33697737.507 9 -43340758.900 8
  22281747.803    22281749.153    71306342.261 9-102272251.419 8
  24882306.551    24882309.150   -10240664.119 9  11182497.701 8
 86  6 20  2 58 23.0800000  0  4G12G13G 9G 7
  20848834.243    20848838.346     6139670.424 9 -20486132.615 9
  21147282.939    21147286.082    33705474.382 9 -43334730.165 9
  22285873.519    22285873.987    71328017.805 9-102255361.389 9
  24878720.630    24878722.289   -10259507.875 9  11167814.255 9
 86  6 20  2 58 29.0800000  0  4G12G13G 9G 7
  20848438.279    20848441.647     6137584.109 8 -20487758.306 7
  21148756.883    21148759.476    33713218.096 9 -43328696.101 8
  22290000.723    22290003.013    71349706.585 9-102238461.040 9
  24875136.273    24875138.151   -10278344.643 9  11153136.271 8
 86  6 20  2 58 35.0800000  0  4G12G13G 9G 7
  20848045.978    20848048.107     6135523.603 9 -20489363.905 8
  21150231.764    21150234.337    33720968.588 9 -43322656.754 8
  22294131.104    22294130.874    71371408.553 9-102221550.408 8
  24871554.013    24871555.006   -10297171.747 9  11138465.799 8
 86  6 20  2 58 41.0800000  0  4G12G13G 9G 7
  20847659.202    20847661.420     6133488.957 9 -20490949.343 8
  21151708.812    21151710.138    33728725.866 9 -43316612.112 9
  22298262.602    22298263.812    71393123.702 9-102204629.525 8
                  24867974.221   -10315982.271 9
 86  6 20  2 58 47.0800000  0  4G12G13G 9G 7
  20847276.693    20847278.164     6131480.220 9 -20492514.599 9
  21153186.745    21153188.387    33736489.990 9 -43310562.142 8
  22302398.015    22302399.340    71414852.021 9-102187698.361 9
  24864399.306    24864401.254   -10334769.817 9  11177456.620 8
 86  6 20  2 58 53.0800000  0  4G12G13G 9G 7
  20846898.940    20846901.289     6129497.389 9 -20494059.653 8
  21154665.457    21154666.375    33744260.989 9 -43304506.817 9
  22306535.011    22306536.604    71436593.501 9-102170756.952 8
  24860827.608    24860829.493   -10353532.790 9  11162836.116 8
 86  6 20  2 58 59.0800000  0  4G12G13G 9G 7
  20846527.832    20846528.767     6127540.451 8 -20495584.547 8
  21156145.944    21156146.076    33752038.792 9 -43298446.184 9
  22310675.535    22310674.873    71458348.097 8-102153805.318 8
  24857261.404    24857263.079   -10372274.535 9  11148232.162 9
 86  6 20  2 59  5.0800000  0  4G12G13G 9G 7
  20846159.958    20846160.738     6125609.361 8 -20497089.295 9
  21157626.452    21157627.910    33759823.344 9 -43292380.308 9
  22314816.959    22314817.971    71480115.778 9-102136843.498 8
  24853698.797    24853698.806   -10390999.872 9  11133641.004 8
 86  6 20  2 59 11.0800000  0  4G12G13G 9G 7
  20845796.108    20845799.633     6123704.174 8 -20498573.847 8
  21159109.183    21159109.796    33767614.630 9 -43286309.178 9
  22318961.379    22318961.525    71501896.495 9-102119871.515 8
  24850138.364    24850138.497   -10409712.851 9  11119059.462 8
 86  6 20  2 59 17.0800000  0  4G12G13G 9G 7
  20845439.091    20845440.754     6121824.985 8 -20500038.154 8
  21160593.033    21160593.409    33775412.617 9 -43280232.820 8
  22323109.401    22323109.120    71523690.321 9-102102889.315 8
  24846578.800    24846578.744   -10428416.079 9  11104485.518 8
 86  6 20  2 59 23.0800000  0  4G12G13G 9G 7
  20845087.119    20845088.776     6119971.729 9 -20501482.244 8
  21162078.283    21162079.244    33783217.375 9 -43274151.195 9
  22327258.569    22327258.935    71545497.110 9-102085897.012 8
  24843020.800    24843021.063   -10447111.586 9  11089917.592 9
 86  6 20  2 59 29.0800000  0  4G12G13G 9G 7
  20844739.207    20844740.951     6118144.339 9 -20502906.186 7
  21163564.904    21163566.724    33791028.714 9 -43268064.439 9
  22331411.398    22331411.113    71567316.887 9-102068894.589 9
  24839464.719    24839465.325   -10465799.679 9  11075355.443 8
 86  6 20  2 59 35.0800000  0  4G12G13G 9G 7
  20844396.457    20844398.562     6116342.909 9 -20504309.902 8
  21165052.386    21165054.511    33798846.662 9 -43261972.524 9
  22335564.637    22335565.141    71589149.646 9-102051882.050 9
  24835910.793    24835910.464   -10484477.367 9  11060801.397 8
 86  6 20  2 59 41.0800000  0  4G12G13G 9G 7
  20844059.120    20844059.868     6114567.375 8 -20505693.419 9
  21166542.253    21166542.575    33806671.225 9 -43255875.464 9
  22339723.003    22339722.150    71610995.311 9-102034859.468 8
                  24832359.322   -10503137.512 8
 86  6 20  2 59 47.0800000  0  4G12G13G 9G 7
  20843725.245    20843728.412     6112817.773 8 -20507056.741 8
  21168032.550    21168033.156    33814502.504 9 -43249773.171 8
  22343882.567    22343881.265    71632853.824 9-102017826.857 8
  24828813.689    24828813.918   -10521773.800 9  11092679.253 8
 86  6 20  2 59 53.0800000  0  4G12G13G 9G 7
  20843398.009    20843399.183     6111094.169 9 -20508399.809 8
  21169523.671    21169525.269    33822340.494 9 -43243665.640 9
  22348043.667    22348043.854    71654725.258 9-102000784.195 8
  24825270.696    24825272.979   -10540385.448 9  11078176.670 9
 86  6 20  2 59 59.0800000  0  4G12G13G 9G 7
  20843074.911    20843076.342     6109396.482 9 -20509722.672 9
  21171016.097    21171018.951    33830185.154 9 -43237552.917 9
  22352207.835    22352208.783    71676609.518 9-101983731.530 8
  24821733.292    24821735.657   -10558976.288 9  11063690.312 9
 86  6 20  3  0  5.0800000  0  4G12G13G 9G 7
  20842756.932    20842758.533     6107724.721 9 -20511025.350 9
  21172510.051    21172511.220    33838036.467 9 -43231435.012 9
  22356374.352    22356375.512    71698506.623 9-101966668.864 8
  24818198.043    24818201.672   -10577550.888 8  11049216.612 9
 86  6 20  3  0 11.0800000  0  4G12G13G 9G 7
  20842443.112    20842446.339     6106078.840 9 -20512307.851 9
  21174005.368    21174006.219    33845894.374 9 -43225311.966 9
  22360545.523    22360545.652    71720416.484 8-101949596.243 8
  24814666.189    24814668.079   -10596113.054 9  11034752.587 9
 86  6 20  3  0 17.0800000  0  4G12G13G 9G 7
  20842134.828    20842137.006     6104458.974 9 -20513570.095 8
  21175501.846    21175502.594    33853758.926 9 -43219183.741 9
  22364716.337    22364716.957    71742339.153 9-101932513.649 8
  24811134.185    24811138.114   -10614665.337 9  11020296.269 9
 86  6 20  3  0 23.0800000  0  4G12G13G 9G 7
  20841831.043    20841834.910     6102865.085 9 -20514812.087 8
  21176998.695    21177001.187    33861630.011 9 -43213050.427 9
  22368892.405    22368891.713    71764274.633 9-101915421.076 8
  24807606.178    24807608.944   -10633209.744 8  11005846.092 9
 86  6 20  3  0 29.0800000  0  4G12G13G 9G 7
  20841532.481    20841536.538     6101297.187 9 -20516033.838 9
  21178498.311    21178499.906    33869507.718 9 -43206911.957 9
  22373068.101    22373067.023    71786222.799 9-101898318.616 9
  24804078.877    24804082.550   -10651746.299 9  10991402.031 9
 86  6 20  3  0 35.0800000  0  4G12G13G 9G 7
  20841238.790    20841242.766     6099755.307 9 -20517235.304 9
  21179999.179    21179999.793    33877391.914 9 -43200768.425 8
  22377245.564    22377246.895    71808183.623 9-101881206.289 8
  24800553.816    24800557.326   -10670271.391 8  10976966.900 9
 86  6 20  3  0 41.0800000  0  4G12G13G 9G 7
  20840950.862    20840955.013     6098239.390 9 -20518416.540 9
  21181500.694    21181502.035    33885282.625 9 -43194619.818 9
  22381427.356    22381427.757    71830157.165 8-101864084.058 8
                  24797036.087                    10962546.298 9
 86  6 20  3  0 47.0800000  0  4G12G13G 9G 7
  20840668.271    20840669.914     6096749.462 9 -20519577.527 8
  21183003.056    21183004.088    33893179.954 9 -43188466.052 9
  22385611.135    22385611.640    71852143.265 8-101846952.032 8
  24793516.123    24793519.245   -10725104.018 8  10948144.626 9
 86  6 20  3  0 53.0800000  0  4G12G13G 9G 7
  20840390.299    20840390.456     6095285.594 9 -20520718.208 8
  21184508.023    21184509.109    33901083.822 8 -43182307.197 8
  22389796.119    22389797.599    71874142.006 9-101829810.166 8
  24790003.387    24790006.181   -10743561.774 9  10933761.960 9
 86  6 20  3  0 59.0800000  0  4G12G13G 9G 7
  20840116.795    20840116.895     6093847.812 9 -20521838.559 8
  21186012.319    21186013.374    33908994.163 9 -43176143.297 9
  22393985.921    22393985.997    71896153.420 9-101812658.411 8
  24786495.747    24786496.850   -10761998.783 9  10919395.474 9
 86  6 20  3  1  5.0800000  0  4G12G13G 9G 7
  20839848.129    20839849.946     6092435.930 8 -20522938.720 8
  21187518.173    21187520.853    33916910.955 9 -43169974.359 8
  22398175.423    22398177.917    71918177.380 9-101795496.881 8
  24782990.615    24782991.360   -10780419.701 9  10905041.515 9
 86  6 20  3  1 11.0800000  0  4G12G13G 9G 7
  20839583.367    20839585.455     6091049.997 9 -20524018.672 9
  21189027.439    21189028.750    33924834.236 9 -43163800.378 9
  22402369.864    22402371.162    71940213.877 9-101778325.594 8
  24779487.486    24779488.557   -10798828.235 8  10890697.206 9
 86  6 20  3  1 17.0800000  0  4G12G13G 9G 7
  20839324.683    20839326.806     6089690.036 9 -20525078.383 7
  21190535.702    21190536.398    33932764.033 9 -43157621.311 9
  22406564.485    22406566.115    71962262.825 9-101761144.596 8
  24775986.627    24775986.706   -10817226.985 9  10876360.532 9
 86  6 20  3  1 23.0800000  0  4G12G13G 9G 7
  20839071.273    20839073.304     6088356.121 9 -20526117.792 9
  21192045.900    21192047.503    33940700.255 9 -43151437.237 8
  22410763.219    22410765.519    71984324.253 9-101743953.882 8
  24772486.541    24772487.488   -10835617.613 8  10862030.189 9
 86  6 20  3  1 29.0800000  0  4G12G13G 9G 7
  20838823.264    20838822.373     6087048.225 9 -20527136.926 8
  21193557.375    21193558.671    33948642.981 9 -43145248.095 9
  22414963.826    22414965.146    72006398.144 9-101726753.447 9
  24768987.839    24768988.968   -10853999.921 9  10847706.307 9
 86  6 20  3  1 35.0800000  0  4G12G13G 9G 7
  20838578.661    20838579.982     6085766.362 9 -20528135.782 8
  21195069.455    21195071.137    33956592.119 9 -43139053.963 9
  22419166.353    22419168.284    72028484.580 9-101709543.244 9
                  24765493.421                    10833392.090 8
 86  6 20  3  1 41.0800000  0  4G12G13G 9G 7
  20838340.134    20838339.901     6084510.566 9 -20529114.323 8
  21196583.963    21196584.883    33964547.665 9 -43132854.836 8
  22423371.465    22423374.039    72050583.407 8-101692323.385 8
  24762030.768    24762001.492   -10908545.094 8  10819093.042 8
 86  6 20  3  1 47.0800000  0  4G12G13G 9G 7
  20838105.401    20838106.866     6083280.726 8 -20530072.637 9
  21198099.581    21198101.657    33972509.552 9 -43126650.774 9
  22427578.576    22427582.293    72072694.547 8-101675093.920 8
  24758511.668    24758512.968   -10926870.816 9  10804813.430 8
 86  6 20  3  1 53.0800000  0  4G12G13G 9G 7
  20837875.801    20837877.091     6082076.978 9 -20531010.635 8
  21199615.628    21199616.829    33980477.818 9 -43120441.730 8
  22431788.614    22431792.169    72094818.145 8-101657854.763 8
  24755029.558    24755030.893   -10945171.805 9  10790552.931 9
 86  6 20  3  1 59.0800000  0  4G12G13G 9G 7
  20837651.345    20837653.201     6080899.345 9 -20531928.261 8
  21201132.872    21201134.659    33988452.449 9 -43114227.728 8
  22436000.513    22436003.729    72116954.075 9-101640605.995 9
  24751550.883    24751552.222   -10963452.147 9  10776308.515 9
 86  6 20  3  2  5.0800000  0  4G12G13G 9G 7
  20837432.386    20837433.966     6079747.756 9 -20532825.604 8
  21202651.123    21202652.836    33996433.479 9 -43108008.751 8
  22440214.439    22440218.855    72139102.248 8-101623347.681 8
  24748074.897    24748077.568   -10981716.700 9  10762076.392 9
 86  6 20  3  2 11.0800000  0  4G12G13G 9G 7
  20837217.300    20837220.159     6078622.258 8 -20533702.614 9
  21204171.916    21204174.424    34004420.908 9 -43101784.774 9
  22444431.922    22444435.958    72161262.679 8-101606079.818 8
  24744602.457    24744603.717   -10999969.049 8  10747853.797 9
 86  6 20  3  2 17.0800000  0  4G12G13G 9G 7
  20837009.900    20837011.701     6077522.791 9 -20534559.341 8
  21205692.708    21205694.705    34012414.659 9 -43095555.877 9
  22448650.844    22448655.415    72183435.490 7-101588802.313 9
  24741130.685    24741131.429   -11018211.485 9  10733638.919 9
 86  6 20  3  2 23.0800000  0  4G12G13G 9G 7
  20836805.134    20836807.537     6076449.430 9 -20535395.736 9
  21207216.381    21207216.694    34020414.685 9 -43089322.082 8
  22452873.438    22452878.121    72205620.433 8-101571515.352 8
  24737661.153    24737662.328   -11036445.805 9  10719430.359 8
 86  6 20  3  2 29.0800000  0  4G12G13G 9G 7
  20836605.952    20836607.670     6075402.245 8 -20536211.730 8
  21208739.256    21208740.107    34028421.107 9 -43083083.315 9
  22457096.727    22457101.234    72227817.564 8-101554218.900 9
  24734192.949    24734194.811   -11054671.310 8  10705228.669 8
 86  6 20  3  2 35.0800000  0  4G12G13G 9G 7
  20836410.704    20836413.722     6074381.118 9 -20537007.419 8
  21210263.414    21210265.038    34036433.764 9 -43076839.694 9
  22461324.369    22461328.230    72250026.857 8-101536912.963 9
                  24730729.022                    10691037.317 8
 86  6 20  3  2 41.0800000  0  4G12G13G 9G 7
  20836221.695    20836225.614     6073386.055 9 -20537782.794 8
  21211790.078    21211791.548    34044452.702 9 -43070591.177 9
  22465552.044    22465557.261    72272248.437 8-101519597.456 9
  24727222.665    24727266.694   -11109116.785 9  10676861.964 9
 86  6 20  3  2 47.0800000  0  4G12G13G 9G 7
  20836036.850    20836039.654     6072417.053 8 -20538537.860 9
  21213316.560    21213317.610    34052477.846 9 -43064337.812 9
  22469783.890    22469787.345    72294482.070 8-101502272.551 9
  24723808.945    24723810.444   -11127282.826 9  10662706.603 9
 86  6 20  3  2 53.0800000  0  4G12G13G 9G 7
  20835857.938    20835860.737     6071474.137 9 -20539272.595 8
  21214845.274    21214846.407    34060509.177 9 -43058079.631 8
  22474018.078    22474020.987    72316727.827 8-101484938.204 9
  24720357.243    24720357.901   -11145423.892 9  10648570.313 9
 86  6 20  3  2 59.0800000  0  4G12G13G 9G 7
  20835684.198    20835685.701     6070557.294 9 -20539987.022 8
  21216373.771    21216376.262    34068546.727 9 -43051816.615 9
  22478253.508    22478256.874    72338985.650 9-101467594.456 9
  24716909.605    24716909.756   -11163545.150 9  10634449.845 9
 86  6 20  3  3  5.0800000  0  4G12G13G 9G 7
  20835515.811    20835514.534     6069666.553 9 -20540681.094 8
  21217904.374    21217906.122    34076590.551 9 -43045548.693 9
  22482490.918    22482494.811    72361255.493 8-101450241.332 9
  24713464.295    24713465.334   -11181650.783 9  10620341.566 8
 86  6 20  3  3 11.0800000  0  4G12G13G 9G 7
  20835351.469    20835351.931     6068801.974 9 -20541354.791 8
  21219436.511    21219437.743    34084640.583 9 -43039275.938 8
  22486731.043    22486734.727    72383537.343 9-101432878.863 8
  24710021.165    24710021.903   -11199744.207 9  10606242.788 9
 86  6 20  3  3 17.0800000  0  4G12G13G 9G 7
  20835191.267    20835192.299     6067963.501 9 -20542008.139 8
  21220969.403    21220971.631    34092696.839 9 -43032998.335 9
  22490974.470    22490977.399    72405831.211 8-101415507.010 9
  24706579.494    24706580.800   -11217827.681 9  10592151.768 8
 86  6 20  3  3 23.0800000  0  4G12G13G 9G 7
  20835036.243    20835037.360     6067151.167 9 -20542641.125 8
  21222504.322    21222505.875    34100759.304 9 -43026715.895 8
  22495218.830    22495221.619    72428137.053 9-101398125.859 9
  24703139.221    24703141.176   -11235902.864 9  10578067.211 8
 86  6 20  3  3 29.0800000  0  4G12G13G 9G 7
  20834887.206    20834887.339     6066364.963 9 -20543253.764 9
  21224039.629    21224041.291    34108827.954 9 -43020428.634 8
  22499467.258    22499468.019    72450454.741 9-101380735.441 9
  24699702.003    24699702.886   -11253968.810 9  10563989.858 9
 86  6 20  3  3 35.0800000  0  4G12G13G 9G 7
  20834742.444    20834743.450     6065604.827 9 -20543846.065 8
  21225575.670    21225577.177    34116902.707 9 -43014136.622 9
  22503715.428    22503717.293    72472784.306 9-101363335.782 9
                  24696266.816                    10549923.600 8
 86  6 20  3  3 41.0800000  0  4G12G13G 9G 7
  20834601.741    20834603.792     6064870.815 9 -20544418.029 8
  21227112.969    21227115.165    34124983.560 9 -43007839.857 8
  22507967.466    22507967.734    72495125.743 9-101345926.876 8
  24692733.183    24692835.808   -11308252.915 9  10535874.051 8
 86  6 20  3  3 47.0800000  0  4G12G13G 9G 7
  20834467.340    20834470.145     6064162.921 9 -20544969.636 9
  21228652.364    21228653.921    34133070.516 9 -43001538.335 9
  22512220.877    22512222.737    72517479.081 9-101328508.694 8
  24689410.350    24689409.484   -11326256.940 9  10521844.837 7
 86  6 20  3  3 53.0800000  0  4G12G13G 9G 7
  20834337.870    20834339.476     6063481.213 8 -20545500.837 8
  21230192.898    21230193.481    34141163.652 9 -42995231.988 9
  22516477.154    22516478.291    72539844.359 9-101311081.207 8
  24685988.065    24685989.356   -11344236.766 9  10507834.590 9
 86  6 20  3  3 59.0800000  0  4G12G13G 9G 7
  20834212.768    20834214.301     6062825.626 9 -20546011.681 9
  21231733.608    21231734.825    34149262.926 9 -42988920.861 8
  22520735.451    22520736.261    72562221.399 9-101293644.555 8
  24682569.574    24682570.336   -11362196.442 9  10493840.037 8
 86  6 20  3  4  5.0800000  0  4G12G13G 9G 7
  20834092.805    20834094.393     6062196.158 8 -20546502.182 8
  21233275.006    21233277.929    34157368.311 9 -42982604.972 8
  22524995.682    22524996.048    72584610.193 8-101276198.733 8
  24679154.256    24679157.575   -11380140.618 8  10479857.565 8
 86  6 20  3  4 11.0800000  0  4G12G13G 9G 7
  20833978.814    20833979.465     6061592.913 9 -20546972.249 9
  21234819.620    21234821.334    34165479.817 9 -42976284.321 8
  22529258.480    22529258.632    72607010.777 9-101258743.742 8
  24675742.067    24675744.374   -11398072.500 9  10465884.672 9
 86  6 20  3  4 17.0800000  0  4G12G13G 9G 7
  20833867.729    20833870.427     6061015.822 9 -20547421.929 9
  21236364.967    21236365.761    34173597.287 9 -42969959.012 8
  22533522.869    22533523.798    72629423.064 8-101241279.615 9
  24672332.691    24672334.447   -11415994.414 9  10451919.561 9
 86  6 20  3  4 23.0800000  0  4G12G13G 9G 7
  20833763.968    20833765.396     6060464.812 9 -20547851.290 8
  21237910.967    21237911.039    34181720.850 9 -42963628.968 9
  22537790.377    22537791.063    72651847.035 9-101223806.396 8
  24668923.741    24668925.339   -11433907.909 9  10437960.995 8
 86  6 20  3  4 29.0800000  0  4G12G13G 9G 7
  20833664.749    20833666.209     6059939.977 9 -20548260.255 9
  21239457.538    21239458.201    34189850.434 9 -42957294.223 8
  22542059.438    22542059.725    72674282.596 9-101206324.132 8
  24665516.967    24665518.720   -11451811.613 9  10424010.065 8
 86  6 20  3  4 35.0800000  0  4G12G13G 9G 7
  20833569.877    20833571.707     6059441.349 9 -20548648.801 9
  21241005.861    21241006.195    34197986.137 9 -42950954.710 8
  22546331.019    22546331.005    72696729.889 9-101188832.746 7
                  24662113.872                    10410071.035 8
 86  6 20  3  4 41.0800000  0  4G12G13G 9G 7
  20833479.773    20833481.851     6058968.814 9 -20549017.001 9
  21242554.483    21242556.342    34206127.858 9 -42944610.514 8
  22550604.643    22550604.895    72719188.765 8-101171332.324 7
  24658656.891    24658715.488   -11505936.648 9  10396149.438 9
 86  6 20  3  4 47.0800000  0  4G12G13G 9G 7
  20833394.925    20833396.769     6058522.416 9 -20549364.842 9
  21244105.576    21244106.667    34214275.567 9 -42938261.653 8
  22554880.193    22554879.520    72741659.256 9-101153822.863 8
  24655318.278    24655319.887   -11523776.126 9  10382248.505 8
 86  6 20  3  4 53.0800000  0  4G12G13G 9G 7
  20833314.534    20833316.383     6058102.180 9 -20549692.302 8
  21245657.793    21245658.096    34222429.212 9 -42931908.158 9
  22559158.711    22559159.368    72764141.336 9-101136304.353 8
  24651927.869    24651929.209   -11541592.000 9  10368366.407 9
 86  6 20  3  4 59.0800000  0  4G12G13G 9G 7
  20833238.871    20833240.861     6057708.176 9 -20549999.323 9
  21247210.087    21247211.533    34230588.868 9 -42925549.991 9
  22563439.256    22563439.369    72786634.913 9-101118776.892 8
  24648541.826    24648543.062   -11559387.406 9  10354499.862 9
 86  6 20  3  5  5.0800000  0  4G12G13G 9G 7
  20833168.897    20833170.545     6057340.429 9 -20550285.872 9
  21248764.261    21248765.501    34238754.481 9 -42919187.174 9
  22567721.871    22567722.158    72809140.069 9-101101240.413 7
  24645158.151    24645158.537   -11577167.338 9  10340645.367 9
 86  6 20  3  5 11.0800000  0  4G12G13G 9G 7
  20833102.676    20833105.841     6056998.859 9 -20550552.037 8
  21250318.587    21250320.057    34246925.952 9 -42912819.788 9
  22572006.656    22572006.521    72831656.722 9-101083694.968 7
  24641776.645    24641777.789   -11594934.962 9  10326800.476 8
 86  6 20  3  5 17.0800000  0  4G12G13G 9G 7
  20833042.865    20833046.169     6056683.460 9 -20550797.803 8
  21251875.416    21251876.488    34255103.373 9 -42906447.785 8
  22576293.568    22576294.686    72854184.780 9-101066140.634 8
  24638397.819    24638398.874   -11612692.508 9  10312963.431 8
 86  6 20  3  5 23.0800000  0  4G12G13G 9G 7
  20832988.376    20832989.621     6056394.218 8 -20551023.197 8
  21253432.611    21253434.390    34263286.738 9 -42900071.130 9
  22580583.381    22580583.024    72876724.330 9-101048577.364 8
  24635020.203    24635020.408   -11630441.236 9  10299133.260 8
 86  6 20  3  5 29.0800000  0  4G12G13G 9G 7
  20832937.503    20832940.258     6056131.165 8 -20551228.170 8
  21254991.958    21254992.008    34271476.039 9 -42893689.859 8
  22584874.197    22584875.079    72899275.262 9-101031005.209 8
  24631645.001    24631644.926   -11648179.545 9  10285311.204 9
 86  6 20  3  5 35.0800000  0  4G12G13G 9G 7
  20832892.863    20832895.159     6055894.339 9 -20551412.714 8
  21256550.699    21256550.794    34279671.264 9 -42887303.963 9
  22589167.380    22589166.854    72921837.603 9-101013424.165 8
                  24628272.513                    10271501.786 8
 86  6 20  3  5 41.0800000  0  4G12G13G 9G 7
  20832852.478    20832855.035     6055683.739 8 -20551576.817 9
  21258110.177    21258110.944    34287872.455 9 -42880913.418 9
  22593463.294    22593463.730    72944411.330 8-100995834.252 8
  24624905.320    24624904.797   -11702008.250 9  10257710.678 9
 86  6 20  3  5 47.0800000  0  4G12G13G 9G 7
  20832818.440    20832819.173     6055499.295 8 -20551720.539 8
  21259672.094    21259673.338    34296079.498 9 -42874518.312 9
  22597760.831    22597761.710    72966996.357 9-100978235.536 8
  24621542.349    24621542.254   -11719680.278 9  10243940.255 9
 86  6 20  3  5 53.0800000  0  4G12G13G 9G 7
  20832787.421    20832789.389     6055341.034 9 -20551843.858 8
  21261235.449    21261235.928    34304292.389 9 -42868118.665 9
  22602061.229    22602061.005    72989592.679 9-100960628.017 8
  24618183.404    24618184.009   -11737328.080 9  10230188.727 9
 86  6 20  3  5 59.0800000  0  4G12G13G 9G 7
  20832763.689    20832765.231     6055208.979 9 -20551946.742 8
  21262799.215    21262800.729    34312511.124 9 -42861714.460 8
  22606362.997    22606363.483    73012200.282 9-100943011.712 8
  24614830.441    24614829.744   -11754956.284 9  10216452.470 8
 86  6 20  3  6  5.0800000  0  4G12G13G 9G 7
  20832744.881    20832743.768     6055103.116 9 -20552029.229 8
  21264365.011    21264365.135    34320735.637 9 -42855305.745 9
  22610666.835    22610667.160    73034819.080 9-100925386.674 7
  24611478.184    24611478.188   -11772569.251 9  10202728.077 8
 86  6 20  3  6 11.0800000  0  4G12G13G 9G 7
  20832728.871    20832729.086     6055023.495 8 -20552091.269 9
  21265930.598    21265931.752    34328966.050 9 -42848892.437 9
  22614972.487    22614974.427    73057449.103 8-100907752.903 8
  24608129.065    24608129.532   -11790169.843 9  10189013.321 8
 86  6 20  3  6 17.0800000  0  4G12G13G 9G 7
  20832717.464    20832718.726     6054970.155 9 -20552132.842 8
  21267497.672    21267499.683    34337202.323 9 -42842474.567 8
  22619280.870    22619281.858    73080090.567 9-100890110.207 8
  24604781.463    24604782.230   -11807760.556 9  10175306.275 9
 86  6 20  3  6 23.0800000  0  4G12G13G 9G 7
  20832712.483    20832715.008     6054943.118 9 -20552153.905 7
  21269066.532    21269068.181    34345444.504 9 -42836052.087 8
  22623592.581    22623593.853    73102743.145 8-100872458.843 8
  24601435.428    24601436.722   -11825342.105 9  10161606.371 8
 86  6 20  3  6 29.0800000  0  4G12G13G 9G 7
  20832711.905    20832713.665     6054942.235 9 -20552154.598 8
  21270635.792    21270638.056    34353692.434 9 -42829625.132 9
  22627904.783    22627906.112    73125406.698 9-100854798.943 8
  24598090.670    24598093.083   -11842912.579 9  10147915.096 8
 86  6 20  3  6 35.0800000  0  4G12G13G 9G 7
  20832718.029    20832718.879     6054967.649 9 -20552134.801 8
  21272205.992    21272207.847    34361946.144 9 -42823193.665 9
  22632219.793    22632221.180    73148081.527 9-100837130.249 8
                  24594753.073                    10134237.279 9
 86  6 20  3  6 41.0800000  0  4G12G13G 9G 7
  20832727.931    20832728.752     6055019.181 9 -20552094.643 8
  21273778.692    21273779.691    34370205.501 9 -42816757.801 9
  22636535.723    22636538.390    73170767.374 8-100819452.964 8
  24591414.630    24591418.351   -11896696.338 9  10120578.305 9
 86  6 20  3  6 47.0800000  0  4G12G13G 9G 7
  20832743.015    20832744.806     6055096.950 9 -20552034.054 8
  21275351.439    21275353.806    34378470.566 9 -42810317.490 8
  22640854.998    22640857.302    73193464.237 8-100801767.106 8
  24588084.161    24588085.619   -11914198.604 9  10106940.145 9
 86  6 20  3  6 53.0800000  0  4G12G13G 9G 7
  20832761.991    20832762.975     6055200.882 9 -20551953.069 8
  21276925.622    21276926.103    34386741.429 9 -42803872.663 9
  22645176.191    22645177.555    73216172.133 9-100784072.638 8
  24584758.584    24584760.935   -11931676.399 9  10093320.702 9
 86  6 20  3  6 59.0800000  0  4G12G13G 9G 7
  20832787.265    20832789.054     6055331.111 9 -20551851.601 8
  21278500.697    21278501.815    34395018.076 9 -42797423.328 8
  22649498.679    22649501.676    73238891.074 9-100766369.569 8
  24581435.261    24581438.379   -11949135.216 9  10079716.443 9
 86  6 20  3  7  5.0800000  0  4G12G13G 9G 7
  20832815.894    20832819.334     6055487.542 9 -20551729.710 9
  21280076.117    21280077.065    34403300.425 9 -42790969.552 9
  22653824.254    22653827.240    73261620.938 9-100748657.992 8
  24578116.486    24578118.980   -11966578.957 9  10066123.918 8
 86  6 20  3  7 11.0800000  0  4G12G13G 9G 7
  20832851.200    20832854.391     6055670.198 8 -20551587.380 8
  21281654.489    21281654.802    34411588.391 9 -42784511.400 8
  22658152.285    22658155.068    73284361.879 7-100730937.787 8
  24574799.428    24574801.137   -11984010.494 9  10052540.915 9
 86  6 20  3  7 17.0800000  0  4G12G13G 9G 7
  20832890.521    20832892.340     6055879.101 9 -20551424.598 8
  21283232.250    21283232.008    34419881.988 9 -42778048.849 8
  22662480.349    22662483.367    73307113.649 8-100713209.149 8
  24571484.233    24571486.326   -12001431.842 9  10038965.835 9
 86  6 20  3  7 23.0800000  0  4G12G13G 9G 7
  20832934.609    20832938.156     6056114.256 9 -20551241.363 8
  21284810.404    21284811.680    34428181.335 9 -42771581.832 8
  22666812.208    22666816.068    73329876.427 9-100695471.915 8
  24568169.790    24568172.403   -12018843.589 8  10025398.259 9
 86  6 20  3  7 29.0800000  0  4G12G13G 9G 7
  20832984.804    20832988.615     6056375.648 8 -20551037.691 8
  21286390.952    21286392.213    34436486.333 9 -42765110.402 9
  22671145.555    22671149.856    73352650.104 9-100677726.209 8
  24564859.033    24564861.876   -12036243.651 9  10011839.779 9
 86  6 20  3  7 35.0800000  0  4G12G13G 9G 7
  20833039.179    20833042.362     6056663.285 9 -20550813.565 8
  21287972.358    21287974.391    34444796.985 9 -42758634.571 8
  22675482.949    22675484.943    73375434.599 8-100659972.057 7
                  24561553.137                     9998295.375 8
 86  6 20  3  7 41.0800000  0  4G12G13G 9G 7
  20833099.022    20833102.285     6056977.174 9 -20550568.981 8
  21289555.665    21289557.160    34453113.258 9 -42752154.358 8
  22679820.425    22679822.539    73398229.957 8-100642209.458 8
  24558248.620    24558249.826   -12089857.194 9   9984770.418 8
 86  6 20  3  7 47.0800000  0  4G12G13G 9G 7
  20833163.756    20833167.371     6057317.317 9 -20550303.924 8
  21291139.721    21291140.396    34461435.184 9 -42745669.741 9
  22684160.472    22684161.971    73421036.020 8-100624438.500 8
  24554951.190    24554952.100   -12107187.281 9   9971266.452 8
 86  6 20  3  7 53.0800000  0  4G12G13G 9G 7
  20833233.862    20833237.429     6057683.719 9 -20550018.424 9
  21292723.988    21292723.581    34469762.682 9 -42739180.782 8
  22688502.641    22688504.382    73443852.834 9-100606659.162 7
  24551657.586    24551658.926   -12124493.978 9   9957781.109 8
 86  6 20  3  7 59.0800000  0  4G12G13G 9G 7
  20833308.226    20833311.230     6058076.443 9 -20549712.405 9
  21294309.024    21294309.786    34478095.806 9 -42732687.446 9
  22692846.213    22692849.374    73466680.503 9-100588871.365 8
  24548367.731    24548368.881   -12141780.850 9   9944310.830 9
 86  6 20  3  8  5.0800000  0  4G12G13G 9G 7
  20833388.277    20833391.195     6058495.370 8 -20549385.965 8
  21295895.284    21295897.100    34486434.495 9 -42726189.765 8
  22697192.299    22697195.273    73489518.866 9-100571075.257 9
  24545081.630    24545082.993   -12159052.672 8   9930852.264 9
 86  6 20  3  8 11.0800000  0  4G12G13G 9G 7
  20833473.479    20833476.911     6058940.561 9 -20549039.067 9
  21297483.736    21297484.967    34494778.640 9 -42719687.834 8
  22701540.609    22701543.897    73512367.898 8-100553270.824 8
  24541797.514    24541797.736   -12176312.271 9   9917403.229 8
 86  6 20  3  8 17.0800000  0  4G12G13G 9G 7
  20833562.950    20833565.600     6059412.012 9 -20548671.711 9
  21299071.828    21299074.102    34503128.293 9 -42713181.604 8
  22705890.726    22705893.662    73535227.651 8-100535458.031 9
  24538515.413    24538516.695   -12193561.721 9   9903962.098 8
 86  6 20  3  8 23.0800000  0  4G12G13G 9G 7
  20833658.614    20833660.839     6059909.801 8 -20548283.817 9
  21300662.254    21300664.270    34511483.566 9 -42706671.007 9
  22710242.994    22710244.554    73558097.992 9-100517636.996 9
  24535235.912    24535235.273   -12210801.331 9   9890528.633 8
 86  6 20  3  8 29.0800000  0  4G12G13G 9G 7
  20833757.986    20833759.460     6060433.874 9 -20547875.450 9
  21302254.375    21302255.743    34519844.397 9 -42700156.081 8
  22714597.918    22714598.933    73580978.935 9-100499807.692 8
  24531956.480    24531958.859   -12228028.430 9   9877104.916 9
 86  6 20  3  8 35.0800000  0  4G12G13G 9G 7
  20833862.415    20833865.124     6060984.192 9 -20547446.628 8
  21303845.654    21303847.476    34528210.730 9 -42693636.861 9
  22718954.691    22718955.240    73603870.487 9-100481970.127 8
                  24528683.409                     9863696.218 8
 86  6 20  3  8 41.0800000  0  4G12G13G 9G 7
  20833973.115    20833974.446     6061560.773 8 -20546997.349 9
  21305439.195    21305438.417    34536582.606 9 -42687113.310 9
  22723311.534    22723313.946    73626772.614 9-100464124.312 8
  24525412.747    24525414.648   -12281465.401 9   9850307.536 8
 86  6 20  3  8 47.0800000  0  4G12G13G 9G 7
  20834086.541    20834088.576     6062163.593 9 -20546527.624 8
  21307033.525    21307035.169    34544959.967 9 -42680585.506 8
  22727671.937    22727674.368    73649685.323 9-100446270.264 8
  24522147.853    24522149.941   -12298620.477 9   9836939.935 9
 86  6 20  3  8 53.0800000  0  4G12G13G 9G 7
  20834206.355    20834207.739     6062792.682 9 -20546037.426 9
  21308628.467    21308628.990    34553342.828 9 -42674053.406 8
  22732033.080    22732035.730    73672608.506 9-100428408.045 9
  24518886.983    24518890.573   -12315751.589 9   9823591.018 9
 86  6 20  3  8 59.0800000  0  4G12G13G 9G 7
  20834330.571    20834332.379     6063448.023 8 -20545526.765 8
  21310223.926    21310225.331    34561731.192 9 -42667517.019 8
  22736397.531    22736401.097    73695542.084 9-100410537.732 8
  24515631.382    24515633.516   -12332863.626 9   9810256.960 9
 86  6 20  3  9  5.0800000  0  4G12G13G 9G 7
  20834460.905    20834462.511     6064129.642 9 -20544995.625 8
  21311821.828    21311821.966    34570125.004 9 -42660976.384 9
  22740763.874    22740766.637    73718486.094 8-100392659.289 8
  24512378.041    24512380.653   -12349960.629 9   9796934.627 9
 86  6 20  3  9 11.0800000  0  4G12G13G 9G 7
  20834595.816    20834596.734     6064837.533 8 -20544444.023 8
  21313419.649    21313419.819    34578524.295 9 -42654431.487 8
  22745132.643    22745134.473    73741440.588 9-100374772.675 9
  24509125.610    24509128.481   -12367045.363 9   9783621.854 8
 86  6 20  3  9 17.0800000  0  4G12G13G 9G 7
  20834735.999    20834734.868     6065571.719 9 -20543871.936 8
  21315019.434    21315019.841    34586928.987 9 -42647882.374 9
  22749502.899    22749504.937    73764405.567 9-100356877.886 9
  24505876.048    24505879.320   -12384119.880 9   9770317.042 9
 86  6 20  3  9 23.0800000  0  4G12G13G 9G 7
  20834879.680    20834881.595     6066332.210 9 -20543279.345 9
  21316619.671    21316617.684    34595339.164 9 -42641328.992 9
  22753875.673    22753876.845    73787380.861 9-100338975.062 9
  24502629.317    24502632.525   -12401184.209 9   9757020.176 9
 86  6 20  3  9 29.0800000  0  4G12G13G 9G 7
  20835029.714    20835030.530     6067118.944 9 -20542666.299 8
  21318220.663    21318221.318    34603754.726 9 -42634771.408 8
  22758248.731    22758251.170    73810366.472 9-100321064.198 9
  24499385.865    24499387.239   -12418235.488 9   9743733.466 8
 86  6 20  3  9 35.0800000  0  4G12G13G 9G 7
  20835184.408    20835186.873     6067931.990 9 -20542032.778 8
  21319823.013    21319823.292    34612175.605 9 -42628209.683 9
  22762624.580    22762626.252    73833362.391 9-100303145.314 9
                  24496146.980                     9730462.531 8
 86  6 20  3  9 41.0800000  0  4G12G13G 9G 7
  20835344.202    20835346.307     6068771.300 9 -20541378.768 9
  21321426.821    21321427.441    34620601.866 9 -42621643.772 8
  22767002.914    22767005.425    73856368.700 9-100285218.325 9
  24492910.283    24492911.793   -12471367.619 9   9717212.225 8
 86  6 20  3  9 47.0800000  0  4G12G13G 9G 7
  20835509.185    20835511.062     6069636.880 9 -20540704.292 9
  21323030.790    21323032.812    34629033.533 9 -42615073.639 8
  22771382.525    22771385.205    73879385.208 9-100267283.392 9
  24489678.761    24489679.998   -12488344.939 9   9703983.168 9
 86  6 20  3  9 53.0800000  0  4G12G13G 9G 7
  20835678.694    20835681.486     6070528.748 9 -20540009.331 8
  21324636.706    21324638.996    34637470.628 9 -42608499.282 8
  22775765.078    22775767.230    73902411.920 8-100249340.497 8
  24486452.720    24486453.485   -12505298.128 8   9690772.494 8
 86  6 20  3  9 59.0800000  0  4G12G13G 9G 7
  20835853.384    20835855.608     6071446.895 9 -20539293.895 9
  21326243.497    21326244.544    34645913.097 9 -42601920.726 8
  22780148.352    22780150.411    73925449.026 9-100231389.518 8
  24483229.837    24483230.863   -12522233.039 9   9677576.471 9
 86  6 20  3 10  5.0800000  0  4G12G13G 9G 7
  20836033.409    20836035.408     6072391.331 9 -20538557.960 8
  21327850.069    21327851.976    34654360.904 9 -42595338.026 8
  22784533.947    22784536.650    73948496.226 8-100213430.665 9
  24480010.841    24480011.809   -12539153.044 9   9664392.045 8
 86  6 20  3 10 11.0800000  0  4G12G13G 9G 7
  20836218.728    20836220.514     6073361.990 9 -20537801.612 9
  21329459.166    21329459.757    34662813.961 9 -42588751.230 9
  22788921.800    22788924.135    73971553.507 8-100195463.961 9
  24476792.966    24476795.426   -12556060.590 9   9651217.344 8
 86  6 20  3 10 17.0800000  0  4G12G13G 9G 7
  20836407.768    20836409.633     6074359.027 9 -20537024.702 9
  21331069.534    21331070.176    34671272.434 9 -42582160.204 8
  22793311.100    22793312.977    73994621.091 8-100177489.229 8
  24473576.874    24473579.816   -12572957.638 9   9638050.808 8
 86  6 20  3 10 23.0800000  0  4G12G13G 9G 7
  20836602.272    20836603.806     6075382.334 9 -20536227.323 8
  21332680.051    21332680.338    34679736.192 9 -42575565.066 8
  22797703.216    22797704.560    74017698.754 9-100159506.635 8
  24470363.560    24470366.460   -12589844.381 9   9624892.312 8
 86  6 20  3 10 29.0800000  0  4G12G13G 9G 7
  20836802.664    20836803.414     6076431.949 9 -20535409.436 8
  21334290.934    21334291.599    34688205.297 9 -42568965.768 9
  22802096.090    22802098.612    74040786.464 9-100141516.217 9
  24467151.932    24467156.049   -12606717.116 9   9611744.729 8
 86  6 20  3 10 35.0800000  0  4G12G13G 9G 7
  20837007.483    20837009.012     6077507.788 9 -20534571.126 8
  21335903.477    21335904.714    34696679.623 9 -42562362.401 8
  22806491.971    22806493.813    74063884.262 8-100123517.948 9
                  24463949.015                     9598613.702 8
 86  6 20  3 10 41.0800000  0  4G12G13G 9G 7
  20837215.997    20837218.762     6078609.915 9 -20533712.327 7
  21337516.708    21337518.109    34705159.163 9 -42555754.971 9
  22810888.151    22810891.384    74086991.891 9-100105511.999 8
  24460745.250    24460746.390   -12659798.654 9   9585503.688 8
 86  6 20  3 10 47.0800000  0  4G12G13G 9G 7
  20837430.976    20837432.030     6079738.354 9 -20532833.032 9
  21339132.657    21339132.212    34713643.919 9 -42549143.459 9
  22815287.361    22815290.209    74110109.681 9-100087498.149 9
  24457548.060    24457549.849   -12676595.967 9   9572414.861 8
 86  6 20  3 10 53.0800000  0  4G12G13G 9G 7
  20837651.601    20837651.361     6080893.070 9 -20531933.256 9
  21340747.798    21340748.336    34722133.877 9 -42542527.919 8
  22819688.129    22819691.474    74133237.397 9-100069476.560 9
  24454356.523    24454359.203   -12693370.319 9   9559344.343 8
 86  6 20  3 10 59.0800000  0  4G12G13G 9G 7
  20837875.237    20837877.502     6082074.132 8 -20531012.947 8
  21342364.908    21342366.248    34730629.118 9 -42535908.241 9
  22824091.615    22824094.148    74156375.099 9-100051447.188 9
  24451168.354    24451168.759   -12710125.378 9   9546288.455 9
 86  6 20  3 11  5.0800000  0  4G12G13G 9G 7
  20838105.559    20838106.476     6083281.449 9 -20530072.180 8
  21343982.751    21343983.868    34739129.603 9 -42529284.492 9
  22828497.326    22828498.270    74179522.676 8-100033410.116 9
  24447982.655    24447983.858   -12726865.537 9   9533244.181 8
 86  6 20  3 11 11.0800000  0  4G12G13G 9G 7
  20838340.422    20838341.206     6084515.026 9 -20529110.953 7
  21345600.698    21345602.493    34747635.374 9 -42522656.614 9
  22832903.334    22832906.468    74202680.205 8-100015365.296 9
  24444799.072    24444801.091   -12743593.168 9   9520209.656 8
 86  6 20  3 11 17.0800000  0  4G12G13G 9G 7
  20838580.369    20838581.435     6085774.939 9 -20528129.211 9
  21347219.569    21347222.052    34756146.391 8 -42516024.651 9
  22837312.115    22837314.624    74225847.617 9 -99997312.765 8
  24441617.640    24441620.445   -12760310.193 9   9507183.410 9
 86  6 20  3 11 23.0800000  0  4G12G13G 9G 7
  20838825.617    20838825.548     6087061.105 8 -20527127.003 7
  21348839.577    21348842.136    34764662.567 9 -42509388.663 9
  22841723.099    22841725.103    74249024.877 9 -99979252.579 9
  24438438.568    24438440.417   -12777016.467 9   9494165.540 9
 86  6 20  3 11 29.0800000  0  4G12G13G 9G 7
  20839075.529    20839075.899     6088373.597 9 -20526104.286 8
  21350462.802    21350463.877    34773183.916 9 -42502748.657 9
  22846135.392    22846137.109    74272211.952 9 -99961184.735 9
                  24435264.977                     9481159.374 8
 86  6 20  3 11 35.0800000  0  4G12G13G 9G 7
  20839328.314    20839331.664     6089712.430 9 -20525061.046 8
  21352085.440    21352085.785    34781710.465 9 -42496104.581 8
  22850549.548    22850552.339    74295408.811 9 -99943109.254 9
  24432085.061    24432092.359   -12829962.546 9   9468170.408 8
 86  6 20  3 11 41.0800000  0  4G12G13G 9G 7
  20839588.972    20839590.894     6091077.596 9 -20523997.277 9
  21353709.333    21353708.983    34790242.132 9 -42489456.535 8
  22854964.702    22854966.561    74318615.392 8 -99925026.217 9
  24428921.914    24428923.598   -12846604.410 9   9455203.026 9
 86  6 20  3 11 47.0800000  0  4G12G13G 9G 7
  20839854.541    20839856.414     6092469.042 8 -20522913.033 9
  21355333.862    21355333.196    34798778.938 9 -42482804.477 9
  22859383.320    22859384.986    74341831.709 9 -99906935.580 9
  24425760.883    24425763.002   -12863218.709 9   9442256.818 8
 86  6 20  3 11 53.0800000  0  4G12G13G 9G 7
  20840123.348    20840125.859     6093886.777 9 -20521808.311 9
  21356959.146    21356959.303    34807320.886 9 -42476148.412 9
  22863803.176    22863805.128    74365057.749 9 -99888837.377 8
  24422604.465    24422606.460   -12879809.875 9   9429328.635 9
 86  6 20  3 11 59.0800000  0  4G12G13G 9G 7
  20840398.344    20840399.796     6095330.778 9 -20520683.110 9
  21358585.683    21358585.176    34815867.914 9 -42469488.387 8
  22868225.051    22868226.509    74388293.504 9 -99870731.599 9
  24419450.777    24419452.123   -12896382.446 9   9416414.946 8
 86  6 20  3 12  5.0800000  0  4G12G13G 9G 7
  20840677.865    20840681.406     6096801.070 9 -20519537.438 8
  21360212.204    21360213.661    34824419.995 9 -42462824.435 9
  22872648.227    22872649.861    74411538.915 8 -99852618.310 9
  24416298.983    24416301.506   -12912940.191 9   9403512.808 9
 86  6 20  3 12 11.0800000  0  4G12G13G 9G 7
  20840961.298    20840965.008     6098297.634 8 -20518371.279 8
  21361840.785    21361841.971    34832977.155 9 -42456156.518 8
  22877072.192    22877075.199    74434793.982 8 -99834497.464 9
  24413150.864    24413153.235   -12929485.476 9   9390620.382 8
 86  6 20  3 12 17.0800000  0  4G12G13G 9G 7
  20841252.478    20841255.114     6099820.502 9 -20517184.625 8
  21363469.273    21363471.721    34841539.428 9 -42449484.623 8
  22881500.151    22881501.970    74458058.700 9 -99816369.132 9
  24410004.865    24410006.976   -12946019.988 9   9377736.358 9
 86  6 20  3 12 23.0800000  0  4G12G13G 9G 7
  20841546.861    20841550.059     6101369.637 9 -20515977.508 9
  21365100.613    21365101.163    34850106.699 9 -42442808.824 9
  22885928.748    22885930.551    74481332.962 9 -99798233.340 9
  24406861.078    24406862.999   -12962543.179 9   9364861.155 9
 86  6 20  3 12 29.0800000  0  4G12G13G 9G 7
  20841846.428    20841850.553     6102945.051 9 -20514749.913 8
  21366730.830    21366733.881    34858678.963 9 -42436129.131 8
  22890359.462    22890361.720    74504616.748 9 -99780090.142 9
                  24403721.629                     9351998.144 9
 86  6 20  3 12 35.0800000  0  4G12G13G 9G 7
  20842150.355    20842154.480     6104546.765 8 -20513501.821 9
  21368363.784    21368365.446    34867256.307 8 -42429445.479 9
  22894793.390    22894794.374    74527910.071 9 -99761939.514 9
  24400554.936    24400584.155   -13015306.860 9   9339152.991 8
 86  6 20  3 12 41.0800000  0  4G12G13G 9G 7
  20842461.624    20842464.479     6106174.767 8 -20512233.247 8
  21369996.308    21369998.187    34875838.625 9 -42422757.967 8
  22899228.300    22899227.949    74551212.795 9 -99743781.536 8
  24397452.507    24397451.606   -13031763.261 9   9326329.811 8
 86  6 20  3 12 47.0800000  0  4G12G13G 9G 7
  20842775.171    20842779.391     6107829.080 8 -20510944.187 8
  21371630.784    21371632.789    34884425.981 9 -42416066.526 9
  22903663.716    22903664.626    74574525.076 9 -99725616.140 9
  24394324.283    24394326.181   -13048192.062 9   9313527.758 8
 86  6 20  3 12 53.0800000  0  4G12G13G 9G 7
  20843096.096    20843099.087     6109509.714 9 -20509634.598 9
  21373267.401    21373267.042    34893018.306 9 -42409371.203 9
  22908101.773    22908102.934    74597846.888 9 -99707443.309 9
  24391203.256    24391204.182   -13064598.388 8   9300743.615 8
 86  6 20  3 12 59.0800000  0  4G12G13G 9G 7
  20843420.374    20843422.933     6111216.608 9 -20508304.551 8
  21374902.460    21374901.916    34901615.673 9 -42402671.961 8
  22912540.595    22912542.415    74621178.062 8 -99689263.177 9
  24388084.826    24388085.438   -13080986.246 9   9287973.861 8
 86  6 20  3 13  5.0800000  0  4G12G13G 9G 7
  20843750.829    20843752.619     6112949.779 9 -20506954.024 8
  21376539.879    21376539.299    34910218.020 9 -42395968.825 8
  22916982.078    22916984.713    74644518.640 9 -99671075.713 9
  24384969.371    24384968.256   -13097359.208 9   9275215.702 9
 86  6 20  3 13 11.0800000  0  4G12G13G 9G 7
  20844085.927    20844087.222     6114709.261 9 -20505583.002 8
  21378177.279    21378177.868    34918825.357 9 -42389261.805 9
  22921426.571    22921427.682    74667868.535 9 -99652880.991 8
  24381855.363    24381856.445   -13113719.583 9   9262467.356 8
 86  6 20  3 13 17.0800000  0  4G12G13G 9G 7
  20844427.157    20844427.161     6116495.025 8 -20504191.494 9
  21379816.026    21379817.472    34927437.687 9 -42382550.900 9
  22925871.537    22925872.966    74691227.744 9 -99634679.014 8
  24378743.547    24378745.177   -13130069.147 9   9249727.428 8
 86  6 20  3 13 23.0800000  0  4G12G13G 9G 7
  20844771.080    20844772.220     6118307.052 9 -20502779.519 8
  21381455.824    21381457.051    34936054.979 9 -42375836.138 9
  22930318.524    22930319.541    74714596.218 9 -99616469.819 9
  24375634.708    24375636.763   -13146406.980 9   9236996.655 9
 86  6 20  3 13 29.0800000  0  4G12G13G 9G 7
  20845122.168    20845121.923     6120145.449 9 -20501347.011 8
  21383095.636    21383097.983    34944677.311 9 -42369117.432 9
  22934766.457    22934767.051    74737974.073 9 -99598253.326 8
                  24372531.316                     9224278.940 8
 86  6 20  3 13 35.0800000  0  4G12G13G 9G 7
  20845475.896    20845477.314     6122010.081 9 -20499894.048 9
  21384736.900    21384739.668    34953304.449 9 -42362394.980 9
  22939218.235    22939217.061    74761361.242 8 -99580029.544 8
  24369326.746    24369429.329   -13198851.627 8   9211579.746 8
 86  6 20  3 13 41.0800000  0  4G12G13G 9G 7
  20845836.231    20845837.158     6123901.030 9 -20498420.585 8
  21386379.823    21386383.019    34961936.492 9 -42355668.718 9
  22943670.487    22943671.951    74784757.635 8 -99561798.595 8
  24366331.557    24366333.679   -13215120.479 8   9198902.909 9
 86  6 20  3 13 47.0800000  0  4G12G13G 9G 7
  20846200.341    20846201.993     6125818.304 9 -20496926.596 8
  21388023.355    21388025.165    34970573.462 9 -42348938.602 8
  22948123.794    22948124.962    74808163.117 8 -99543560.579 9
  24363240.932    24363243.838   -13231362.510 8   9186247.189 9
 86  6 20  3 13 53.0800000  0  4G12G13G 9G 7
  20846570.034    20846572.483     6127761.865 9 -20495412.140 9
  21389668.489    21389670.155    34979215.268 9 -42342204.728 8
  22952578.835    22952580.270    74831577.763 9 -99525315.392 9
  24360156.115    24360157.763   -13247581.366 8   9173609.151 9
 86  6 20  3 13 59.0800000  0  4G12G13G 9G 7
  20846944.970    20846946.359     6129731.655 9 -20493877.241 8
  21391314.425    21391315.799    34987861.891 9 -42335467.098 8
  22957036.524    22957037.506    74855001.636 9 -99507063.030 9
  24357073.094    24357073.599   -13263782.008 8   9160985.291 9
 86  6 20  3 14  5.0800000  0  4G12G13G 9G 7
  20847325.700    20847326.752     6131727.812 9 -20492321.799 9
  21392959.878    21392961.241    34996513.372 9 -42328725.688 8
  22961495.522    22961497.253    74878434.626 9 -99488803.572 8
  24353993.917    24353993.384   -13279967.700 9   9148373.072 9
 86  6 20  3 14 11.0800000  0  4G12G13G 9G 7
  20847709.806    20847710.815     6133750.260 9 -20490745.868 8
  21394607.805    21394608.495    35005169.736 9 -42321980.460 9
  22965956.842    22965957.966    74901876.765 9 -99470536.962 9
  24350916.230    24350916.373   -13296140.769 9   9135770.694 9
 86  6 20  3 14 17.0800000  0  4G12G13G 9G 7
  20848099.363    20848101.227     6135798.937 9 -20489149.497 9
  21396256.120    21396256.578    35013831.013 9 -42315231.404 9
  22970419.682    22970420.008    74925327.942 9 -99452263.318 9
  24347841.099    24347840.001   -13312302.697 9   9123176.982 9
 86  6 20  3 14 23.0800000  0  4G12G13G 9G 7
  20848494.059    20848495.988     6137873.947 9 -20487532.614 9
  21397905.913    21397905.842    35022497.247 9 -42308478.497 9
  22974884.870    22974884.345    74948788.208 9 -99433982.599 8
  24344767.269    24344767.818   -13328452.158 9   9110592.986 9
 86  6 20  3 14 29.0800000  0  4G12G13G 9G 7
  20848893.257    20848895.906     6139975.209 9 -20485895.275 9
  21399556.055    21399556.124    35031168.248 9 -42301721.864 9
  22979350.270    22979350.082    74972257.383 9 -99415694.936 8
                  24341697.618                     9098022.673 9
 86  6 20  3 14 35.0800000  0  4G12G13G 9G 7
  20849297.776    20849301.314     6142102.725 9 -20484237.469 8
  21401207.074    21401207.831    35039844.045 9 -42294961.504 8
  22983818.270    22983816.997    74995735.624 9 -99397400.212 8
  24338634.788    24338633.010   -13380839.664 9   9085471.722 9
 86  6 20  3 14 41.0800000  0  4G12G13G 9G 7
  20849708.457    20849710.959     6144256.474 8 -20482559.227 8
  21402857.478    21402859.719    35048524.547 9 -42288197.472 8
  22988287.112    22988286.723    75019222.766 8 -99379098.535 8
  24335573.054    24335573.621   -13396918.042 9   9072943.083 8
 86  6 20  3 14 47.0800000  0  4G12G13G 9G 7
  20850122.559    20850124.698     6146436.501 9 -20480860.498 9
  21404511.162    21404511.319    35057209.770 9 -42281429.760 8
  22992758.351    22992757.487    75042718.931 9 -99360789.831 8
  24332517.731    24332518.684   -13412968.784 9   9060435.631 9
 86  6 20  3 14 53.0800000  0  4G12G13G 9G 7
  20850542.601    20850545.730     6148642.860 9 -20479141.254 8
  21406164.252    21406165.670    35065899.813 9 -42274658.302 9
  22997231.510    22997230.409    75066223.948 9 -99342474.237 8
  24329467.425    24329467.738   -13428997.454 9   9047945.753 9
 86  6 20  3 14 59.0800000  0  4G12G13G 9G 7
  20850969.053    20850969.108     6150875.506 8 -20477401.529 8
  21407819.253    21407819.396    35074594.650 9 -42267883.098 8
  23001706.976    23001705.768    75089737.777 9 -99324151.785 8
  24326419.844    24326422.243   -13445008.207 9   9035469.841 9
 86  6 20  3 15  5.0800000  0  4G12G13G 9G 7
  20851398.414    20851399.795     6153134.389 9 -20475641.365 8
  21409474.941    21409474.694    35083294.250 9 -42261104.184 9
  23006182.655    23006183.188    75113260.467 9 -99305822.425 8
  24323375.324    24323377.029   -13461004.036 9   9023005.560 9
 86  6 20  3 15 11.0800000  0  4G12G13G 9G 7
  20851833.154    20851835.648     6155419.502 8 -20473860.753 9
  21411131.093    21411132.218    35091998.681 9 -42254321.515 9
  23010660.622    23010659.913    75136792.037 9 -99287486.140 8
  24320333.690    24320336.706   -13476987.128 9   9010551.208 8
 86  6 20  3 15 17.0800000  0  4G12G13G 9G 7
  20852273.467    20852273.972     6157730.815 9 -20472059.730 9
  21412788.457    21412789.296    35100707.800 9 -42247535.182 8
  23015139.358    23015140.065    75160332.426 9 -99269142.984 8
  24317294.818    24317296.823   -13492958.865 9   8998105.713 8
 86  6 20  3 15 23.0800000  0  4G12G13G 9G 7
  20852717.743    20852720.822     6160068.351 8 -20470238.276 8
  21414446.700    21414448.551    35109421.578 9 -42240745.237 9
  23019620.878    23019621.491    75183881.606 9 -99250792.983 8
  24314257.459    24314260.412   -13508917.905 8   8985670.106 9
 86  6 20  3 15 29.0800000  0  4G12G13G 9G 7
  20853167.466    20853169.585     6162432.190 8 -20468396.312 8
  21416105.878    21416107.036    35118140.118 9 -42233951.558 9
  23024102.861    23024103.881    75207439.604 9 -99232436.107 9
                  24311226.396                     8973248.978 8
 86  6 20  3 15 35.0800000  0  4G12G13G 9G 7
  20853622.582    20853624.244     6164822.314 9 -20466533.880 9
  21417765.801    21417767.152    35126863.360 9 -42227154.228 9
  23028588.261    23028590.054    75231006.258 9 -99214072.498 8
  24308196.861    24308198.113   -13560979.221 9   8960847.820 9
 86  6 20  3 15 41.0800000  0  4G12G13G 9G 7
  20854080.995    20854083.858     6167238.775 9 -20464650.935 9
  21419427.282    21419427.598    35135591.337 9 -42220353.208 8
  23033074.765    23033076.088    75254581.602 9 -99195702.099 8
  24305173.435    24305175.133   -13576864.904 9   8948469.345 9
 86  6 20  3 15 47.0800000  0  4G12G13G 9G 7
  20854545.273    20854549.854     6169681.414 8 -20462747.574 8
  21421088.293    21421090.209    35144324.023 9 -42213548.511 8
  23037562.945    23037563.540    75278165.731 9 -99177324.863 9
  24302156.002    24302157.955   -13592723.910 9   8936111.693 9
 86  6 20  3 15 53.0800000  0  4G12G13G 9G 7
  20855015.957    20855018.763     6172150.393 9 -20460823.703 8
  21422750.804    21422751.710    35153061.350 9 -42206740.206 9
  23042052.320    23042053.436    75301758.436 9 -99158940.939 8
  24299142.130    24299142.664   -13608560.570 9   8923771.432 9
 86  6 20  3 15 59.0800000  0  4G12G13G 9G 7
  20855489.496    20855493.919     6174645.582 8 -20458879.402 9
  21424414.012    21424415.239    35161803.207 9 -42199928.365 8
  23046543.623    23046544.398    75325359.813 9 -99140550.266 9
  24296131.632    24296133.040   -13624379.234 9   8911445.207 9
 86  6 20  3 16  5.0800000  0  4G12G13G 9G 7
  20855970.396    20855973.559     6177167.005 8 -20456914.658 8
  21426078.166    21426080.251    35170549.722 9 -42193112.899 8
  23051036.183    23051038.026    75348969.647 9 -99122153.002 8
  24293124.746    24293125.468   -13640182.938 9   8899130.634 9
 86  6 20  3 16 11.0800000  0  4G12G13G 9G 7
  20856456.009    20856458.363     6179714.668 8 -20454929.469 8
  21427743.744    21427744.530    35179300.814 9 -42186293.861 9
  23055530.161    23055532.568    75372588.078 9 -99103749.038 8
  24290119.654    24290121.052   -13655973.683 9   8886826.165 8
 86  6 20  3 16 17.0800000  0  4G12G13G 9G 7
  20856945.432    20856947.961     6182288.557 8 -20452923.840 9
  21429409.507    21429410.739    35188056.564 9 -42179471.198 8
  23060026.076    23060027.658    75396215.136 9 -99085338.341 9
  24287117.661    24287118.525   -13671752.878 9   8874530.686 9
 86  6 20  3 16 23.0800000  0  4G12G13G 9G 7
  20857441.472    20857442.949     6184888.633 9 -20450897.810 9
  21431078.165    21431079.550    35196816.863 9 -42172644.992 8
  23064523.594    23064526.687    75419850.602 9 -99066921.108 8
  24284117.734    24284118.201   -13687518.863 8   8862245.509 9
 86  6 20  3 16 29.0800000  0  4G12G13G 9G 7
  20857940.680    20857943.428     6187515.064 9 -20448851.252 8
  21432745.461    21432746.373    35205581.843 9 -42165815.137 9
  23069023.646    23069025.850    75443494.555 9 -99048497.260 9
                  24281122.296                     8849975.545 8
 86  6 20  3 16 35.0800000  0  4G12G13G 9G 7
  20858446.909    20858447.342     6190167.731 9 -20446784.229 8
  21434414.443    21434415.985    35214351.413 9 -42158981.708 9
  23073524.378    23073525.856    75467147.080 9 -99030066.716 9
  24278130.406    24278128.657   -13739519.019 9   8837726.055 9
 86  6 20  3 16 41.0800000  0  4G12G13G 9G 7
  20858954.774    20858956.004     6192846.657 9 -20444696.749 8
  21436083.720    21436085.751    35223125.581 9 -42152144.692 9
  23078026.782    23078029.086    75490807.942 8 -99011629.688 8
  24275144.501    24275144.330   -13755209.728 9   8825499.526 8
 86  6 20  3 16 47.0800000  0  4G12G13G 9G 7
  20859469.743    20859471.231     6195551.858 8 -20442588.806 8
  21437754.027    21437756.071    35231904.364 9 -42145304.079 9
  23082530.436    23082534.190    75514477.242 9 -98993186.081 9
  24272163.065    24272164.383   -13770874.173 9   8813293.862 9
 86  6 20  3 16 53.0800000  0  4G12G13G 9G 7
  20859989.659    20859991.797     6198283.260 8 -20440460.431 8
  21439425.295    21439426.630    35240687.728 9 -42138459.895 9
  23087036.155    23087039.641    75538154.937 9 -98974735.942 9
  24269186.334    24269187.954   -13786515.876 9   8801105.539 9
 86  6 20  3 16 59.0800000  0  4G12G13G 9G 7
  20860514.682    20860515.512     6201040.886 8 -20438311.648 8
  21441096.792    21441098.813    35249475.547 9 -42131612.236 7
  23091542.259    23091546.503    75561840.940 8 -98956279.314 8
  24266213.847    24266214.925   -13802139.595 9   8788931.209 9
 86  6 20  3 17  5.0800000  0  4G12G13G 9G 7
  20861045.238    20861046.468     6203824.685 9 -20436142.438 7
  21442769.983    21442771.411    35258267.866 9 -42124761.072 9
  23096052.042    23096054.786    75585535.233 8 -98937816.240 9
  24263242.690    24263244.890   -13817748.466 9   8776768.446 8
 86  6 20  3 17 11.0800000  0  4G12G13G 9G 7
  20861578.796    20861579.373     6206634.761 8 -20433952.781 8
  21444443.174    21444445.350    35267064.657 9 -42117906.433 8
  23100562.696    23100565.231    75609237.913 8 -98919346.620 8
  24260275.012    24260277.059   -13833344.745 9   8764615.505 8
 86  6 20  3 17 17.0800000  0  4G12G13G 9G 7
  20862119.674    20862121.009     6209471.019 9 -20431742.707 7
  21446118.334    21446120.650    35275866.008 9 -42111048.226 8
  23105073.370    23105077.251    75632948.833 8 -98900870.592 9
  24257309.232    24257311.811   -13848929.023 9   8752471.918 9
 86  6 20  3 17 23.0800000  0  4G12G13G 9G 7
  20862663.721    20862664.582     6212333.595 9 -20429512.134 8
  21447794.592    21447796.175    35284671.857 9 -42104186.526 9
  23109588.133    23109590.887    75656668.041 9 -98882388.103 8
  24254346.756    24254348.358   -13864499.196 9   8740339.308 8
 86  6 20  3 17 29.0800000  0  4G12G13G 9G 7
  20863213.770    20863214.257     6215222.386 9 -20427261.129 9
  21449471.045    21449473.056    35293482.159 9 -42097321.361 9
  23114101.980    23114106.375    75680395.418 9 -98863899.240 7
                  24251389.470                     8728222.664 8
 86  6 20  3 17 35.0800000  0  4G12G13G 9G 7
  20863767.228    20863770.285     6218137.353 9 -20424989.737 9
  21451148.398    21451149.985    35302296.921 9 -42090452.709 9
  23118620.127    23118623.009    75704131.012 9 -98845403.970 9
  24248433.845    24248437.308   -13916300.915 9   8716127.183 9
 86  6 20  3 17 41.0800000  0  4G12G13G 9G 7
  20864327.628    20864330.032     6221078.452 9 -20422697.967 8
  21452827.370    21452829.119    35311116.127 9 -42083580.598 8
  23123137.098    23123141.772    75727874.679 9 -98826902.429 8
  24245485.049    24245488.077   -13931793.934 9   8704054.707 8
 86  6 20  3 17 47.0800000  0  4G12G13G 9G 7
  20864891.225    20864895.251     6224045.832 9 -20420385.724 8
  21454505.740    21454508.276    35319939.874 9 -42076704.951 8
  23127657.209    23127662.765    75751626.594 9 -98808394.433 8
  24242542.077    24242545.421   -13947259.664 9   8692003.094 9
 86  6 20  3 17 53.0800000  0  4G12G13G 9G 7
  20865461.379    20865464.012     6227039.407 9 -20418053.064 8
  21456186.773    21456188.134    35328768.006 8 -42069825.884 8
  23132178.578    23132181.821    75775386.585 8 -98789880.172 8
  24239603.498    24239605.817   -13962703.954 9   8679968.579 9
 86  6 20  3 17 59.0800000  0  4G12G13G 9G 7
  20866036.536    20866038.987     6230059.149 9 -20415700.021 8
  21457867.085    21457869.100    35337600.495 9 -42062943.421 8
  23136701.231    23136705.322    75799154.678 9 -98771359.570 9
  24236668.125    24236670.142   -13978130.516 9   8667947.898 9
 86  6 20  3 18  5.0800000  0  4G12G13G 9G 7
  20866615.658    20866619.310     6233105.076 9 -20413326.582 8
  21459548.839    21459550.846    35346437.390 9 -42056057.536 8
  23141227.339    23141229.030    75822930.752 8 -98752832.763 8
  24233734.930    24233737.435   -13993541.963 9   8655938.982 9
 86  6 20  3 18 11.0800000  0  4G12G13G 9G 7
  20867200.877    20867202.581     6236177.249 9 -20410932.686 8
  21461231.532    21461232.782    35355278.684 9 -42049168.211 9
  23145753.607    23145754.602    75846714.902 8 -98734299.657 8
  24230804.474    24230807.103   -14008940.529 9   8643940.100 9
 86  6 20  3 18 17.0800000  0  4G12G13G 9G 7
  20867790.658    20867792.006     6239275.548 9 -20408518.422 8
  21462914.383    21462916.196    35364124.418 9 -42042275.430 9
  23150280.560    23150282.908    75870506.984 9 -98715760.382 9
  24227877.115    24227879.461   -14024326.895 9   8631950.737 8
 86  6 20  3 18 23.0800000  0  4G12G13G 9G 7
  20868384.722    20868386.726     6242399.948 8 -20406083.813 8
  21464598.930    21464599.759    35372974.529 9 -42035379.234 9
  23154809.257    23154812.063    75894307.074 9 -98697214.852 9
  24224952.334    24224954.090   -14039698.573 9   8619972.813 9
 86  6 20  3 18 29.0800000  0  4G12G13G 9G 7
  20868983.818    20868987.489     6245550.564 9 -20403628.797 8
  21466284.462    21466285.110    35381829.069 9 -42028479.600 8
  23159340.225    23159342.741    75918115.074 9 -98678663.166 9
                  24222031.856                     8608011.543 9
 86  6 20  3 18 35.0800000  0  4G12G13G 9G 7
  20869589.137    20869591.367     6248727.396 9 -20401153.342 8
  21467969.157    21467971.436    35390687.914 9 -42021576.597 8
  23163871.333    23163874.354    75941931.027 9 -98660105.278 8
  24219114.643    24219116.916   -14091300.836 9   8596071.964 9
 86  6 20  3 18 41.0800000  0  4G12G13G 9G 7
  20870198.605    20870200.563     6251930.397 9 -20398657.500 9
  21469656.143    21469657.111    35399551.044 9 -42014670.267 8
  23168404.616    23168408.330    75965754.858 9 -98641541.256 7
  24216205.507    24216205.692   -14106593.591 9   8584155.531 9
 86  6 20  3 18 47.0800000  0  4G12G13G 9G 7
  20870811.624    20870815.167     6255159.550 9 -20396141.277 8
  21471344.204    21471345.502    35408418.541 9 -42007760.528 9
  23172940.994    23172942.814    75989586.603 8 -98622971.062 8
  24213299.447    24213301.554   -14121860.360 9   8572259.736 9
 86  6 20  3 18 53.0800000  0  4G12G13G 9G 7
  20871431.151    20871433.958     6258414.789 8 -20393604.727 8
  21473032.035    21473032.657    35417290.435 9 -42000847.352 9
  23177477.670    23177480.209    76013426.125 9 -98604394.813 8
  24210399.131    24210399.890   -14137104.855 9   8560380.905 9
 86  6 20  3 18 59.0800000  0  4G12G13G 9G 7
  20872054.921    20872058.870     6261696.264 9 -20391047.734 9
  21474720.715    21474721.813    35426166.679 9 -41993930.804 9
  23182014.787    23182018.108    76037273.457 9 -98585812.481 8
  24207501.986    24207503.546   -14152331.653 9   8548515.867 9
 86  6 20  3 19  5.0800000  0  4G12G13G 9G 7
  20872685.359    20872688.679     6265003.851 8 -20388470.399 8
  21476411.157    21476412.015    35435047.272 9 -41987010.852 9
  23186554.873    23186557.467    76061128.621 8 -98567224.054 8
  24204606.580    24204608.645   -14167543.259 9   8536662.664 9
 86  6 20  3 19 11.0800000  0  4G12G13G 9G 7
  20873320.188    20873321.546     6268337.636 8 -20385872.648 9
  21478101.383    21478102.216    35443932.153 9 -41980087.564 8
  23191095.572    23191098.337    76084991.482 8 -98548629.610 8
  24201714.142    24201716.308   -14182741.943 9   8524819.542 9
 86  6 20  3 19 17.0800000  0  4G12G13G 9G 7
  20873959.591    20873961.339     6271697.618 9 -20383254.476 8
  21479792.522    21479794.100    35452821.238 9 -41973160.996 8
  23195638.369    23195640.166    76108862.200 9 -98530029.048 9
  24198824.588    24198826.030   -14197927.989 9   8512986.266 9
 86  6 20  3 19 23.0800000  0  4G12G13G 9G 7
  20874604.680    20874606.913     6275083.686 8 -20380615.987 9
  21481485.998    21481486.122    35461714.547 9 -41966231.160 8
  23200182.241    23200183.316    76132740.536 9 -98511422.564 8
  24195937.640    24195938.715   -14213098.834 9   8501164.834 9
 86  6 20  3 19 29.0800000  0  4G12G13G 9G 7
  20875252.787    20875256.012     6278495.908 8 -20377957.121 8
  21483179.131    21483179.561    35470612.139 9 -41959297.969 8
  23204726.669    23204729.690    76156626.568 9 -98492810.074 9
                  24193056.836                     8489360.704 8
 86  6 20  3 19 35.0800000  0  4G12G13G 9G 7
  20875906.998    20875910.800     6281934.284 9 -20375277.864 8
  21484873.030    21484873.509    35479513.969 9 -41952361.479 7
  23209274.538    23209276.076    76180520.255 9 -98474191.623 9
  24190178.395    24190179.588   -14264500.476 9   8477578.887 9
 86  6 20  3 19 41.0800000  0  4G12G13G 9G 7
  20876567.130    20876569.710     6285398.764 8 -20372578.275 8
  21486568.120    21486567.875    35488420.095 9 -41945421.644 8
  23213822.724    23213823.182    76204421.604 9 -98455567.199 8
  24187306.187    24187308.208   -14279590.814 9   8465820.190 8
 86  6 20  3 19 47.0800000  0  4G12G13G 9G 7
  20877230.977    20877232.596     6288889.454 9 -20369858.259 8
  21488262.741    21488262.750    35497330.483 9 -41938478.476 9
  23218372.670    23218372.795    76228330.597 9 -98436936.811 8
  24184438.396    24184440.837   -14294654.735 9   8454082.084 9
 86  6 20  3 19 53.0800000  0  4G12G13G 9G 7
  20877900.295    20877903.015     6292406.255 9 -20367117.892 9
  21489960.178    21489959.557    35506245.043 9 -41931532.069 9
  23222923.140    23222925.567    76252247.115 9 -98418300.572 8
  24181576.934    24181578.092   -14309697.035 9   8442360.814 9
 86  6 20  3 19 59.0800000  0  4G12G13G 9G 7
  20878575.504    20878577.352     6295949.220 9 -20364357.148 9
  21491657.545    21491657.236    35515163.854 9 -41924582.343 9
  23227475.467    23227478.254    76276171.152 9 -98399658.484 8
  24178717.732    24178719.556   -14324721.627 9   8430653.333 9
 86  6 20  3 20  5.0800000  0  4G12G13G 9G 7
  20879254.187    20879256.752     6299518.262 9 -20361576.071 8
  21493355.417    21493355.322    35524086.810 9 -41917629.381 9
  23232030.218    23232031.159    76300102.663 9 -98381010.553 9
  24175861.942    24175862.371   -14339731.077 9   8418957.663 9
 86  6 20  3 20 11.0800000  0  4G12G13G 9G 7
  20879937.729    20879940.330     6303113.422 9 -20358774.648 8
  21495054.949    21495054.668    35533013.921 9 -41910673.195 9
  23236585.570    23236587.164    76324041.689 9 -98362356.772 7
  24173009.137    24173008.289   -14354727.470 9   8407272.157 9
 86  6 20  3 20 17.0800000  0  4G12G13G 9G 7
  20880627.875    20880630.235     6306734.779 8 -20355952.817 8
  21496753.679    21496754.727    35541945.168 9 -41903713.782 9
  23241142.262    23241144.591    76347988.297 9 -98343697.094 8
  24170157.438    24170157.973   -14369710.958 9   8395596.714 8
 86  6 20  3 20 23.0800000  0  4G12G13G 9G 7
  20881320.342    20881323.257     6310382.147 7 -20353110.706 8
  21498452.619    21498454.240    35550880.596 9 -41896751.112 9
  23245701.604    23245701.944    76371942.236 8 -98325031.692 8
  24167309.046    24167309.910   -14384678.317 9   8383933.831 8
 86  6 20  3 20 29.0800000  0  4G12G13G 9G 7
  20882019.697    20882022.118     6314055.685 8 -20350248.223 8
  21500154.613    21500156.113    35559820.209 9 -41889785.179 9
  23250261.126    23250262.672    76395903.649 9 -98306360.473 9
                  24164466.607                     8372289.044 8
 86  6 20  3 20 35.0800000  0  4G12G13G 9G 7
  20882723.111    20882726.970     6317755.321 8 -20347365.396 8
  21501855.998    21501858.431    35568763.962 9 -41882816.026 8
  23254821.073    23254822.897    76419872.334 9 -98287683.574 8
  24161627.290    24161627.180   -14435876.961 9   8360666.959 9
 86  6 20  3 20 41.0800000  0  4G12G13G 9G 7
  20883432.810    20883435.698     6321480.958 9 -20344462.298 9
  21503558.690    21503558.993    35577711.885 9 -41875843.623 9
  23259383.849    23259385.080    76443848.412 9 -98269000.936 8
  24158794.261    24158795.382   -14450762.133 9   8349068.115 8
 86  6 20  3 20 47.0800000  0  4G12G13G 9G 7
  20884147.264    20884148.244     6325232.710 8 -20341538.858 7
  21505262.502    21505263.145    35586663.922 9 -41868868.001 9
  23263948.661    23263949.863    76467831.882 9 -98250312.513 8
  24155966.219    24155966.779   -14465620.711 9   8337489.608 9
 86  6 20  3 20 53.0800000  0  4G12G13G 9G 7
  20884865.494    20884866.793     6329010.560 9 -20338595.073 9
  21506966.314    21506967.245    35595620.114 9 -41861889.151 9
  23268513.796    23268514.136    76491822.698 9 -98231618.375 8
  24153141.395    24153144.871   -14480458.170 9   8325927.959 9
 86  6 20  3 20 59.0800000  0  4G12G13G 9G 7
  20885589.993    20885590.926     6332814.571 9 -20335630.915 8
  21508670.928    21508673.231    35604580.413 9 -41854907.104 8
  23273080.440    23273081.475    76515820.706 9 -98212918.630 8
  24150322.379    24150324.329   -14495277.992 9   8314380.058 9
 86  6 20  3 21  5.0800000  0  4G12G13G 9G 7
  20886318.888    20886319.895     6336644.657 9 -20332646.428 8
  21510376.664    21510378.486    35613544.800 9 -41847921.857 9
  23277647.820    23277649.280    76539825.940 9 -98194213.266 8
  24147505.977    24147507.126   -14510082.602 9   8302843.999 9
 86  6 20  3 21 11.0800000  0  4G12G13G 9G 7
  20887052.269    20887053.928     6340500.799 9 -20329641.640 9
  21512083.270    21512086.821    35622513.310 9 -41840933.409 8
  23282218.078    23282218.387    76563838.383 9 -98175502.269 9
  24144691.025    24144692.460   -14524874.000 9   8291318.239 8
 86  6 20  3 21 17.0800000  0  4G12G13G 9G 7
  20887790.949    20887791.190     6344383.004 9 -20326616.537 8
  21513791.181    21513792.573    35631485.863 9 -41833941.812 9
  23286788.990    23286789.703    76587858.074 8 -98156785.634 8
  24141878.829    24141879.673   -14539652.409 9   8279802.595 9
 86  6 20  3 21 23.0800000  0  4G12G13G 9G 7
  20888535.300    20888536.846     6348291.255 8 -20323571.158 9
  21515498.967    21515501.289    35640462.509 9 -41826947.017 9
  23291360.899    23291361.706    76611884.943 9 -98138063.399 8
                  24139071.575                     8268300.066 8
 86  6 20  3 21 29.0800000  0  4G12G13G 9G 7
  20889284.091    20889284.852     6352225.567 9 -20320505.467 9
  21517207.965    21517209.535    35649443.201 9 -41819949.077 8
  23295934.510    23295935.115    76635918.945 9 -98119335.614 8
  24136267.354    24136267.354   -14590553.049 9   8256816.154 8
 86  6 20  3 21 35.0800000  0  4G12G13G 9G 7
  20890036.697    20890039.659     6356185.932 9 -20317419.467 8
  21518918.275    21518919.000    35658427.895 9 -41812948.020 9
  23300510.532    23300509.646    76659960.058 9 -98100602.273 8
  24133465.620    24133469.382   -14605261.039 9   8245355.492 8
 86  6 20  3 21 41.0800000  0  4G12G13G 9G 7
  20890796.231    20890798.764     6360172.369 9 -20314313.146 8
  21520628.468    21520629.932    35667416.561 9 -41805943.859 9
  23305086.223    23305086.603    76684008.276 9 -98081863.400 8
  24130673.285    24130674.483   -14619939.147 9   8233918.004 8
 86  6 20  3 21 47.0800000  0  4G12G13G 9G 7
  20891559.124    20891562.844     6364184.781 8 -20311186.602 8
  21522339.378    21522340.052    35676409.234 8 -41798936.574 9
  23309663.243    23309663.955    76708063.503 8 -98063119.075 9
  24127884.552    24127885.735   -14634591.707 8   8222500.817 8
 86  6 20  3 21 53.0800000  0  4G12G13G 9G 7
  20892327.700    20892331.078     6368223.266 9 -20308039.737 8
  21524050.769    21524052.969    35685405.969 9 -41791926.134 9
  23314242.868    23314242.680    76732125.747 9 -98044369.280 9
  24125101.643    24125101.718   -14649222.489 9   8211100.226 9
 86  6 20  3 21 59.0800000  0  4G12G13G 9G 7
  20893100.640    20893104.150     6372287.793 8 -20304872.568 9
  21525764.896    21525765.574    35694406.708 9 -41784912.577 8
  23318822.896    23318823.907    76756195.115 9 -98025613.925 7
  24122321.510    24122319.623   -14663835.675 9   8199713.342 8
 86  6 20  3 22  5.0800000  0  4G12G13G 9G 7
  20893879.896    20893881.914     6376378.310 9 -20301685.144 8
  21527478.455    21527479.615    35703411.350 9 -41777895.970 9
  23323404.519    23323405.628    76780271.424 9 -98006853.168 8
  24119542.832    24119541.701   -14678433.872 9   8188338.118 8
 86  6 20  3 22 11.0800000  0  4G12G13G 9G 7
  20894662.837    20894665.911     6380494.846 9 -20298477.464 7
  21529192.749    21529194.358    35712420.051 9 -41770876.204 9
  23327986.847    23327987.190    76804354.677 8 -97988086.997 9
  24116766.662    24116765.937   -14693018.644 9   8176973.363 8
 86  6 20  3 22 17.0800000  0  4G12G13G 9G 7
  20895451.509    20895453.834     6384637.416 9 -20295249.486 8
  21530908.317    21530910.465    35721432.747 9 -41763853.321 8
  23332570.722    23332571.888    76828444.908 9 -97969315.393 7
  24113993.655    24113994.160   -14707589.557 9   8165619.411 8
 86  6 20  3 22 23.0800000  0  4G12G13G 9G 7
  20896245.247    20896246.966     6388806.029 9 -20292001.204 9
  21532623.842    21532625.400    35730449.378 9 -41756827.374 9
  23337156.377    23337157.894    76852542.067 9 -97950538.392 7
  24111225.212    24111225.237   -14722142.779 9   8154279.232 9
 86  6 20  3 22 29.0800000  0  4G12G13G 9G 7
  20897042.645    20897044.618     6393000.611 9 -20288732.709 8
  21534340.218    21534342.137    35739469.954 9 -41749798.359 8
  23341743.422    23341744.502    76876646.027 8 -97931756.091 8
                  24108459.851                     8142958.522 8
 86  6 20  3 22 35.0800000  0  4G12G13G 9G 7
  20897846.738    20897848.228     6397221.176 8 -20285443.950 8
  21536058.272    21536059.825    35748494.417 9 -41742766.308 8
  23346330.924    23346332.472    76900756.820 9 -97912968.466 8
  24105700.931    24105700.738   -14772999.129 9   8131661.312 8
 86  6 20  3 22 41.0800000  0  4G12G13G 9G 7
  20898654.648    20898655.658     6401467.752 9 -20282134.936 7
  21537776.863    21537777.313    35757522.858 9 -41735731.160 9
  23350920.609    23350923.210    76924874.547 8 -97894175.441 8
  24102947.278    24102948.259   -14787467.543 9   8120387.213 8
 86  6 20  3 22 47.0800000  0  4G12G13G 9G 7
  20899467.757    20899468.115     6405740.312 9 -20278805.660 8
  21539495.042    21539495.959    35766555.174 9 -41728692.993 8
  23355511.714    23355512.308    76948999.015 8 -97875377.158 8
  24100199.588    24100201.066   -14801910.064 9   8109133.312 8
 86  6 20  3 22 53.0800000  0  4G12G13G 9G 7
  20900284.994    20900287.003     6410038.832 8 -20275456.173 8
  21541214.204    21541215.073    35775591.340 9 -41721651.816 9
  23360102.544    23360104.964    76973130.224 8 -97856573.627 8
  24097454.877    24097456.486   -14816331.462 9   8097895.856 8
 86  6 20  3 22 59.0800000  0  4G12G13G 9G 7
  20901108.419    20901109.750     6414363.346 8 -20272086.417 8
  21542933.312    21542935.897    35784631.418 9 -41714607.603 9
  23364696.666    23364698.371    76997268.153 9 -97837764.861 8
  24094713.121    24094715.980   -14830735.311 9   8086672.069 9
 86  6 20  3 23  5.0800000  0  4G12G13G 9G 7
  20901937.278    20901937.967     6418713.882 9 -20268696.387 8
  21544655.704    21544656.798    35793675.416 9 -41707560.331 9
  23369290.677    23369293.545    77021412.855 9 -97818950.814 8
  24091974.590    24091978.245   -14845123.920 8   8075460.177 9
 86  6 20  3 23 11.0800000  0  4G12G13G 9G 7
  20902768.575    20902769.793     6423090.361 8 -20265286.161 8
  21546376.893    21546378.105    35802723.348 9 -41700509.991 8
  23373885.747    23373889.245    77045564.229 8 -97800131.575 8
  24089238.843    24089242.538   -14859498.982 9   8064258.832 9
 86  6 20  3 23 17.0800000  0  4G12G13G 9G 7
  20903606.964    20903608.367     6427492.850 9 -20261855.637 8
  21548100.006    21548100.940    35811775.122 9 -41693456.662 8
  23378484.709    23378486.003    77069722.230 8 -97781307.150 8
  24086506.694    24086509.086   -14873860.099 9   8053068.366 8
 86  6 20  3 23 23.0800000  0  4G12G13G 9G 7
  20904449.674    20904451.296     6431921.310 9 -20258404.897 9
  21549822.974    21549824.027    35820830.776 9 -41686400.303 8
  23383082.637    23383085.025    77093886.935 9 -97762477.514 9
                  24083780.528                     8041892.283 9
 86  6 20  3 23 29.0800000  0  4G12G13G 9G 7
  20905297.640    20905298.630     6436375.775 9 -20254933.893 9
  21551547.554    21551547.741    35829890.303 9 -41679340.924 9
  23387681.382    23387684.005    77118058.306 9 -97743642.697 9
  24081041.199    24081055.880   -14924415.701 9   8030736.080 8
 86  6 20  3 23 35.0800000  0  4G12G13G 9G 7
  20906150.455    20906151.978     6440856.093 9 -20251442.731 8
  21553271.961    21553274.501    35838953.633 9 -41672278.578 8
  23392282.760    23392285.954    77142236.171 9 -97724802.808 9
  24078335.417    24078336.695   -14938702.128 9   8019603.918 8
 86  6 20  3 23 41.0800000  0  4G12G13G 9G 7
  20907007.408    20907008.866     6445362.363 9 -20247931.351 9
  21554996.894    21554999.597    35848020.875 9 -41665213.212 8
  23396884.597    23396887.637    77166420.580 8 -97705957.811 9
  24075622.255    24075623.558   -14952958.541 9   8008495.029 8
 86  6 20  3 23 47.0800000  0  4G12G13G 9G 7
  20907869.918    20907871.827     6449894.533 8 -20244399.791 9
  21556723.361    21556724.390    35857091.900 9 -41658144.867 9
  23401486.449    23401491.374    77190611.586 8 -97687107.691 8
  24072914.540    24072914.865   -14967189.329 9   7997406.106 9
 86  6 20  3 23 53.0800000  0  4G12G13G 9G 7
  20908737.349    20908738.648     6454452.542 8 -20240848.098 9
  21558450.617    21558451.723    35866166.713 9 -41651073.590 9
  23406091.916    23406095.077    77214809.102 9 -97668252.471 7
  24070210.050    24070210.962   -14981399.064 9   7986333.583 9
 86  6 20  3 23 59.0800000  0  4G12G13G 9G 7
  20909609.794    20909611.625     6459036.527 8 -20237276.167 8
  21560179.592    21560179.009    35875245.360 9 -41643999.309 8
  23410698.286    23410701.273    77239013.044 9 -97649392.257 7
  24067510.324    24067510.703   -14995591.518 9   7975274.538 8
 86  6 20  3 24  5.0800000  0  4G12G13G 9G 7
  20910485.717    20910489.295     6463646.515 9 -20233683.972 8
  21561906.448    21561908.158    35884327.716 9 -41636922.148 9
  23415305.559    23415307.790    77263223.448 9 -97630527.015 8
  24064812.033    24064812.808   -15009768.740 9   7964227.349 8
 86  6 20  3 24 11.0800000  0  4G12G13G 9G 7
  20911368.725    20911370.399     6468282.467 8 -20230071.547 8
  21563635.708    21563636.393    35893413.840 9 -41629842.052 9
  23419914.183    23419916.103    77287440.298 8 -97611656.736 8
  24062116.910    24062117.672   -15023932.233 9   7953190.873 8
 86  6 20  3 24 17.0800000  0  4G12G13G 9G 7
  20912254.905    20912257.112     6472944.317 8 -20226438.936 9
  21565365.197    21565366.019    35902503.730 9 -41622759.019 8
  23424523.896    23424526.923    77311663.483 9 -97592781.538 8
  24059425.168    24059424.674   -15038081.166 9   7942165.725 9
 86  6 20  3 24 23.0800000  0  4G12G13G 9G 7
  20913147.890    20913150.008     6477632.016 8 -20222786.186 9
  21567095.562    21567096.520    35911597.342 9 -41615673.087 9
  23429133.804    23429138.152    77335893.095 9 -97573901.323 9
                  24056735.555                     7931155.539 8
 86  6 20  3 24 29.0800000  0  4G12G13G 9G 7
  20914044.333    20914047.487     6482345.602 8 -20219113.270 9
  21568825.401    21568827.558    35920694.741 9 -41608584.210 9
  23433745.819    23433749.420    77360129.050 8 -97555016.169 8
  24054056.439    24054050.412   -15088493.021 6   7920166.093 9
 86  6 20  3 24 35.0800000  0  4G12G13G 9G 7
  20914945.344    20914949.050     6487085.053 8 -20215420.184 9
  21570558.358    21570559.392    35929795.842 9 -41601492.442 9
  23438357.926    23438362.920    77384371.313 8 -97536126.091 9
  24051374.779    24051374.139   -15102564.991 9   7909200.932 9
 86  6 20  3 24 41.0800000  0  4G12G13G 9G 7
  20915852.860    20915857.110     6491850.393 8 -20211706.944 9
  21572291.573    21572292.656    35938900.685 9 -41594397.743 8
  23442972.661    23442977.215    77408619.906 8 -97517231.086 8
  24048702.699    24048702.746   -15116607.203 9   7898258.952 8
 86  6 20  3 24 47.0800000  0  4G12G13G 9G 7
  20916763.827    20916767.061     6496641.536 8 -20207973.591 8
  21574024.960    21574026.012    35948009.271 9 -41587300.151 9
  23447588.136    23447592.508    77432874.702 9 -97498331.254 8
  24046035.202    24046035.474   -15130623.966 9   7887336.798 9
 86  6 20  3 24 53.0800000  0  4G12G13G 9G 7
  20917680.713    20917684.599     6501458.534 8 -20204220.093 9
  21575758.891    21575759.453    35957121.625 9 -41580199.610 9
  23452205.377    23452208.300    77457135.885 9 -97479426.427 8
  24043371.156    24043372.162   -15144619.792 9   7876430.962 8
 86  6 20  3 24 59.0800000  0  4G12G13G 9G 7
  20918601.683    20918606.425     6506301.438 9 -20200446.395 8
  21577492.014    21577493.696    35966237.655 9 -41573096.211 9
  23456822.740    23456825.876    77481403.225 9 -97460516.799 8
  24040710.495    24040712.398   -15158598.025 9   7865538.835 9
 86  6 20  3 25  5.0800000  0  4G12G13G 9G 7
  20919528.647    20919533.179     6511170.200 9 -20196652.553 8
  21579227.765    21579229.976    35975357.366 9 -41565989.941 8
  23461443.865    23461446.175    77505676.668 8 -97441602.435 8
  24038053.893    24038054.084   -15172560.914 9   7854658.657 9
 86  6 20  3 25 11.0800000  0  4G12G13G 9G 7
  20920461.084    20920464.336     6516064.781 9 -20192838.592 8
  21580964.089    21580965.338    35984480.703 9 -41558880.849 9
  23466062.889    23466066.460    77529956.347 8 -97422683.213 9
  24035399.351    24035399.575   -15186510.083 9   7843789.195 9
 86  6 20  3 25 17.0800000  0  4G12G13G 9G 7
  20921398.116    20921400.328     6520985.220 8 -20189004.486 8
  21582701.488    21582702.578    35993607.769 9 -41551768.853 8
  23470684.267    23470686.991    77554242.117 8 -97403759.230 9
  24032747.199    24032747.358   -15200444.382 8   7832931.295 9
 86  6 20  3 25 23.0800000  0  4G12G13G 9G 7
  20922339.820    20922341.017     6525931.431 9 -20185150.289 9
  21584438.429    21584439.693    36002738.495 9 -41544653.993 9
  23475307.776    23475309.581    77578534.082 9 -97384830.435 8
                  24030100.967                     7822088.877 8
 86  6 20  3 25 29.0800000  0  4G12G13G 9G 7
  20923286.909    20923287.425     6530903.494 9 -20181275.950 8
  21586177.362    21586179.295    36011872.843 9 -41537536.319 9
  23479931.084    23479934.173    77602832.040 8 -97365896.976 8
  24027460.277    24027456.981   -15250495.327 9   7811267.814 9
 86  6 20  3 25 35.0800000  0  4G12G13G 9G 7
  20924237.480    20924238.017     6535901.414 9 -20177381.471 9
  21587916.364    21587917.919    36021010.842 9 -41530415.794 9
  23484556.093    23484558.061    77627135.923 8 -97346958.876 8
  24024821.767    24024822.314   -15264350.918 9   7800471.281 7
 86  6 20  3 25 41.0800000  0  4G12G13G 9G 7
  20925193.599    20925194.299     6540925.079 9 -20173466.932 8
  21589655.332    21589657.053    36030152.467 9 -41523292.454 9
  23489182.017    23489185.027    77651445.882 7 -97328016.061 8
  24022190.353    24022191.379   -15278176.254 9   7789697.902 8
 86  6 20  3 25 47.0800000  0  4G12G13G 9G 7
  20926154.259    20926153.848     6545974.632 9 -20169532.217 8
  21591394.526    21591397.509    36039297.755 9 -41516166.253 9
  23493810.395    23493811.976    77675761.941 8 -97309068.485 7
  24019563.910    24019564.430   -15291976.797 9   7778944.231 8
 86  6 20  3 25 53.0800000  0  4G12G13G 9G 7
  20927120.488    20927120.121     6551049.969 9 -20165577.409 8
  21593135.693    21593138.162    36048446.595 9 -41509037.295 8
  23498437.318    23498439.215    77700083.867 8 -97290116.319 8
  24016940.878    24016943.109   -15305756.499 9   7768206.810 9
 86  6 20  3 25 59.0800000  0  4G12G13G 9G 7
  20928091.197    20928091.711     6556151.100 8 -20161602.512 8
  21594878.084    21594879.596    36057598.928 9 -41501905.598 8
  23503067.870    23503070.153    77724411.768 8 -97271159.522 9
  24014322.271    24014324.851   -15319518.572 9   7757483.122 8
 86  6 20  3 26  5.0800000  0  4G12G13G 9G 7
  20929066.084    20929065.765     6561277.996 9 -20157607.529 8
  21596621.094    21596621.982    36066754.866 9 -41494771.099 9
  23507697.814    23507699.981    77748745.562 7 -97252198.129 8
  24011707.319    24011708.520   -15333265.266 9   7746771.415 8
 86  6 20  3 26 11.0800000  0  4G12G13G 9G 7
  20930046.048    20930047.864     6566430.770 9 -20153592.387 9
  21598363.883    21598364.488    36075914.468 9 -41487633.744 8
  23512328.101    23512331.756    77773085.317 8 -97233232.088 8
  24009093.764    24009094.860   -15346997.800 9   7736070.743 8
 86  6 20  3 26 17.0800000  0  4G12G13G 9G 7
  20931030.646    20931032.343     6571609.182 9 -20149557.275 8
  21600107.613    21600108.976    36085077.648 9 -41480493.614 9
  23516961.498    23516964.541    77797430.888 8 -97214261.520 8
  24006483.795    24006484.406   -15360714.989 8   7725382.032 9
 86  6 20  3 26 23.0800000  0  4G12G13G 9G 7
  20932021.837    20932023.315     6576813.332 9 -20145502.092 8
  21601851.102    21601853.699    36094244.398 9 -41473350.693 9
  23521596.356    23521598.198    77821782.307 8 -97195286.392 7
                  24003878.391                     7714709.633 8
 86  6 20  3 26 29.0800000  0  4G12G13G 9G 7
  20933016.083    20933018.657     6582043.270 9 -20141426.817 8
  21603596.079    21603599.210    36103414.729 9 -41466204.976 8
  23526230.192    23526232.525    77846139.536 8 -97176306.722 8
  24001275.916    24001276.471   -15410546.814 9   7704059.162 8
 86  6 20  3 26 35.0800000  0  4G12G13G 9G 7
  20934016.765    20934018.586     6587299.019 9 -20137331.425 8
  21605341.744    21605345.082    36112588.635 9 -41459056.479 9
  23530866.494    23530870.379    77870502.602 7 -97157322.533 8
  23998681.292    23998681.326   -15424183.305 9   7693433.345 9
 86  6 20  3 26 41.0800000  0  4G12G13G 9G 7
  20935021.690    20935023.955     6592580.442 9 -20133216.040 8
  21607088.896    21607090.301    36121766.006 9 -41451905.272 9
  23535505.079    23535506.582    77894871.453 8 -97138333.815 8
  23996093.146    23996093.022   -15437790.712 9   7682830.573 8
 86  6 20  3 26 47.0800000  0  4G12G13G 9G 7
  20936031.848    20936034.153     6597887.536 9 -20129080.642 7
  21608836.245    21608836.779    36130946.846 9 -41444751.366 8
  23540143.539    23540143.976    77919245.975 7 -97119340.684 8
  23993508.913    23993508.630   -15451372.547 9   7672247.326 9
 86  6 20  3 26 53.0800000  0  4G12G13G 9G 7
  20937045.298    20937047.701     6603220.408 9 -20124925.155 9
  21610582.492    21610585.158    36140131.224 9 -41437594.708 9
  23544782.182    23544784.761    77943626.229 8 -97100343.079 8
  23990927.870    23990928.823   -15464933.570 9   7661680.290 7
 86  6 20  3 26 59.0800000  0  4G12G13G 9G 7
  20938065.459    20938068.606     6608579.006 9 -20120749.629 9
  21612331.259    21612334.206    36149319.042 9 -41430435.369 9
  23549423.774    23549423.627    77968012.165 9 -97081341.053 8
  23988350.971    23988351.452   -15478477.050 9   7651126.937 9
 86  6 20  3 27  5.0800000  0  4G12G13G 9G 7
  20939089.795    20939093.237     6613963.302 8 -20116554.084 8
  21614081.111    21614081.835    36158510.388 9 -41423273.275 9
  23554064.821    23554066.432    77992403.743 8 -97062334.622 8
  23985776.589    23985777.475   -15492005.269 9   7640585.449 9
 86  6 20  3 27 11.0800000  0  4G12G13G 9G 7
  20940120.149    20940122.354     6619373.261 8 -20112338.530 8
  21615831.516    21615831.797    36167705.202 9 -41416108.484 9
  23558708.048    23558708.604    78016800.935 8 -97043323.828 7
  23983204.173    23983205.801   -15505519.183 9   7630055.118 9
 86  6 20  3 27 17.0800000  0  4G12G13G 9G 7
  20941154.646    20941157.564     6624808.962 8 -20108102.935 8
  21617581.735    21617582.698    36176903.453 9 -41408941.025 9
  23563350.444    23563351.626    78041203.798 7 -97024308.623 8
  23980634.876    23980636.328   -15519017.273 9   7619537.117 9
 86  6 20  3 27 23.0800000  0  4G12G13G 9G 7
  20942194.230    20942196.697     6630270.328 8 -20103847.324 9
  21619331.991    21619334.289    36186105.214 9 -41401770.809 9
  23567996.205    23567997.044    78065612.145 8 -97005289.121 8
                  23978073.908                     7609036.155 8
 86  6 20  3 27 29.0800000  0  4G12G13G 9G 7
  20943238.581    20943241.501     6635757.386 9 -20099571.703 8
  21621084.284    21621085.568    36195310.323 9 -41394598.003 9
  23572641.235    23572643.502    78090026.030 8 -96986265.313 8
  23975510.942    23975514.421   -15568624.941 9   7598557.632 9
 86  6 20  3 27 35.0800000  0  4G12G13G 9G 7
  20944287.374    20944289.565     6641270.105 9 -20095276.081 9
  21622836.404    21622837.882    36204518.868 9 -41387422.515 9
  23577288.787    23577289.440    78114445.450 8 -96967237.203 9
  23972957.441    23972959.993   -15582040.493 9   7588103.958 9
 86  6 20  3 27 41.0800000  0  4G12G13G 9G 7
  20945342.130    20945343.982     6646808.499 8 -20090960.442 9
  21624590.589    21624591.510    36213730.871 9 -41380244.331 9
  23581937.365    23581938.449    78138870.387 7 -96948204.794 9
  23970411.230    23970414.129   -15595426.537 9   7577673.287 9
 86  6 20  3 27 47.0800000  0  4G12G13G 9G 7
  20946400.334    20946403.001     6652372.510 8 -20086624.855 8
  21626344.565    21626346.493    36222946.340 9 -41373063.447 8
  23586586.287    23586586.150    78163300.781 9 -96929168.123 9
  23967868.080    23967870.097   -15608787.649 9   7567262.036 9
 86  6 20  3 27 53.0800000  0  4G12G13G 9G 7
  20947463.843    20947465.977     6657962.193 8 -20082269.253 8
  21628097.470    21628099.263    36232165.261 9 -41365879.855 9
  23591235.507    23591237.978    78187736.519 8 -96910127.279 8
  23965329.729    23965330.836   -15622128.178 9   7556866.814 8
 86  6 20  3 27 59.0800000  0  4G12G13G 9G 7
  20948532.896    20948534.875     6663577.515 8 -20077893.683 8
  21629852.418    21629853.960    36241387.543 9 -41358693.668 9
  23595886.910    23595887.737    78212177.779 8 -96891082.156 9
  23962794.741    23962795.819   -15635451.037 9   7546485.365 8
 86  6 20  3 28  5.0800000  0  4G12G13G 9G 7
  20949605.153    20949607.927     6669218.530 8 -20073498.086 8
  21631607.914    21631610.450    36250613.306 9 -41351504.752 9
  23600538.084    23600539.575    78236624.400 8 -96872032.842 8
  23960263.449    23960263.731   -15648758.367 9   7536116.018 8
 86  6 20  3 28 11.0800000  0  4G12G13G 9G 7
  20950683.246    20950685.810     6674885.164 8 -20069082.520 8
  21633364.352    21633366.099    36259842.595 9 -41344313.101 9
  23605192.369    23605193.310    78261076.402 8 -96852979.341 9
  23957734.042    23957733.275   -15662051.184 9   7525757.984 9
 86  6 20  3 28 17.0800000  0  4G12G13G 9G 7
  20951765.421    20951768.784     6680577.396 8 -20064647.019 9
  21635120.901    21635122.862    36269075.257 9 -41337118.814 9
  23609846.569    23609846.774    78285533.643 7 -96833921.757 8
  23955207.921    23955207.453   -15675327.454 9   7515412.839 8
 86  6 20  3 28 23.0800000  0  4G12G13G 9G 7
  20952854.209    20952856.452     6686295.241 8 -20060191.549 9
  21636878.352    21636881.243    36278311.255 9 -41329921.930 9
  23614501.170    23614500.619    78309996.243 8 -96814859.987 9
                  23952685.852                     7505085.275 9
 86  6 20  3 28 29.0800000  0  4G12G13G 9G 7
  20953946.321    20953949.078     6692038.651 8 -20055716.174 9
  21638637.225    21638638.758    36287550.632 9 -41322722.428 9
  23619156.866    23619156.821    78334464.207 7 -96795794.052 9
  23950168.239    23950170.082   -15724871.027 9   7494780.615 9
 86  6 20  3 28 35.0800000  0  4G12G13G 9G 7
  20955045.853    20955047.029     6697807.621 8 -20051220.857 9
  21640396.266    21640397.290    36296793.319 9 -41315520.324 9
  23623815.726    23623815.591    78358937.323 8 -96776724.114 9
  23947658.624    23947659.172   -15738063.193 9   7484500.992 8
 86  6 20  3 28 41.0800000  0  4G12G13G 9G 7
  20956147.357    20956149.433     6703602.225 9 -20046705.585 8
  21642155.496    21642155.832    36306039.304 9 -41308315.656 9
  23628472.542    23628472.676    78383415.717 8 -96757650.033 9
  23945153.418    23945154.710   -15751225.554 9   7474244.219 9
 86  6 20  3 28 47.0800000  0  4G12G13G 9G 7
  20957255.763    20957257.656     6709422.322 8 -20042170.437 8
  21643915.802    21643915.790    36315288.579 9 -41301108.427 9
  23633130.528    23633131.604    78407899.272 7 -96738571.940 8
  23942652.610    23942654.217   -15764363.500 9   7464006.861 8
 86  6 20  3 28 53.0800000  0  4G12G13G 9G 7
  20958368.894    20958371.306     6715267.986 9 -20037615.382 8
  21645676.474    21645676.612    36324541.091 9 -41293898.669 9
  23637791.531    23637791.735    78432387.935 8 -96719489.874 8
  23940156.705    23940159.036   -15777480.977 9   7453785.460 9
 86  6 20  3 28 59.0800000  0  4G12G13G 9G 7
  20959486.299    20959488.543     6721139.153 9 -20033040.445 9
  21647437.121    21647438.354    36333796.924 9 -41286686.338 9
  23642452.337    23642452.211    78456881.829 7 -96700403.737 9
  23937665.044    23937665.154   -15790580.767 9   7443577.822 9
 86  6 20  3 29  5.0800000  0  4G12G13G 9G 7
  20960609.018    20960610.671     6727035.851 9 -20028445.625 9
  21649199.064    21649201.140    36343056.185 9 -41279471.333 9
  23647113.826    23647114.417    78481380.784 8 -96681313.641 9
  23935175.545    23935174.583   -15803665.266 9   7433382.112 9
 86  6 20  3 29 11.0800000  0  4G12G13G 9G 7
  20961735.662    20961737.781     6732958.108 9 -20023830.866 8
  21650962.192    21650963.689    36352318.827 9 -41272253.683 9
  23651777.580    23651777.086    78505884.855 8 -96662219.548 8
  23932687.931    23932689.247   -15816735.015 9   7423197.895 9
 86  6 20  3 29 17.0800000  0  4G12G13G 9G 7
  20962867.593    20962869.466     6738905.876 8 -20019196.259 8
  21652725.909    21652727.833    36361584.718 9 -41265033.509 8
  23656441.338    23656440.155    78530394.163 7 -96643121.407 7
  23930203.937    23930205.439   -15829787.775 9   7413026.893 9
 86  6 20  3 29 23.0800000  0  4G12G13G 9G 7
  20964003.113    20964005.046     6744879.115 8 -20014541.791 8
  21654489.957    21654491.080    36370853.879 9 -41257810.774 8
  23661107.043    23661105.267    78554908.313 8 -96624019.470 8
                  23927724.677                     7402874.178 9
 86  6 20  3 29 29.0800000  0  4G12G13G 9G 7
  20965145.962    20965147.148     6750877.887 8 -20009867.421 8
  21656253.490    21656255.091    36380126.279 9 -41250585.531 9
  23665771.128    23665773.056    78579427.536 8 -96604913.588 8
  23925252.398    23925250.783   -15879100.708 8   7392745.013 8
 86  6 20  3 29 35.0800000  0  4G12G13G 9G 7
  20966292.023    20966293.436     6756902.253 9 -20005173.124 8
  21658018.776    21658020.137    36389401.931 9 -41243357.747 9
  23670437.094    23670438.973    78603951.782 8 -96585803.795 9
  23922782.757    23922784.289   -15892067.555 9   7382640.967 9
 86  6 20  3 29 41.0800000  0  4G12G13G 9G 7
  20967442.873    20967444.603     6762952.073 9 -20000458.979 9
  21659783.580    21659785.819    36398680.823 9 -41236127.448 9
  23675106.462    23675105.491    78628480.947 8 -96566690.157 7
  23920320.317    23920322.821   -15905005.688 9   7372559.686 8
 86  6 20  3 29 47.0800000  0  4G12G13G 9G 7
  20968599.087    20968600.786     6769027.351 9 -19995725.018 8
  21661549.729    21661551.731    36407962.940 9 -41228894.625 8
  23679773.915    23679775.414    78653015.070 7 -96547572.672 9
  23917862.742    23917863.529   -15917918.687 9   7362497.614 8
 86  6 20  3 29 53.0800000  0  4G12G13G 9G 7
  20969759.791    20969762.355     6775128.082 9 -19990971.195 8
  21663317.567    21663319.374    36417248.306 9 -41221659.275 9
  23684443.507    23684444.476    78677554.140 8 -96528451.329 8
  23915409.440    23915411.439   -15930811.278 9   7352451.448 8
 86  6 20  3 29 59.0800000  0  4G12G13G 9G 7
  20970925.946    20970928.270     6781254.231 9 -19986197.577 9
  21665084.661    21665085.368    36426536.936 9 -41214421.382 8
  23689113.652    23689115.817    78702098.041 8 -96509326.229 8
  23912959.392    23912961.418   -15943686.234 9   7342419.020 9
 86  6 20  3 30  5.0800000  0  4G12G13G 9G 7
  20972097.173    20972099.677     6787405.841 9 -19981404.122 8
  21666853.196    21666854.011    36435828.727 9 -41207181.026 8
  23693786.821    23693787.274    78726646.830 7 -96490197.298 9
  23910513.330    23910513.746   -15956545.555 9   7332398.772 9
 86  6 20  3 30 11.0800000  0  4G12G13G 9G 7
  20973271.986    20973273.435     6793582.944 9 -19976590.785 9
  21668622.122    21668623.558    36445123.726 9 -41199938.163 9
  23698457.449    23698461.156    78751200.549 7 -96471064.534 8
  23908068.730    23908069.927   -15969389.960 9   7322390.148 9
 86  6 20  3 30 17.0800000  0  4G12G13G 9G 7
  20974452.924    20974454.543     6799785.507 9 -19971757.633 8
  21670391.550    21670393.098    36454421.917 9 -41192692.823 9
  23703131.198    23703133.114    78775758.900 8 -96451928.155 9
  23905628.445    23905629.255   -15982216.717 9   7312395.274 9
 86  6 20  3 30 23.0800000  0  4G12G13G 9G 7
  20975637.024    20975638.948     6806013.558 8 -19966904.604 8
  21672161.936    21672163.004    36463723.332 9 -41185444.968 8
  23707806.632    23707808.352    78800322.123 8 -96432787.990 8
                  23903193.281                     7302419.300 9
 86  6 20  3 30 29.0800000  0  4G12G13G 9G 7
  20976827.293    20976829.075     6812267.023 9 -19962031.781 8
  21673932.726    21673933.278    36473027.947 9 -41178194.615 9
  23712481.895    23712482.750    78824890.091 7 -96413644.118 9
  23900761.872    23900763.239   -16031306.958 9   7292467.311 9
 86  6 20  3 30 35.0800000  0  4G12G13G 9G 7
  20978021.901    20978023.458     6818545.844 8 -19957139.202 9
  21675703.621    21675704.816    36482335.696 9 -41170941.824 9
  23717156.087    23717158.939    78849462.708 8 -96394496.629 8
  23898337.833    23898338.953   -16044046.316 9   7282540.526 9
 86  6 20  3 30 41.0800000  0  4G12G13G 9G 7
  20979221.423    20979223.915     6824850.054 9 -19952226.830 8
  21677475.293    21677476.033    36491646.582 9 -41163686.588 8
  23721834.661    23721835.536    78874040.089 8 -96375345.422 8
  23895918.826    23895919.765   -16056756.484 9   7272636.506 9
 86  6 20  3 30 47.0800000  0  4G12G13G 9G 7
  20980424.928    20980428.237     6831179.677 8 -19947294.651 7
  21679247.159    21679248.076    36500960.633 9 -41156428.882 8
  23726512.001    23726514.951    78898622.103 8 -96356190.606 9
  23893504.144    23893506.797   -16069442.249 9   7262751.495 8
 86  6 20  3 30 53.0800000  0  4G12G13G 9G 7
  20981635.476    20981637.733     6837534.630 9 -19942342.751 7
  21681020.768    21681022.137    36510277.881 9 -41149168.687 8
  23731190.772    23731192.534    78923208.695 8 -96337032.211 9
  23891094.043    23891095.231   -16082107.689 9   7252882.322 9
 86  6 20  3 30 59.0800000  0  4G12G13G 9G 7
  20982849.197    20982851.641     6843915.005 8 -19937371.026 8
  21682792.932    21682795.413    36519598.393 9 -41141905.954 8
  23735870.531    23735872.222    78947800.022 8 -96317870.140 8
  23888686.693    23888687.604   -16094755.335 9   7243027.026 9
 86  6 20  3 31  5.0800000  0  4G12G13G 9G 7
  20984068.607    20984069.410     6850320.740 9 -19932379.553 8
  21684566.517    21684570.351    36528921.998 9 -41134640.817 8
  23740550.708    23740551.034    78972395.905 8 -96298704.510 8
  23886282.896    23886283.401   -16107387.344 9   7233183.900 8
 86  6 20  3 31 11.0800000  0  4G12G13G 9G 7
  20985292.434    20985294.161     6856751.842 9 -19927368.299 8
  21686342.832    21686343.708    36538248.723 9 -41127373.236 9
  23745231.781    23745234.391    78996996.323 8 -96279535.362 8
  23883881.652    23883882.930   -16120004.172 9   7223352.610 9
 86  6 20  3 31 17.0800000  0  4G12G13G 9G 7
  20986519.903    20986522.895     6863208.260 8 -19922337.323 8
  21688118.408    21688119.499    36547578.534 9 -41120103.246 9
  23749913.103    23749915.918    79021601.358 9 -96260362.606 8
  23881484.408    23881485.844   -16132602.861 9   7213535.448 9
 86  6 20  3 31 23.0800000  0  4G12G13G 9G 7
  20987753.644    20987755.578     6869689.982 9 -19917286.621 9
  21689895.357    21689895.387    36556911.424 9 -41112830.858 8
  23754597.262    23754599.259    79046210.811 8 -96241186.412 8
                  23879092.354                     7203737.793 8
 86  6 20  3 31 29.0800000  0  4G12G13G 9G 7
  20988992.492    20988993.924     6876197.002 8 -19912216.222 7
  21691672.548    21691670.700    36566247.372 9 -41105556.094 9
  23759280.035    23759282.899    79070824.766 8 -96222006.711 8
  23876706.644    23876706.973   -16181461.374 9   7193964.532 9
 86  6 20  3 31 35.0800000  0  4G12G13G 9G 7
  20990235.693    20990237.454     6882729.363 9 -19907126.064 9
  21693449.624    21693449.145    36575586.333 9 -41098278.985 9
  23763963.957    23763968.065    79095443.151 8 -96202823.552 8
  23874325.923    23874326.153   -16193971.076 9   7184216.725 9
 86  6 20  3 31 41.0800000  0  4G12G13G 9G 7
  20991483.138    20991487.021     6889287.107 9 -19902016.126 8
  21695225.760    21695226.529    36584928.400 9 -41090999.450 8
  23768651.640    23768654.091    79120066.074 7 -96183636.870 9
  23871951.046    23871950.780   -16206451.310 9   7174491.477 8
 86  6 20  3 31 47.0800000  0  4G12G13G 9G 7
  20992737.224    20992738.363     6895870.106 9 -19896886.522 8
  21697003.889    21697005.539    36594273.514 9 -41083717.545 8
  23773338.423    23773339.123    79144693.409 8 -96164446.720 8
  23869579.903    23869581.137   -16218907.819 9   7164785.106 8
 86  6 20  3 31 53.0800000  0  4G12G13G 9G 7
  20993993.649    20993995.905     6902478.403 9 -19891737.216 8
  21698783.919    21698784.900    36603621.626 9 -41076433.293 8
  23778025.415    23778028.151    79169324.998 8 -96145253.282 8
  23867213.748    23867216.115   -16231343.943 9   7155094.625 8
 86  6 20  3 31 59.0800000  0  4G12G13G 9G 7
  20995256.747    20995258.463     6909112.006 8 -19886568.166 8
  21700563.491    21700564.204    36612972.801 9 -41069146.675 8
  23782711.954    23782716.084    79193961.001 7 -96126056.405 8
  23864849.956    23864852.808   -16243762.329 9   7145417.956 9
 86  6 20  3 32  5.0800000  0  4G12G13G 9G 7
  20996522.376    20996524.715     6915770.917 9 -19881379.401 9
  21702343.496    21702343.851    36622327.087 9 -41061857.609 9
  23787400.169    23787405.359    79218601.368 7 -96106856.113 9
  23862489.526    23862490.704   -16256165.008 9   7135753.535 9
 86  6 20  3 32 11.0800000  0  4G12G13G 9G 7
  20997794.371    20997796.830     6922455.051 8 -19876170.985 8
  21704124.099    21704125.309    36631684.386 9 -41054566.194 8
  23792091.875    23792094.449    79243246.032 8 -96087652.490 8
  23860132.821    23860134.361   -16268552.092 9   7126101.249 9
 86  6 20  3 32 17.0800000  0  4G12G13G 9G 7
  20999071.364    20999074.101     6929164.411 9 -19870942.919 9
  21705904.699    21705906.546    36641044.724 9 -41047272.431 8
  23796783.581    23796784.873    79267894.981 8 -96068445.514 8
                  23857780.948                     7116463.697 9
 86  6 20  3 32 23.0800000  0  4G12G13G 9G 7
  21000352.986    21000356.317     6935898.925 9 -19865695.243 8
  21707686.406    21707687.728    36650408.127 9 -41039976.277 9
  23801472.679    23801477.019    79292548.132 8 -96049235.275 9
                  23855432.456                     7106846.284 8
 86  6 20  3 32 29.0800000  0  4G12G13G 9G 7
  21001639.726    21001641.254     6942658.710 8 -19860427.883 9
  21709468.268    21709470.669    36659774.512 9 -41032677.794 9
  23806166.412    23806168.233    79317205.541 8 -96030021.706 8
  23853086.764    23853089.457   -16329546.591 9   7097253.728 9
 86  6 20  3 32 35.0800000  0  4G12G13G 9G 7
  21002930.015    21002932.460     6949443.786 9 -19855140.806 8
  21711251.570    21711252.881    36669143.931 9 -41025376.939 9
  23810858.421    23810862.021    79341867.023 8 -96010804.975 9
  23850750.416    23850752.662   -16341824.682 9   7087686.399 9
 86  6 20  3 32 41.0800000  0  4G12G13G 9G 7
  21004225.939    21004228.760     6956254.035 9 -19849834.107 9
  21713035.216    21713036.216    36678516.333 9 -41018073.780 9
  23815551.918    23815556.491    79366532.758 6 -95991584.921 9
  23848419.557    23848421.113   -16354074.376 9   7078141.570 9
 86  6 20  3 32 47.0800000  0  4G12G13G 9G 7
  21005527.076    21005530.790     6963089.488 9 -19844507.791 8
  21714818.536    21714820.504    36687891.690 8 -41010768.305 9
  23820246.829    23820250.755    79391202.690 8 -95972361.599 8
  23846093.208    23846095.200   -16366299.457 9   7068615.545 9
 86  6 20  3 32 53.0800000  0  4G12G13G 9G 7
  21006833.066    21006835.439     6969950.106 8 -19839161.848 9
  21716603.591    21716604.647    36697269.937 9 -41003460.593 9
  23824941.847    23824944.282    79415876.775 8 -95953135.038 9
  23843770.700    23843772.303   -16378504.104 9   7059105.430 8
 86  6 20  3 32 59.0800000  0  4G12G13G 9G 7
  21008143.374    21008145.475     6976835.895 8 -19833796.303 9
  21718389.636    21718390.011    36706651.141 9 -40996150.561 9
  23829638.541    23829641.315    79440554.973 8 -95933905.279 9
  23841453.189    23841452.868   -16390691.066 9   7049609.099 9
 86  6 20  3 33  5.0800000  0  4G12G13G 9G 7
  21009457.958    21009461.206     6983746.767 9 -19828411.203 9
  21720174.426    21720174.798    36716035.337 9 -40988838.186 9
  23834335.922    23834338.199    79465237.123 7 -95914672.435 8
  23839136.548    23839137.697   -16402862.046 9   7040125.219 9
 86  6 20  3 33 11.0800000  0  4G12G13G 9G 7
  21010778.660    21010780.890     6990682.784 8 -19823006.522 8
  21721961.280    21721961.493    36725422.475 8 -40981523.532 8
  23839032.648    23839034.994    79489923.346 7 -95895436.408 9
  23836822.868    23836824.037   -16415017.121 9   7030653.731 9
 86  6 20  3 33 17.0800000  0  4G12G13G 9G 7
  21012102.957    21012104.606     6997643.972 9 -19817582.225 9
  21723748.188    21723748.251    36734812.606 9 -40974206.545 9
  23843731.018    23843734.312    79514613.566 8 -95876197.282 8
                  23834514.177                     7021197.494 8
 86  6 20  3 33 23.0800000  0  4G12G13G 9G 7
  21013432.843    21013434.016     7004630.306 9 -19812138.327 8
  21725535.475    21725536.322    36744205.665 9 -40966887.269 9
  23848431.530    23848434.732    79539307.814 9 -95856955.022 8
  23832262.116    23832210.832   -16463311.729 9   7011761.827 8
 86  6 20  3 33 29.0800000  0  4G12G13G 9G 7
  21014767.605    21014767.863     7011641.768 9 -19806674.861 9
  21727322.521    21727324.737    36753601.653 9 -40959565.735 9
  23853131.569    23853133.924    79564006.043 9 -95837709.643 9
  23829912.734    23829912.948   -16475388.410 9   7002351.420 9
 86  6 20  3 33 35.0800000  0  4G12G13G 9G 7
  21016106.830    21016107.319     7018678.376 9 -19801191.782 8
  21729111.708    21729113.621    36763000.553 9 -40952241.922 9
  23857831.868    23857833.327    79588708.146 8 -95818461.255 8
  23827620.591    23827622.161   -16487432.614 9   6992966.329 8
 86  6 20  3 33 41.0800000  0  4G12G13G 9G 7
  21017450.777    21017451.495     7025740.098 9 -19795689.154 9
  21730901.084    21730902.197    36772402.315 8 -40944915.876 9
  23862533.644    23862535.296    79613414.200 8 -95799209.777 9
  23825334.612    23825334.559   -16499447.977 9   6983603.717 9
 86  6 20  3 33 47.0800000  0  4G12G13G 9G 7
  21018799.353    21018800.596     7032826.937 9 -19790166.939 9
  21732690.489    21732691.871    36781807.007 9 -40937587.542 9
  23867236.463    23867237.459    79638124.070 8 -95779955.320 8
  23823053.368    23823053.167   -16511439.561 9   6974259.626 9
 86  6 20  3 33 53.0800000  0  4G12G13G 9G 7
  21020152.197    21020153.042     7039938.817 9 -19784625.217 9
  21734481.782    21734482.658    36791214.530 9 -40930257.006 9
  23871940.135    23871940.559    79662837.825 9 -95760697.863 8
  23820774.557    23820775.182   -16523410.938 9   6964931.288 9
 86  6 20  3 33 59.0800000  0  4G12G13G 9G 7
  21021511.231    21021512.390     7047075.761 8 -19779063.961 9
  21736273.064    21736272.447    36800624.920 9 -40922924.227 8
  23876643.002    23876644.869    79687555.469 8 -95741437.362 8
  23818498.633    23818501.127   -16535364.441 9   6955616.862 9
 86  6 20  3 34  5.0800000  0  4G12G13G 9G 7
  21022872.837    21022874.570     7054237.730 9 -19773483.206 8
  21738062.675    21738063.612    36810038.162 9 -40915589.232 9
  23881347.849    23881348.446    79712276.866 9 -95722173.941 8
  23816227.668    23816227.952   -16547301.942 9   6946314.920 9
 86  6 20  3 34 11.0800000  0  4G12G13G 9G 7
  21024241.055    21024241.955     7061424.733 9 -19767882.949 9
  21739853.694    21739856.371    36819454.282 8 -40908251.989 9
  23886052.293    23886053.776    79737002.054 9 -95702907.560 8
  23813958.607    23813960.725   -16559223.174 9   6937025.657 9
 86  6 20  3 34 17.0800000  0  4G12G13G 9G 7
  21025611.732    21025614.157     7068636.736 8 -19762263.198 8
  21741645.954    21741649.370    36828873.345 9 -40900912.473 8
  23890758.256    23890759.052    79761730.896 9 -95683638.331 8
                  23811695.757                     6927752.128 9
 86  6 20  3 34 23.0800000  0  4G12G13G 9G 7
  21026989.708    21026991.297     7075873.706 9 -19756624.018 9
  21743439.125    21743442.239    36838295.210 9 -40893570.758 9
  23895465.170    23895466.068    79786463.573 9 -95664366.117 9
  23809456.969    23809434.890   -16607443.938 9   6918499.832 9
 86  6 20  3 34 29.0800000  0  4G12G13G 9G 7
  21028371.397    21028374.258     7083135.693 9 -19750965.328 9
  21745233.302    21745235.858    36847719.912 9 -40886226.843 9
  23900170.892    23900173.060    79811199.900 8 -95645091.061 7
  23807181.534    23807182.202   -16619284.925 9   6909273.133 8
 86  6 20  3 34 35.0800000  0  4G12G13G 9G 7
  21029756.732    21029759.733     7090422.693 9 -19745287.160 8
  21747027.779    21747029.090    36857147.407 9 -40878880.744 9
  23904879.405    23904881.134    79835939.980 9 -95625813.079 8
  23804935.710    23804935.240   -16631093.476 9   6900071.681 9
 86  6 20  3 34 41.0800000  0  4G12G13G 9G 7
  21031147.892    21031151.639     7097734.681 8 -19739589.504 8
  21748823.330    21748824.239    36866577.716 9 -40871532.446 9
  23909588.196    23909588.200    79860683.590 8 -95606532.345 8
  23802693.417    23802693.007   -16642873.540 9   6890892.414 9
 86  6 20  3 34 47.0800000  0  4G12G13G 9G 7
  21032544.934    21032547.993     7105071.657 8 -19733872.383 9
  21750618.338    21750618.205    36876010.944 9 -40864181.874 8
  23914297.564    23914298.707    79885430.790 9 -95587248.815 8
  23800455.890    23800456.901   -16654629.869 9   6881731.630 9
 86  6 20  3 34 53.0800000  0  4G12G13G 9G 7
  21033946.673    21033948.806     7112433.610 9 -19728135.792 8
  21752413.845    21752413.203    36885446.906 9 -40856829.175 9
  23919008.044    23919008.520    79910181.637 9 -95567962.436 8
  23798221.909    23798224.264   -16666366.024 9   6872586.579 9
 86  6 20  3 34 59.0800000  0  4G12G13G 9G 7
  21035351.742    21035355.719     7119820.528 9 -19722379.754 9
  21754208.824    21754209.506    36894885.647 9 -40849474.313 8
  23923718.854    23923719.259    79934936.012 9 -95548673.317 8
  23795992.799    23795993.824   -16678084.296 9   6863455.454 9
 86  6 20  3 35  5.0800000  0  4G12G13G 9G 7
  21036763.233    21036766.523     7127232.288 9 -19716604.344 8
  21756005.865    21756005.986    36904327.115 9 -40842117.317 8
  23928429.645    23928430.774    79959694.011 8 -95529381.367 8
  23793765.077    23793765.997   -16689786.449 9   6854336.900 9
 86  6 20  3 35 11.0800000  0  4G12G13G 9G 7
  21038179.238    21038180.006     7134669.063 8 -19710809.461 8
  21757803.088    21757802.653    36913771.374 9 -40834758.160 9
  23933142.471    23933142.588    79984455.525 9 -95510086.671 8
  23791540.789    23791542.283   -16701472.220 9   6845231.107 9
 86  6 20  3 35 17.0800000  0  4G12G13G 9G 7
  21039599.065    21039600.106     7142130.768 9 -19704995.142 8
  21759599.469    21759601.745    36923218.412 9 -40827396.830 9
  23937853.879    23937853.567    80009220.386 7 -95490789.371 7
                  23789323.303                     6836141.714 9
 86  6 20  3 35 23.0800000  0  4G12G13G 9G 7
  21041023.221    21041025.109     7149617.363 9 -19699161.435 9
  21761397.436    21761398.917    36932668.220 9 -40820033.341 9
  23942567.205    23942568.727    80033988.777 9 -95471489.332 7
  23787020.243    23787108.215   -16749453.764 9   6827074.074 9
 86  6 20  3 35 29.0800000  0  4G12G13G 9G 7
  21042453.310    21042454.909     7157128.826 9 -19693308.339 8
  21763197.120    21763198.163    36942120.772 9 -40812667.721 9
  23947280.349    23947282.145    80058760.551 9 -95452186.659 7
  23784899.034    23784900.134   -16761056.991 9   6818032.583 8
 86  6 20  3 35 35.0800000  0  4G12G13G 9G 7
  21043886.759    21043888.295     7164665.194 9 -19687435.855 8
  21764996.049    21764998.556    36951576.102 9 -40805299.934 8
  23951996.439    23951995.100    80083535.822 8 -95432881.254 7
  23782697.315    23782699.084   -16772627.939 9   6809016.267 9
 86  6 20  3 35 41.0800000  0  4G12G13G 9G 7
  21045325.382    21045328.169     7172226.438 9 -19681543.972 8
  21766797.955    21766797.664    36961034.154 9 -40797930.020 8
  23956712.021    23956712.389    80108314.438 8 -95413573.227 7
  23780500.869    23780501.889   -16784170.493 9   6800022.074 8
 86  6 20  3 35 47.0800000  0  4G12G13G 9G 7
  21046769.437    21046771.170     7179812.544 8 -19675632.721 8
  21768598.073    21768597.240    36970494.989 9 -40790557.934 9
  23961427.043    23961426.444    80133096.404 8 -95394262.592 7
  23778309.463    23778310.636   -16795689.394 9   6791046.315 9
 86  6 20  3 35 53.0800000  0  4G12G13G 9G 7
  21048217.073    21048220.006     7187423.464 9 -19669702.145 9
  21770398.537    21770397.307    36979958.522 9 -40783183.742 9
  23966143.827    23966143.810    80157881.755 9 -95374949.330 6
  23776119.232    23776121.902   -16807188.086 9   6782086.300 9
 86  6 20  3 35 59.0800000  0  4G12G13G 9G 7
  21049670.552    21049673.073     7195059.216 9 -19663752.205 9
  21772200.614    21772200.193    36989424.772 9 -40775807.446 9
  23970860.472    23970862.430    80182670.356 9 -95355633.551 7
  23773935.496    23773937.098   -16818668.977 9   6773140.146 9
 86  6 20  3 36  5.0800000  0  4G12G13G 9G 7
  21051127.756    21051130.897     7202719.804 8 -19657782.922 8
  21774001.431    21774001.746    36998893.700 9 -40768429.065 8
  23975578.077    23975577.940    80207462.292 8 -95336315.145 6
  23771754.719    23771755.177   -16830133.622 9   6764206.671 9
 86  6 20  3 36 11.0800000  0  4G12G13G 9G 7
  21052590.239    21052592.727     7210405.183 9 -19651794.319 9
  21775804.767    21775804.231    37008365.304 9 -40761048.591 8
  23980295.835    23980296.667    80232257.462 8 -95316994.232 6
  23769576.343    23769577.717   -16841581.347 9   6755286.374 9
 86  6 20  3 36 17.0800000  0  4G12G13G 9G 7
  21054057.515    21054060.159     7218115.370 8 -19645786.387 9
  21777608.176    21777606.685    37017839.617 9 -40753666.013 8
  23985015.439    23985014.897    80257055.864 8 -95297670.783 6
                  23767402.176                     6746382.983 8
 86  6 20  3 36 23.0800000  0  4G12G13G 9G 7
  21055528.989    21055532.349     7225850.310 9 -19639759.175 9
  21779411.272    21779410.834    37027316.635 9 -40746281.324 8
  23989734.121    23989735.086    80281857.510 8 -95278344.830 6
  23765167.426    23765233.463   -16889328.388 9   6737501.992 8
 86  6 20  3 36 29.0800000  0  4G12G13G 9G 7
  21057005.640    21057009.234     7233610.008 8 -19633712.652 8
  21781214.758    21781213.990    37036796.338 9 -40738894.533 8
  23994454.527    23994454.923    80306662.239 8 -95259016.454 7
  23763071.408    23763070.392   -16900692.194 9   6728647.279 8
 86  6 20  3 36 35.0800000  0  4G12G13G 9G 7
  21058486.738    21058489.632     7241394.413 9 -19627646.896 8
  21783019.044    21783017.682    37046278.655 9 -40731505.719 9
  23999175.007    23999175.522    80331470.083 8 -95239685.675 7
  23760913.596    23760914.682   -16912023.522 9   6719817.666 9
 86  6 20  3 36 41.0800000  0  4G12G13G 9G 7
  21059973.954    21059976.818     7249203.595 9 -19621561.806 9
  21784823.256    21784822.508    37055763.649 9 -40724114.814 9
  24003896.239    24003898.480    80356281.125 8 -95220352.388 6
  23758763.356    23758764.067   -16923326.656 9   6711010.043 9
 86  6 20  3 36 47.0800000  0  4G12G13G 9G 7
  21061463.598    21061464.972     7257037.569 9 -19615457.412 9
  21786628.932    21786627.332    37065251.362 9 -40716721.777 7
  24008616.653    24008619.903    80381095.326 7 -95201016.651 7
  23756616.297    23756618.403   -16934606.121 9   6702220.864 9
 86  6 20  3 36 53.0800000  0  4G12G13G 9G 7
  21062959.943    21062961.285     7264896.301 8 -19609333.728 8
  21788433.986    21788433.841    37074741.674 9 -40709326.740 8
  24013340.506    24013340.818    80405912.496 7 -95181678.598 6
  23754473.980    23754475.325   -16945865.388 9   6693447.407 9
 86  6 20  3 36 59.0800000  0  4G12G13G 9G 7
  21064459.845    21064460.836     7272779.757 9 -19603190.763 7
  21790240.665    21790240.957    37084234.536 9 -40701929.713 8
  24018061.983    24018065.150    80430732.673 8 -95162338.182 6
  23752334.828    23752335.891   -16957106.864 9   6684687.825 9
 86  6 20  3 37  5.0800000  0  4G12G13G 9G 7
  21065965.432    21065965.560     7280687.925 9 -19597028.550 8
  21792047.344    21792048.020    37093730.076 9 -40694530.583 8
  24022787.909    24022788.185    80455555.936 7 -95142995.358 6
  23750199.324    23750199.557   -16968331.968 9   6675941.006 9
 86  6 20  3 37 11.0800000  0  4G12G13G 9G 7
  21067475.334    21067475.239     7288620.786 9 -19590847.082 8
  21793853.712    21793856.401    37103228.297 9 -40687129.382 8
  24027511.201    24027512.471    80480382.126 6 -95123650.273 6
  23748065.966    23748066.410   -16979539.672 9   6667207.722 9
 86  6 20  3 37 17.0800000  0  4G12G13G 9G 7
  21068990.109    21068989.210     7296578.306 9 -19584646.414 7
  21795662.440    21795664.594    37112729.169 9 -40679726.102 9
  24032235.916    24032236.973    80505211.359 7 -95104302.825 6
                  23745938.021                     6658491.794 8
 86  6 20  3 37 23.0800000  0  4G12G13G 9G 7
  21070508.585    21070508.418     7304560.525 9 -19578426.507 8
  21797471.791    21797473.816    37122232.558 9 -40672320.861 9
  24036959.761    24036963.921    80530043.494 7 -95084953.128 7
  23743748.516    23743814.495   -17026883.733 9   6649798.801 8
 86  6 20  3 37 29.0800000  0  4G12G13G 9G 7
  21072030.827    21072032.435     7312567.426 9 -19572187.359 9
  21799280.840    21799282.269    37131738.455 9 -40664913.672 8
  24041686.553    24041688.042    80554878.470 8 -95065601.184 6
  23741698.189    23741699.053   -17038005.680 9   6641132.281 8
 86  6 20  3 37 35.0800000  0  4G12G13G 9G 7
  21073559.164    21073560.595     7320598.898 9 -19565929.071 8
  21801090.393    21801090.899    37141246.995 9 -40657504.411 8
  24046414.282    24046415.376    80579716.404 7 -95046246.953 7
  23739588.140    23739588.455   -17049094.908 9   6632490.942 9
 86  6 20  3 37 41.0800000  0  4G12G13G 9G 7
  21075092.020    21075095.288     7328654.955 8 -19559651.645 8
  21802899.508    21802901.642    37150758.162 9 -40650093.110 9
  24051140.849    24051142.086    80604557.241 6 -95026890.440 6
  23737483.258    23737483.858   -17060156.737 9   6623871.332 9
 86  6 20  3 37 47.0800000  0  4G12G13G 9G 7
  21076628.962    21076632.813     7336735.669 8 -19553354.991 8
  21804709.656    21804713.009    37160271.855 9 -40642679.849 9
  24055867.637    24055868.427    80629400.943 7 -95007531.722 6
  23735383.169    23735383.536   -17071195.012 9   6615270.079 9
 86  6 20  3 37 53.0800000  0  4G12G13G 9G 7
  21078171.180    21078174.717     7344841.007 9 -19547039.148 8
  21806521.068    21806522.492    37169788.138 9 -40635264.552 8
  24060597.026    24060598.101    80654247.321 7 -94988170.900 6
  23733285.836    23733288.069   -17082213.044 9   6606684.600 9
 86  6 20  3 37 59.0800000  0  4G12G13G 9G 7
  21079718.735    21079721.914     7352970.964 9 -19540704.129 9
  21808332.279    21808335.128    37179306.957 9 -40627847.297 9
  24065323.233    24065326.104    80679096.574 6 -94968807.852 6
  23731193.070    23731193.280   -17093213.321 9   6598112.969 8
 86  6 20  3 38  5.0800000  0  4G12G13G 9G 7
  21081270.885    21081273.569     7361125.528 9 -19534349.934 8
  21810144.727    21810145.350    37188828.380 9 -40620427.998 9
  24070053.955    24070054.926    80703948.603 6 -94949442.630 6
  23729103.479    23729103.564   -17104197.150 9   6589554.135 8
 86  6 20  3 38 11.0800000  0  4G12G13G 9G 7
  21082827.949    21082830.754     7369304.601 9 -19527976.626 9
  21811957.668    21811957.341    37198352.351 9 -40613006.722 8
  24074781.789    24074785.355    80728803.416 5 -94930075.242 6
  23727016.159    23727016.522   -17115163.167 9   6581009.185 9
 86  6 20  3 38 17.0800000  0  4G12G13G 9G 7
  21084389.259    21084391.892     7377508.178 9 -19521584.236 9
  21813770.151    21813770.301    37207878.915 9 -40605583.424 8
  24079514.486    24079512.541    80753660.932 5 -94910705.746 7
                  23724933.060                     6572482.364 8
 86  6 20  3 38 23.0800000  0  4G12G13G 9G 7
  21085955.452    21085957.751     7385736.322 9 -19515172.701 8
  21815582.531    21815583.705    37217407.989 9 -40598158.170 9
  24084245.366    24084246.011    80778521.062 6 -94891334.221 6
  23722856.877    23722856.087   -17162425.389 8   6563979.142 9
 86  6 20  3 38 29.0800000  0  4G12G13G 9G 7
  21087525.832    21087527.239     7393988.956 9 -19508742.073 8
  21817395.390    21817397.397    37226939.599 9 -40590730.938 9
  24088974.603    24088976.384    80803383.784 6 -94871960.682 7
  23720785.792    23720786.576   -17173303.723 9   6555502.520 9
 86  6 20  3 38 35.0800000  0  4G12G13G 9G 7
  21089101.448    21089101.993     7402266.078 9 -19502292.363 8
  21819209.338    21819212.294    37236473.706 8 -40583301.768 8
  24093708.778    24093708.348    80828249.135 6 -94852585.064 6
  23718721.701    23718723.971   -17184149.946 9   6547050.917 8
 86  6 20  3 38 41.0800000  0  4G12G13G 9G 7
  21090681.344    21090682.307     7410567.730 8 -19495823.534 7
  21821023.743    21821026.752    37246010.302 9 -40575870.644 8
  24098437.713    24098441.311    80853117.114 6 -94833207.451 6
  23716664.044    23716664.859   -17194968.450 9   6538620.915 8
 86  6 20  3 38 47.0800000  0  4G12G13G 9G 7
  21092264.327    21092266.648     7418893.920 9 -19489335.596 8
  21822841.160    21822842.555    37255549.321 9 -40568437.646 9
  24103172.976    24103172.607    80877987.695 6 -94813827.781 7
  23714608.985    23714611.699   -17205763.610 9   6530209.115 9
 86  6 20  3 38 53.0800000  0  4G12G13G 9G 7
  21093854.539    21093855.422     7427244.570 9 -19482828.590 9
  21824656.791    21824658.404    37265090.848 9 -40561002.693 9
  24107906.053    24107907.533    80902860.833 6 -94794446.112 7
  23712558.493    23712562.011   -17216538.555 9   6521813.058 9
 86  6 20  3 38 59.0800000  0  4G12G13G 9G 7
  21095446.991    21095449.757     7435619.686 9 -19476302.528 8
  21826473.006    21826474.574    37274634.864 9 -40553565.802 9
  24112637.403    24112641.108    80927736.499 6 -94775062.463 7
  23710512.492    23710513.128   -17227295.692 9   6513430.882 8
 86  6 20  3 39  5.0800000  0  4G12G13G 9G 7
  21097045.503    21097047.236     7444019.251 8 -19469757.408 9
  21828288.366    21828289.635    37284181.355 9 -40546126.983 9
  24117373.608    24117373.977    80952614.598 6 -94755676.930 7
  23708468.508    23708470.850   -17238036.120 9   6505061.723 9
 86  6 20  3 39 11.0800000  0  4G12G13G 9G 7
  21098647.695    21098650.208     7452443.227 9 -19463193.272 9
  21830106.103    21830107.870    37293730.392 9 -40538686.167 8
  24122109.756    24122109.655    80977495.250 6 -94736289.412 6
  23706428.376    23706428.414   -17248758.379 9   6496706.726 8
 86  6 20  3 39 17.0800000  0  4G12G13G 9G 7
  21100255.459    21100258.218     7460891.664 9 -19456610.080 9
  21831923.857    21831925.169    37303281.903 9 -40531243.439 8
  24126842.049    24126842.895    81002378.266 7 -94716900.062 6
                  23704393.491                     6488370.316 8
 86  6 20  3 39 23.0800000  0  4G12G13G 9G 7
  21101867.462    21101871.213     7469364.555 8 -19450007.839 8
  21833742.098    21833742.691    37312835.856 9 -40523798.786 9
  24131577.078    24131579.148    81027263.765 6 -94697508.787 7
  23702362.925    23702362.841   -17295780.676 9   6480058.052 9
 86  6 20  3 39 29.0800000  0  4G12G13G 9G 7
  21103485.633    21103487.381     7477861.854 8 -19443386.561 8
  21835560.567    21835560.895    37322392.289 9 -40516352.212 8
  24136313.196    24136314.022    81052151.668 5 -94678115.616 8
  23700339.509    23700339.299   -17306413.732 9   6471772.559 9
 86  6 20  3 39 35.0800000  0  4G12G13G 9G 7
  21105106.378    21105109.984     7486383.495 8 -19436746.335 8
  21837379.289    21837379.999    37331951.124 9 -40508903.765 9
  24141051.084    24141052.225    81077041.786 5 -94658720.724 7
  23698322.175    23698322.484   -17317015.296 9   6463511.983 9
 86  6 20  3 39 41.0800000  0  4G12G13G 9G 7
  21106734.049    21106736.081     7494929.443 8 -19430087.156 9
  21839198.444    21839199.460    37341512.348 9 -40501453.462 9
  24145788.912    24145788.518    81101934.312 5 -94639323.964 8
  23696310.164    23696309.765   -17327588.748 9   6455272.931 8
 86  6 20  3 39 47.0800000  0  4G12G13G 9G 7
  21108363.883    21108366.957     7503499.734 7 -19423409.017 9
  21841017.870    21841020.146    37351076.013 9 -40494001.248 9
  24150524.339    24150524.671    81126829.283 6 -94619925.273 7
  23694301.773    23694303.004   -17338138.905 9   6447052.021 8
 86  6 20  3 39 53.0800000  0  4G12G13G 9G 7
  21109998.794    21110002.181     7512094.452 9 -19416711.848 9
  21842839.167    21842840.785    37360642.198 9 -40486547.078 8
  24155262.274    24155261.863    81151726.493 7 -94600524.863 7
  23692297.814    23692298.611   -17348668.873 9   6438846.858 9
 86  6 20  3 39 59.0800000  0  4G12G13G 9G 7
  21111638.841    21111642.451     7520713.464 9 -19409995.743 8
  21844660.554    21844661.523    37370210.779 9 -40479091.042 8
  24160001.254    24160001.952    81176625.920 7 -94581122.710 7
  23690297.278    23690298.357   -17359180.851 9   6430655.696 8
 86  6 20  3 40  5.0800000  0  4G12G13G 9G 7
  21113283.723    21113287.376     7529356.716 8 -19403260.748 8
  21846481.250    21846482.354    37379781.780 9 -40471633.121 8
  24164739.142    24164741.452    81201527.731 6 -94561718.698 7
  23688300.459    23688300.736   -17369675.961 9   6422477.695 9
 86  6 20  3 40 11.0800000  0  4G12G13G 9G 7
  21114934.004    21114936.261     7538024.202 9 -19396506.883 8
  21848303.921    21848306.043    37389355.122 9 -40464173.363 8
  24169478.183    24169480.142    81226431.546 7 -94542313.115 9
  23686305.415    23686307.999   -17380152.477 9   6414314.177 8
 86  6 20  3 40 17.0800000  0  4G12G13G 9G 7
  21116587.818    21116590.513     7546715.952 9 -19389734.089 9
  21850125.126    21850127.161    37398930.887 9 -40456711.734 9
  24174218.565    24174219.408    81251337.620 6 -94522905.784 7
                  23684319.193                     6406169.871 8
 86  6 20  3 40 23.0800000  0  4G12G13G 9G 7
  21118246.833    21118248.748     7555432.035 8 -19382942.345 8
  21851948.457    21851948.096    37408509.049 9 -40449248.226 9
  24178957.500    24178960.509    81276245.908 7 -94503496.737 7
  23682335.237    23682336.856   -17426922.202 9   6398050.130 9
 86  6 20  3 40 29.0800000  0  4G12G13G 9G 7
  21119909.970    21119911.994     7564172.357 9 -19376131.709 8
  21853771.790    21853772.509    37418089.597 9 -40441782.865 8
  24183700.253    24183699.911    81301156.352 6 -94484086.014 7
  23680358.309    23680360.029   -17437308.056 9   6389957.260 9
 86  6 20  3 40 35.0800000  0  4G12G13G 9G 7
  21121578.401    21121579.219     7572936.973 9 -19369302.130 7
  21855595.268    21855594.831    37427672.520 9 -40434315.639 9
  24188439.919    24188438.939    81326068.780 7 -94464673.732 8
  23678388.995    23678389.912   -17447661.482 9   6381889.273 8
 86  6 20  3 40 41.0800000  0  4G12G13G 9G 7
  21123251.000    21123252.023     7581725.791 9 -19362453.706 8
  21857418.110    21857419.432    37437257.784 9 -40426846.608 9
  24193181.258    24193182.342    81350983.385 5 -94445259.753 8
  23676423.903    23676424.972   -17457988.013 9   6373842.629 9
 86  6 20  3 40 47.0800000  0  4G12G13G 9G 7
  21124927.242    21124928.767     7590538.786 9 -19355586.428 8
  21859244.043    21859243.703    37446845.388 9 -40419375.747 8
  24197921.448    24197922.906    81375900.027 7 -94425844.185 7
  23674464.036    23674463.173   -17468291.502 9   6365813.935 9
 86  6 20  3 40 53.0800000  0  4G12G13G 9G 7
  21126608.524    21126610.650     7599376.012 8 -19348700.275 8
  21861068.980    21861069.608    37456435.319 9 -40411903.072 9
  24202663.580    24202666.008    81400818.649 7 -94406427.068 8
  23672506.623    23672506.420   -17478574.711 9   6357801.054 8
 86  6 20  3 40 59.0800000  0  4G12G13G 9G 7
  21128294.464    21128297.582     7608237.355 9 -19341795.335 8
  21862894.965    21862893.976    37466027.541 9 -40404428.608 9
  24207405.772    24207407.449    81425739.280 7 -94387008.416 9
  23670552.298    23670553.137   -17488840.047 9   6349802.088 9
 86  6 20  3 41  5.0800000  0  4G12G13G 9G 7
  21129985.396    21129988.311     7617122.894 8 -19334871.535 8
  21864719.976    21864720.479    37475622.120 9 -40396952.319 8
  24212148.779    24212150.012    81450661.878 7 -94367588.193 8
  23668602.433    23668604.034   -17499088.371 9   6341816.377 8
 86  6 20  3 41 11.0800000  0  4G12G13G 9G 7
  21131680.938    21131683.286     7626032.663 9 -19327928.854 7
  21866546.264    21866545.923    37485219.008 9 -40389474.219 8
  24216891.136    24216892.542    81475586.516 8 -94348166.397 7
  23666655.729    23666657.070   -17509317.509 9   6333845.626 8
 86  6 20  3 41 17.0800000  0  4G12G13G 9G 7
  21133381.025    21133383.988     7634966.571 8 -19320967.370 7
  21868371.413    21868372.396    37494818.164 9 -40381994.365 8
  24221633.831    24221636.634    81500512.987 6 -94328743.190 9
                  23664715.187                     6325894.598 8
 86  6 20  3 41 23.0800000  0  4G12G13G 9G 7
  21135086.438    21135087.129     7643924.603 9 -19313987.089 8
  21870197.862    21870200.195    37504419.662 9 -40374512.678 9
  24226378.191    24226380.037    81525441.414 7 -94309318.444 9
  23662778.508    23662778.442   -17555674.528 9   6317968.608 9
 86  6 20  3 41 29.0800000  0  4G12G13G 9G 7
  21136794.584    21136797.165     7652906.711 9 -19306988.032 8
  21872026.805    21872027.515    37514023.471 9 -40367029.193 8
  24231123.684    24231124.851    81550371.680 7 -94289892.251 9
  23660849.400    23660849.726   -17565811.415 9   6310069.745 9
 86  6 20  3 41 35.0800000  0  4G12G13G 9G 7
  21138508.701    21138511.577     7661912.918 9 -19299970.205 8
  21873855.027    21873856.191    37523629.557 9 -40359543.931 9
  24235869.867    24235869.047    81575303.897 7 -94270464.558 8
  23658927.202    23658925.768   -17575917.005 9   6302195.650 9
 86  6 20  3 41 41.0800000  0  4G12G13G 9G 7
  21140227.607    21140230.662     7670943.206 9 -19292933.608 8
  21875683.204    21875683.880    37533237.863 9 -40352056.937 8
  24240611.516    24240613.234    81600237.903 6 -94251035.453 9
  23657008.545    23657009.500   -17585994.835 9   6294342.800 9
 86  6 20  3 41 47.0800000  0  4G12G13G 9G 7
  21141950.739    21141953.001     7679997.578 9 -19285878.253 8
  21877512.137    21877512.819    37542848.500 9 -40344568.128 8
  24245359.044    24245359.368    81625173.754 7 -94231604.950 9
  23655096.059    23655096.331   -17596049.756 9   6286507.787 8
 86  6 20  3 41 53.0800000  0  4G12G13G 9G 7
  21143678.560    21143680.352     7689076.034 8 -19278804.130 8
  21879341.435    21879342.853    37552461.422 9 -40337077.544 9
  24250103.166    24250103.513    81650111.363 7 -94212173.039 8
  23653186.617    23653185.673   -17606084.365 9   6278688.610 8
 86  6 20  3 41 59.0800000  0  4G12G13G 9G 7
  21145411.518    21145413.138     7698178.505 9 -19271711.304 9
  21881170.597    21881172.678    37562076.650 9 -40329585.148 9
  24254848.455    24254851.272    81675050.678 7 -94192739.807 9
  23651280.126    23651280.394   -17616101.136 9   6270883.335 9
 86  6 20  3 42  5.0800000  0  4G12G13G 9G 7
  21147148.065    21147150.413     7707304.943 9 -19264599.790 8
  21883000.879    21883002.465    37571694.111 9 -40322091.021 9
  24259594.815    24259595.650    81699991.685 7 -94173305.258 8
  23649376.264    23649377.472   -17626100.514 9   6263091.610 9
 86  6 20  3 42 11.0800000  0  4G12G13G 9G 7
  21148887.595    21148890.815     7716455.429 8 -19257469.548 8
  21884830.098    21884833.261    37581313.836 9 -40314595.147 8
  24264340.625    24264343.033    81724934.432 7 -94153869.346 8
  23647477.492    23647478.450   -17636080.319 9   6255315.140 9
 86  6 20  3 42 17.0800000  0  4G12G13G 9G 7
  21150634.242    21150637.222     7725629.891 9 -19250320.624 9
  21886661.652    21886664.192    37590935.774 9 -40307097.524 9
  24269088.165    24269089.891    81749878.888 7 -94134432.119 8
                  23645584.071                     6247559.016 9
 86  6 20  3 42 23.0800000  0  4G12G13G 9G 7
  21152383.473    21152386.408     7734828.269 9 -19243153.058 8
  21888493.251    21888495.433    37600559.915 9 -40299598.196 9
  24273836.303    24273837.096    81774824.963 9 -94114993.619 8
  23643694.074    23643696.272   -17682351.968 9   6239828.398 8
 86  6 20  3 42 29.0800000  0  4G12G13G 9G 7
  21154138.774    21154141.117     7744050.656 9 -19235966.784 8
  21890324.874    21890327.520    37610186.339 9 -40292097.096 9
  24278581.926    24278583.879    81799772.587 8 -94095553.909 8
  23641814.652    23641814.557   -17692238.119 9   6232124.918 8
 86  6 20  3 42 35.0800000  0  4G12G13G 9G 7
  21155899.148    21155901.750     7753297.046 9 -19228761.803 8
  21892157.835    21892160.020    37619815.021 9 -40284594.228 8
  24283330.910    24283332.686    81824721.830 8 -94076112.948 9
  23639939.146    23639938.925   -17702092.564 9   6224446.125 8
 86  6 20  3 42 41.0800000  0  4G12G13G 9G 7
  21157663.199    21157664.672     7762567.428 9 -19221538.128 8
  21893990.729    21893992.221    37629445.875 9 -40277089.666 9
  24288078.512    24288080.237    81849672.676 8 -94056670.740 8
  23638069.182    23638070.001   -17711920.097 9   6216788.303 8
 86  6 20  3 42 47.0800000  0  4G12G13G 9G 7
  21159431.443    21159433.631     7771861.815 9 -19214295.765 8
  21895822.602    21895825.929    37639078.981 9 -40269583.354 9
  24292826.176    24292827.858    81874625.094 8 -94037227.301 9
  23636203.363    23636204.484   -17721724.663 9   6209148.383 9
 86  6 20  3 42 53.0800000  0  4G12G13G 9G 7
  21161204.940    21161207.466     7781180.065 9 -19207034.787 8
  21897656.491    21897658.725    37648714.306 9 -40262075.303 9
  24297575.960    24297577.420    81899579.021 7 -94017782.700 9
  23634341.613    23634343.334   -17731509.066 9   6201524.164 9
 86  6 20  3 42 59.0800000  0  4G12G13G 9G 7
  21162982.834    21162984.286     7790522.156 9 -19199755.235 8
  21899490.827    21899491.925    37658351.883 9 -40254565.499 9
  24302324.376    24302326.177    81924534.380 8 -93998336.955 8
  23632482.739    23632485.048   -17741275.408 9   6193914.031 9
 86  6 20  3 43  5.0800000  0  4G12G13G 9G 7
  21164764.740    21164767.221     7799888.101 9 -19192457.094 8
  21901325.889    21901327.118    37667991.605 9 -40247054.036 9
  24307074.848    24307075.251    81949491.266 7 -93978890.033 8
  23630628.297    23630629.184   -17751024.305 9   6186317.493 9
 86  6 20  3 43 11.0800000  0  4G12G13G 9G 7
  21166551.382    21166553.890     7809277.879 8 -19185140.400 8
  21903161.862    21903161.668    37677633.446 9 -40239540.917 9
  24311823.079    24311825.251    81974449.513 7 -93959442.053 9
  23628776.539    23628778.489   -17760753.076 9   6178736.631 9
 86  6 20  3 43 17.0800000  0  4G12G13G 9G 7
  21168342.574    21168344.227     7818691.526 9 -19177805.085 9
  21904996.713    21904996.841    37687277.441 9 -40232026.118 9
  24316574.401    24316575.066    81999409.219 8 -93939992.938 9
                  23626931.783                     6171176.674 8
 86  6 20  3 43 23.0800000  0  4G12G13G 9G 7
  21170138.588    21170139.772     7828128.960 8 -19170451.246 8
  21906831.884    21906833.038    37696923.546 9 -40224509.671 9
  24321323.194    24321325.191    82024370.347 9 -93920542.712 9
  23625089.331    23625092.487   -17806786.253 9   6163642.606 9
 86  6 20  3 43 29.0800000  0  4G12G13G 9G 7
  21171938.358    21171940.933     7837590.192 8 -19163078.854 8
  21908666.872    21908669.412    37706571.845 9 -40216991.518 8
  24326072.112    24326075.235    82049332.759 9 -93901091.480 9
  23623256.667    23623258.870   -17816420.076 9   6156135.721 9
 86  6 20  3 43 35.0800000  0  4G12G13G 9G 7
  21173744.106    21173746.523     7847075.260 8 -19155687.906 8
  21910502.811    21910504.795    37716222.224 9 -40209471.750 8
  24330824.186    24330826.637    82074296.556 8 -93881639.176 9
  23621429.698    23621431.051   -17826021.865 9   6148653.427 9
 86  6 20  3 43 41.0800000  0  4G12G13G 9G 7
  21175554.636    21175556.550     7856584.132 9 -19148278.393 8
  21912338.381    21912342.209    37725874.792 9 -40201950.267 8
  24335572.941    24335576.408    82099261.751 7 -93862185.790 9
  23619607.640    23619608.737   -17835597.230 9   6141192.106 8
 86  6 20  3 43 47.0800000  0  4G12G13G 9G 7
  21177367.756    21177369.645     7866116.775 9 -19140850.361 9
  21914176.935    21914179.400    37735529.541 9 -40194427.095 9
  24340324.795    24340327.612    82124228.175 8 -93842731.436 8
  23617789.171    23617790.479   -17845149.926 9   6133748.441 9
 86  6 20  3 43 53.0800000  0  4G12G13G 9G 7
  21179186.727    21179188.658     7875673.162 9 -19133403.831 8
  21916013.800    21916017.872    37745186.483 9 -40186902.199 8
  24345076.305    24345078.720    82149195.853 9 -93823276.106 9
  23615975.992    23615975.043   -17854682.476 9   6126320.469 8
 86  6 20  3 43 59.0800000  0  4G12G13G 9G 7
  21181010.314    21181011.076     7885253.293 9 -19125938.795 9
  21917852.120    21917856.072    37754845.607 9 -40179375.603 9
  24349827.006    24349830.765    82174164.851 8 -93803819.751 9
  23614164.728    23614164.958   -17864196.793 9   6118906.720 8
 86  6 20  3 44  5.0800000  0  4G12G13G 9G 7
  21182839.060    21182839.535     7894857.091 9 -19118455.314 8
  21919691.148    21919693.971    37764506.868 9 -40171847.351 8
  24354577.392    24354581.422    82199135.016 9 -93784362.486 9
  23612358.846    23612358.403   -17873693.485 9   6111506.701 8
 86  6 20  3 44 11.0800000  0  4G12G13G 9G 7
  21184670.088    21184672.112     7904484.619 9 -19110953.345 9
  21921529.914    21921532.478    37774170.166 9 -40164317.504 9
  24359329.221    24359333.880    82224106.390 8 -93764904.274 9
  23610554.499    23610555.502   -17883169.497 9   6104122.800 8
 86  6 20  3 44 17.0800000  0  4G12G13G 9G 7
  21186506.222    21186508.015     7914135.874 9 -19103432.893 9
  21923369.526    21923372.276    37783835.545 9 -40156786.033 9
  24364082.939    24364084.691    82249078.885 8 -93745445.183 9
                  23608757.342                     6096760.373 8
 86  6 20  3 44 23.0800000  0  4G12G13G 9G 7
  21188348.004    21188349.610     7923810.799 9 -19095893.990 8
  21925210.743    21925210.788    37793503.004 9 -40149252.941 9
  24368835.684    24368838.186    82274052.479 8 -93725985.240 9
  23606965.248    23606966.155   -17928941.599 9   6089424.274 8
 86  6 20  3 44 29.0800000  0  4G12G13G 9G 7
  21190194.064    21190195.266     7933509.370 9 -19088336.659 8
  21927051.225    21927051.057    37803172.635 9 -40141718.168 9
  24373587.841    24373589.713    82299027.185 8 -93706524.421 8
  23605181.149    23605181.178   -17938321.499 9   6082115.261 9
 86  6 20  3 44 35.0800000  0  4G12G13G 9G 7
  21192043.798    21192045.245     7943231.580 9 -19080760.917 8
  21928891.695    21928892.135    37812844.372 9 -40134181.743 9
  24378340.835    24378343.175    82324002.927 8 -93687062.807 9
  23603401.519    23603401.495   -17947669.903 9   6074830.783 8
 86  6 20  3 44 41.0800000  0  4G12G13G 9G 7
  21193897.000    21193900.637     7952977.470 9 -19073166.723 9
  21930731.571    21930732.610    37822518.235 9 -40126643.671 8
  24383093.041    24383096.084    82348979.742 8 -93667600.357 9
  23601627.240    23601628.174   -17956991.656 9   6067567.079 9
 86  6 20  3 44 47.0800000  0  4G12G13G 9G 7
  21195756.319    21195758.598     7962746.957 9 -19065554.141 8
  21932573.097    21932573.526    37832194.196 9 -40119103.968 9
  24387845.679    24387850.571    82373957.670 9 -93648137.049 9
  23599857.298    23599859.273   -17966290.594 9   6060321.157 8
 86  6 20  3 44 53.0800000  0  4G12G13G 9G 7
  21197620.494    21197622.173     7972540.026 9 -19057923.178 9
  21934414.168    21934415.005    37841872.160 9 -40111562.689 8
  24392600.031    24392602.791    82398936.586 8 -93628672.941 8
  23598091.482    23598094.359   -17975569.471 9   6053090.865 9
 86  6 20  3 44 59.0800000  0  4G12G13G 9G 7
  21199487.325    21199490.326     7982356.667 9 -19050273.847 8
  21936256.379    21936257.037    37851552.203 9 -40104019.801 8
  24397353.107    24397356.568    82423916.475 8 -93609208.099 9
  23596329.466    23596331.389   -17984830.256 9   6045874.668 9
 86  6 20  3 45  5.0800000  0  4G12G13G 9G 7
  21201359.146    21201362.053     7992196.850 9 -19042606.165 8
  21938098.454    21938099.177    37861234.314 9 -40096475.303 8
  24402106.318    24402109.932    82448897.263 8 -93589742.549 8
  23594570.415    23594572.466   -17994073.183 9   6038672.386 9
 86  6 20  3 45 11.0800000  0  4G12G13G 9G 7
  21203235.724    21203239.759     8002060.637 9 -19034920.107 8
  21939941.581    21939942.172    37870918.490 9 -40088929.190 9
  24406860.360    24406864.521    82473879.038 8 -93570276.248 9
  23592815.950    23592817.431   -18003294.720 9   6031486.774 8
 86  6 20  3 45 17.0800000  0  4G12G13G 9G 7
  21205118.097    21205120.443     8011948.031 9 -19027215.647 8
  21941784.890    21941787.043    37880604.796 9 -40081381.429 9
  24411613.995    24411617.520    82498861.710 8 -93550809.214 8
                  23591069.021                     6024323.120 8
 86  6 20  3 45 23.0800000  0  4G12G13G 9G 7
  21207003.062    21207006.975     8021858.884 9 -19019492.900 9
  21943629.094    21943630.000    37890293.240 9 -40073831.987 9
  24416368.106    24416372.826    82523845.243 8 -93531341.523 8
  23589324.117    23589326.434   -18048821.268 9   6017186.081 9
 86  6 20  3 45 29.0800000  0  4G12G13G 9G 7
  21208893.529    21208895.725     8031793.260 9 -19011751.832 8
  21945472.977    21945474.801    37899983.731 9 -40066280.954 9
  24421123.835    24421126.661    82548829.717 8 -93511873.109 9
  23587587.819    23587590.325   -18057945.590 9   6010076.222 8
 86  6 20  3 45 35.0800000  0  4G12G13G 9G 7
  21210790.438    21210792.497     8041751.184 9 -19003992.414 7
  21947318.268    21947319.094    37909676.270 9 -40058728.332 8
  24425876.899    24425881.994    82573814.998 8 -93492404.058 9
  23585857.551    23585858.073   -18067038.644 9   6002990.729 9
 86  6 20  3 45 41.0800000  0  4G12G13G 9G 7
  21212689.758    21212691.192     8051732.573 9 -18996214.715 8
  21949162.041    21949164.418    37919370.808 9 -40051174.154 9
  24430630.140    24430634.897    82598801.063 7 -93472934.400 8
  23584133.020    23584132.977   -18076105.321 9   5995925.793 9
 86  6 20  3 45 47.0800000  0  4G12G13G 9G 7
  21214593.207    21214594.480     8061737.450 9 -18988418.713 8
  21951006.277    21951008.326    37929067.375 9 -40043618.386 9
  24435386.258    24435390.423    82623787.971 7 -93453464.089 9
  23582411.639    23582412.344   -18085149.206 9   5988878.610 9
 86  6 20  3 45 53.0800000  0  4G12G13G 9G 7
  21216502.345    21216503.649     8071765.765 9 -18980604.438 8
  21952851.638    21952854.074    37938765.940 9 -40036061.062 9
  24440142.159    24440147.361    82648775.617 7 -93433993.189 9
  23580693.900    23580694.716   -18094172.873 9   5981847.178 9
 86  6 20  3 45 59.0800000  0  4G12G13G 9G 7
  21218414.519    21218416.697     8081817.486 9 -18972771.927 9
  21954698.903    21954699.549    37948466.455 9 -40028502.223 8
  24444899.049    24444899.873    82673763.978 7 -93414521.738 9
  23578980.198    23578981.134   -18103178.329 9   5974829.936 9
 86  6 20  3 46  5.0800000  0  4G12G13G 9G 7
  21220332.605    21220333.013     8091892.623 9 -18964921.183 9
  21956544.879    21956545.544    37958168.998 9 -40020941.783 8
  24449652.232    24449655.584    82698753.011 8 -93395049.754 9
  23577270.259    23577270.936   -18112165.563 9   5967826.903 9
 86  6 20  3 46 11.0800000  0  4G12G13G 9G 7
  21222254.022    21222254.913     8101991.076 9 -18957052.249 8
  21958391.830    21958392.629    37967873.487 9 -40013379.846 8
  24454409.032    24454410.895    82723742.759 7 -93375577.224 9
  23575563.234    23575564.899   -18121131.006 9   5960840.848 8
 86  6 20  3 46 17.0800000  0  4G12G13G 9G 7
  21224179.774    21224181.192     8112112.932 9 -18949165.097 7
  21960238.214    21960240.362    37977579.945 9 -40005816.368 8
  24459163.102    24459166.014    82748733.236 6 -93356104.121 8
                  23573864.256                     5953877.326 8
 86  6 20  3 46 23.0800000  0  4G12G13G 9G 7
  21226110.725    21226112.878     8122258.165 9 -18941259.718 8
  21962085.897    21962086.860    37987288.330 9 -39998251.402 9
  24463920.233    24463921.344    82773724.099 6 -93336630.728 9
  23572168.870    23572169.361   -18166397.452 9   5946940.764 9
 86  6 20  3 46 29.0800000  0  4G12G13G 9G 7
  21228046.188    21228046.736     8132426.705 9 -18933336.175 8
  21963934.313    21963934.881    37996998.664 9 -39990684.904 9
  24468672.766    24468678.909    82798715.706 6 -93317156.745 8
  23570481.209    23570483.498   -18175264.487 9   5940031.387 8
 86  6 20  3 46 35.0800000  0  4G12G13G 9G 7
  21229984.822    21229986.575     8142618.623 9 -18925394.438 8
  21965782.500    21965783.868    38006710.983 9 -39983116.859 8
  24473431.770    24473435.385    82823707.896 7 -93297682.318 7
  23568800.796    23568801.052   -18184100.501 9   5933146.175 8
 86  6 20  3 46 41.0800000  0  4G12G13G 9G 7
  21231929.175    21231930.164     8152833.839 9 -18917434.521 8
  21967631.213    21967632.153    38016425.306 9 -39975547.250 9
  24478185.783    24478190.290    82848700.627 6 -93278207.477 7
  23567124.644    23567125.264   -18192910.116 9   5926281.539 9
 86  6 20  3 46 47.0800000  0  4G12G13G 9G 7
  21233877.127    21233878.880     8163072.385 9 -18909456.446 8
  21969478.987    21969482.537    38026141.568 9 -39967976.129 8
  24482941.963    24482947.988    82873693.926 6 -93258732.175 8
  23565451.194    23565453.758   -18201697.102 9   5919434.539 8
 86  6 20  3 46 53.0800000  0  4G12G13G 9G 7
  21235829.750    21235831.109     8173334.156 9 -18901460.259 8
  21971328.766    21971330.366    38035859.892 9 -39960403.420 9
  24487698.755    24487702.226    82898687.758 7 -93239256.469 7
  23563783.495    23563786.319   -18210464.046 9   5912603.149 8
 86  6 20  3 46 59.0800000  0  4G12G13G 9G 7
  21237786.533    21237787.862     8183619.153 9 -18893445.966 7
  21973179.311    21973180.451    38045580.133 9 -39952829.198 9
  24492456.676    24492459.139    82923682.062 7 -93219780.390 8
  23562119.659    23562121.043   -18219212.644 9   5905786.070 9
 86  6 20  3 47  5.0800000  0  4G12G13G 9G 7
  21239748.219    21239750.569     8193927.408 9 -18885413.566 8
  21975027.818    21975030.825    38055302.347 9 -39945253.448 9
  24497209.673    24497214.372    82948676.741 7 -93200304.031 8
  23560457.700    23560459.536   -18227942.815 9   5898983.328 9
 86  6 20  3 47 11.0800000  0  4G12G13G 9G 7
  21241714.233    21241715.767     8204258.904 9 -18877363.045 7
  21976879.335    21976881.144    38065026.478 9 -39937676.197 9
  24501967.480    24501971.330    82973671.870 7 -93180827.298 7
                  23558801.901                     5892198.113 8
 86  6 20  3 47 17.0800000  0  4G12G13G 9G 7
  21243685.000    21243687.462     8214613.618 9 -18869294.442 8
  21978729.606    21978731.972    38074752.516 9 -39930097.468 9
  24506723.096    24506729.214    82998667.371 6 -93161350.297 7
  23557165.005    23557150.352   -18273012.254 9   5885435.859 9
 86  6 20  3 47 23.0800000  0  4G12G13G 9G 7
  21245659.510    21245662.302     8224991.552 9 -18861207.745 8
  21980580.758    21980582.515    38084480.428 9 -39922517.272 9
  24511480.844    24511483.460    83023663.266 6 -93141872.984 7
  23555505.335    23555505.348   -18281655.283 9   5878701.035 9
 86  6 20  3 47 29.0800000  0  4G12G13G 9G 7
  21247638.796    21247641.518     8235392.630 8 -18853103.022 8
  21982432.343    21982433.308    38094210.288 9 -39914935.561 9
  24516236.452    24516242.329    83048659.532 6 -93122395.366 7
  23553867.699    23553866.526   -18290263.515 9   5871993.330 9
 86  6 20  3 47 35.0800000  0  4G12G13G 9G 7
  21249622.088    21249624.726     8245816.856 9 -18844980.236 8
  21984284.629    21984284.996    38103942.096 8 -39907352.324 9
  24520992.989    24520999.186    83073656.156 6 -93102917.508 7
  23552234.997    23552236.108   -18298841.334 9   5865309.699 9
 86  6 20  3 47 41.0800000  0  4G12G13G 9G 7
  21251610.148    21251613.352     8256264.197 9 -18836839.456 8
  21986136.019    21986136.818    38113675.754 9 -39899767.657 9
  24525750.024    24525755.004    83098653.086 6 -93083439.372 7
  23550608.208    23550607.588   -18307392.503 9   5858646.450 8
 86  6 20  3 47 47.0800000  0  4G12G13G 9G 7
  21253602.722    21253605.140     8266734.700 9 -18828680.623 7
  21987988.695    21987989.567    38123411.220 9 -39892181.574 8
  24530505.852    24530509.945    83123650.223 7 -93063961.092 8
  23548984.654    23548984.841   -18315921.124 9   5852000.774 9
 86  6 20  3 47 53.0800000  0  4G12G13G 9G 7
  21255600.167    21255601.157     8277228.327 9 -18820503.767 8
  21989840.408    21989843.474    38133148.648 9 -39884593.959 9
  24535264.734    24535269.088    83148647.610 6 -93044482.614 7
  23547365.010    23547366.021   -18324429.589 9   5845370.803 9
 86  6 20  3 47 59.0800000  0  4G12G13G 9G 7
  21257600.850    21257604.102     8287744.991 9 -18812308.962 7
  21991692.989    21991697.495    38142887.964 9 -39877004.900 9
  24540021.886    24540026.576    83173645.204 7 -93025003.987 7
  23545748.764    23545751.714   -18332919.478 9   5838755.297 9
 86  6 20  3 48  5.0800000  0  4G12G13G 9G 7
  21259606.947    21259609.130     8298284.759 9 -18804096.159 8
  21993549.259    21993550.510    38152629.228 9 -39869414.305 9
  24544778.077    24544780.431    83198643.081 6 -93005525.110 6
  23544136.971    23544138.954   -18341390.803 9   5832154.279 9
 86  6 20  3 48 11.0800000  0  4G12G13G 9G 7
  21261617.228    21261618.431     8308847.646 8 -18795865.353 8
  21995404.039    21995405.070    38162372.349 9 -39861822.271 9
  24549536.656    24549542.555    83223641.051 5 -92986046.158 6
  23542530.438    23542531.289   -18349839.236 9   5825571.078 8
 86  6 20  3 48 17.0800000  0  4G12G13G 9G 7
  21263630.919    21263633.284     8319433.552 8 -18787616.586 7
  21997258.109    21997259.811    38172117.264 9 -39854228.824 8
  24554292.872    24554296.399    83248639.159 6 -92966567.113 7
                  23540930.327                     5819011.363 8
 86  6 20  3 48 23.0800000  0  4G12G13G 9G 7
  21265651.376    21265651.395     8330042.519 8 -18779349.859 7
  21999113.130    21999114.080    38181864.060 9 -39846633.911 9
  24559050.098    24559053.016    83273637.449 6 -92947087.934 7
  23539332.348    23539334.962   -18394594.092 9   5812479.129 9
 86  6 20  3 48 29.0800000  0  4G12G13G 9G 7
  21267673.107    21267674.719     8340674.483 8 -18771065.215 7
  22000968.141    22000969.014    38191612.765 9 -39839037.523 9
  24563805.046    24563810.949    83298635.854 6 -92927608.638 6
  23537744.438    23537744.801   -18402942.372 9   5805973.969 9
 86  6 20  3 48 35.0800000  0  4G12G13G 9G 7
  21269701.038    21269701.300     8351329.423 9 -18762762.658 7
  22002823.086    22002824.885    38201363.282 9 -39831439.707 8
  24568562.951    24568566.132    83323634.304 6 -92908129.319 7
  23536160.587    23536162.346   -18411259.457 9   5799492.741 9
 86  6 20  3 48 41.0800000  0  4G12G13G 9G 7
  21271733.361    21271735.015     8362007.326 9 -18754442.220 7
  22004677.901    22004680.215    38211115.682 9 -39823840.438 9
  24573321.301    24573325.182    83348632.795 7 -92888649.988 6
  23534582.810    23534584.213   -18419551.046 9   5793031.776 9
 86  6 20  3 48 47.0800000  0  4G12G13G 9G 7
  21273769.699    21273770.410     8372708.151 9 -18746103.915 8
  22006534.856    22006536.611    38220869.852 9 -39816239.786 9
  24578075.008    24578081.164    83373631.200 6 -92869170.692 6
  23533009.215    23533010.278   -18427820.084 9   5786588.364 9
 86  6 20  3 48 53.0800000  0  4G12G13G 9G 7
  21275809.850    21275811.698     8383431.890 8 -18737747.743 8
  22008391.021    22008392.940    38230625.857 9 -39808637.697 8
  24582832.936    24582840.157    83398629.663 6 -92849691.365 7
  23531438.966    23531439.560   -18436069.022 9   5780160.623 8
 86  6 20  3 48 59.0800000  0  4G12G13G 9G 7
  21277855.282    21277856.196     8394178.527 9 -18729373.762 8
  22010248.240    22010249.581    38240383.721 9 -39801034.169 9
  24587587.881    24587592.877    83423628.123 7 -92830212.040 6
  23529873.990    23529873.618   -18444299.502 9   5773747.283 9
 86  6 20  3 49  5.0800000  0  4G12G13G 9G 7
  21279904.728    21279906.045     8404948.037 9 -18720981.921 7
  22012106.169    22012106.519    38250143.439 9 -39793429.187 9
  24592348.712    24592352.912    83448626.515 6 -92810732.760 6
  23528311.124    23528311.741   -18452510.903 9   5767348.786 9
 86  6 20  3 49 11.0800000  0  4G12G13G 9G 7
  21281958.069    21281960.107     8415740.445 9 -18712572.258 9
  22013963.273    22013963.933    38259904.936 9 -39785822.826 8
  24597104.127    24597107.405    83473624.942 5 -92791253.464 5
                  23526753.792                     5760968.603 8
 86  6 20  3 49 17.0800000  0  4G12G13G 9G 7
  21284017.110    21284017.883     8426555.817 9 -18704144.703 8
  22015821.957    22015822.135    38269668.295 9 -39778215.011 8
  24601863.405    24601865.916    83498623.182 6 -92771774.300 6
  23525230.513    23525201.165   -18497068.288 9   5754612.460 8
 86  6 20  3 49 23.0800000  0  4G12G13G 9G 7
  21286078.174    21286079.694     8437393.997 9 -18695699.364 8
  22017679.599    22017680.587    38279433.432 9 -39770605.808 8
  24606618.624    24606623.880    83523621.286 6 -92752295.269 6
  23523656.304    23523656.297   -18505189.822 9   5748284.059 8
 86  6 20  3 49 29.0800000  0  4G12G13G 9G 7
  21288145.484    21288147.051     8448254.952 9 -18687236.288 7
  22019537.755    22019539.595    38289200.298 8 -39762995.265 8
  24611378.070    24611379.830    83548619.242 7 -92732816.316 5
  23522116.864    23522116.836   -18513276.695 9   5741982.580 9
 86  6 20  3 49 35.0800000  0  4G12G13G 9G 7
  21290215.745    21290218.858     8459138.783 9 -18678755.384 8
  22021396.268    22021398.671    38298968.945 8 -39755383.332 8
  24616131.125    24616140.616    83573617.012 7 -92713337.549 6
  23520583.225    23520584.864   -18521333.448 9   5735704.981 9
 86  6 20  3 49 41.0800000  0  4G12G13G 9G 7
  21292291.612    21292294.893     8470045.483 9 -18670256.658 8
  22023256.452    22023256.462    38308739.387 9 -39747770.015 9
  24620890.674    24620893.982    83598614.612 5 -92693858.883 6
  23519055.016    23519056.138   -18529363.771 9   5729447.584 9
 86  6 20  3 49 47.0800000  0  4G12G13G 9G 7
  21294372.529    21294373.646     8480974.944 9 -18661740.197 8
  22025116.144    22025117.865    38318511.575 9 -39740155.319 9
  24625645.144    24625650.130    83623611.979 7 -92674380.414 5
  23517530.667    23517533.639   -18537371.787 9   5723207.577 8
 86  6 20  3 49 53.0800000  0  4G12G13G 9G 7
  21296455.673    21296457.983     8491927.180 9 -18653205.976 9
  22026975.720    22026977.433    38328285.600 9 -39732539.189 8
  24630404.807    24630405.752    83648609.038 7 -92654902.165 5
  23516010.282    23516013.336   -18545359.534 9   5716983.350 9
 86  6 20  3 49 59.0800000  0  4G12G13G 9G 7
  21298544.738    21298547.123     8502902.187 9 -18644654.029 9
  22028836.167    22028838.398    38338061.421 9 -39724921.669 9
  24635161.439    24635166.086    83673605.916 6 -92635424.057 4
  23514493.309    23514496.685   -18553328.664 9   5710773.644 9
 86  6 20  3 50  5.0800000  0  4G12G13G 9G 7
  21300638.240    21300638.989     8513899.916 9 -18636084.368 9
  22030696.866    22030697.443    38347838.989 9 -39717302.781 9
  24639916.781    24639919.927    83698602.447 6 -92615946.246 6
  23512981.126    23512983.841   -18561278.455 9   5704578.996 9
 86  6 20  3 50 11.0800000  0  4G12G13G 9G 7
  21302735.745    21302735.972     8524920.288 9 -18627497.068 8
  22032557.925    22032559.048    38357618.215 9 -39709682.604 8
  24644674.179    24644674.285    83723598.627 6 -92596468.679 4
                  23511476.457                     5698403.279 9
 86  6 20  3 50 17.0800000  0  4G12G13G 9G 7
  21304836.632    21304837.021     8535963.387 9 -18618892.059 8
  22034419.117    22034420.643    38367399.167 9 -39702061.091 9
  24649430.567    24649434.198    83748594.538 7 -92576991.320 6
  23509870.803    23509973.500   -18605568.523 9   5692251.967 9
 86  6 20  3 50 23.0800000  0  4G12G13G 9G 7
  21306942.447    21306943.679     8547029.122 9 -18610269.405 8
  22036280.788    22036280.858    38377181.863 9 -39694438.203 9
  24654190.494    24654189.687    83773590.053 7 -92557514.307 6
  23508476.139    23508478.800   -18613426.633 9   5686128.853 9
 86  6 20  3 50 29.0800000  0  4G12G13G 9G 7
  21309051.591    21309054.485     8558117.566 9 -18601629.064 8
  22038142.036    22038142.724    38386966.178 9 -39686814.063 8
  24658944.266    24658946.147    83798585.160 6 -92538037.584 6
  23506987.567    23506989.099   -18621249.747 9   5680032.534 8
 86  6 20  3 50 35.0800000  0  4G12G13G 9G 7
  21311165.322    21311167.548     8569228.595 9 -18592971.125 8
  22040005.036    22040005.151    38396752.245 9 -39679188.563 8
  24663702.284    24663703.434    83823579.779 7 -92518561.268 6
  23505504.552    23505505.617   -18629042.997 9   5673959.878 8
 86  6 20  3 50 41.0800000  0  4G12G13G 9G 7
  21313284.571    21313286.432     8580362.276 9 -18584295.534 8
  22041865.929    22041869.116    38406540.097 9 -39671561.654 9
  24668455.513    24668454.388    83848573.965 6 -92499085.269 6
  23504025.915    23504027.334   -18636810.461 9   5667907.310 9
 86  6 20  3 50 47.0800000  0  4G12G13G 9G 7
  21315407.025    21315409.484     8591518.549 9 -18575602.335 9
  22043729.615    22043730.507    38416329.710 9 -39663933.381 9
  24673213.764    24673213.365    83873567.754 6 -92479609.593 5
  23502552.385    23502553.972   -18644555.684 9   5661872.086 9
 86  6 20  3 50 53.0800000  0  4G12G13G 9G 7
  21317534.876    21317536.061     8602697.447 9 -18566891.513 9
  22045592.134    22045593.377    38426121.124 9 -39656303.708 9
  24677968.807    24677967.615    83898561.036 6 -92460134.334 6
  23501082.501    23501083.836   -18652280.712 9   5655852.588 9
 86  6 20  3 50 59.0800000  0  4G12G13G 9G 7
  21319666.539    21319668.817     8613898.910 9 -18558163.098 9
  22047455.923    22047457.287    38435914.284 9 -39648672.668 9
  24682727.140    24682725.338    83923553.731 7 -92440659.461 4
  23499615.875    23499616.171   -18659987.103 9   5649847.613 8
 86  6 20  3 51  5.0800000  0  4G12G13G 9G 7
  21321802.392    21321803.632     8625122.923 9 -18549417.113 8
  22049319.346    22049321.715    38445709.216 9 -39641040.245 9
  24687481.238    24687483.645    83948545.865 6 -92421185.113 6
  23498153.728    23498154.267   -18667673.880 9   5643857.921 9
 86  6 20  3 51 11.0800000  0  4G12G13G 9G 7
  21323942.486    21323943.492     8636369.419 9 -18540653.608 9
  22051183.536    22051185.282    38455505.926 9 -39633406.448 9
  24692238.191    24692234.955    83973537.479 6 -92401711.107 6
                  23496695.263                     5637887.630 8
 86  6 20  3 51 17.0800000  0  4G12G13G 9G 7
  21326086.190    21326088.616     8647638.344 9 -18531872.628 9
  22053047.855    22053049.837    38465304.261 9 -39625771.374 9
  24696991.018    24696992.537    83998528.449 6 -92382237.625 6
  23495245.687    23495242.681   -18711701.636 9   5631942.272 8
 86  6 20  3 51 23.0800000  0  4G12G13G 9G 7
  21328234.836    21328237.221     8658929.812 9 -18523074.083 8
  22054914.057    22054915.472    38475104.338 9 -39618134.951 9
  24701751.105    24701750.070    84023518.865 6 -92362764.569 4
  23493799.335    23493799.026   -18719295.291 9   5626025.130 9
 86  6 20  3 51 29.0800000  0  4G12G13G 9G 7
  21330388.255    21330389.670     8670243.790 9 -18514257.999 7
  22056779.576    22056780.366    38484906.108 9 -39610497.192 8
  24706502.002    24706501.029    84048508.637 6 -92343292.003 5
  23492360.383    23492361.324   -18726854.562 9   5620134.780 9
 86  6 20  3 51 35.0800000  0  4G12G13G 9G 7
  21332546.523    21332547.584     8681580.147 9 -18505424.468 9
  22058645.014    22058646.763    38494709.553 9 -39602858.141 9
  24711261.722    24711260.647    84073497.700 7 -92323820.009 6
  23490928.647    23490928.963   -18734383.693 9   5614267.929 8
 86  6 20  3 51 41.0800000  0  4G12G13G 9G 7
  21334708.473    21334709.590     8692938.982 9 -18496573.432 8
  22060511.665    22060513.163    38504514.689 9 -39595217.778 9
  24716012.930    24716014.200    84098486.095 6 -92304348.524 6
  23489500.238    23489500.982   -18741887.245 9   5608420.996 9
 86  6 20  3 51 47.0800000  0  4G12G13G 9G 7
  21336873.686    21336874.970     8704320.258 8 -18487704.906 8
  22062376.788    22062378.335    38514321.434 9 -39587576.153 9
  24720772.045    24720770.072    84123473.749 6 -92284877.581 5
  23488076.027    23488076.471   -18749368.474 9   5602591.472 9
 86  6 20  3 51 53.0800000  0  4G12G13G 9G 7
  21339043.875    21339045.106     8715723.899 9 -18478818.947 8
  22064242.975    22064245.778    38524129.814 8 -39579933.260 9
  24725523.207    24725529.735    84148460.616 6 -92265407.359 7
  23486655.346    23486657.210   -18756829.678 9   5596777.546 9
 86  6 20  3 51 59.0800000  0  4G12G13G 9G 7
  21341217.726    21341220.161     8727149.952 9 -18469915.540 8
  22066110.211    22066112.181    38533939.822 9 -39572289.106 9
  24730281.075    24730277.262    84173446.704 7 -92245937.629 5
  23485239.495    23485241.488   -18764272.079 9   5590978.274 9
 86  6 20  3 52  5.0800000  0  4G12G13G 9G 7
  21343396.316    21343398.764     8738598.377 9 -18460994.695 9
  22067976.765    22067980.613    38543751.454 9 -39564643.667 9
  24735031.784    24735035.217    84198432.063 6 -92226468.505 6
  23483827.024    23483829.637   -18771694.327 9   5585194.709 8
 86  6 20  3 52 11.0800000  0  4G12G13G 9G 7
  21345578.626    21345581.316     8750069.144 9 -18452056.445 8
  22069844.217    22069845.309    38553564.765 9 -39556996.935 9
  24739789.031    24739790.104    84223416.560 7 -92207000.116 6
                  23482421.747                     5579431.023 9
 86  6 20  3 52 17.0800000  0  4G12G13G 9G 7
  21347765.618    21347767.995     8761562.226 9 -18443100.798 8
  22071712.998    22071714.266    38563379.689 9 -39549348.942 9
  24744540.557    24744540.836    84248400.237 6 -92187532.279 6
  23481015.849    23481020.400   -18815268.671 8   5573692.755 8
 86  6 20  3 52 23.0800000  0  4G12G13G 9G 7
  21349957.916    21349959.418     8773077.616 9 -18434127.777 9
  22073581.126    22073581.806    38573196.242 9 -39541699.674 8
  24749298.265    24749300.353    84273383.022 7 -92168065.214 6
  23479622.840    23479626.325   -18822596.508 9   5567982.744 8
 86  6 20  3 52 29.0800000  0  4G12G13G 9G 7
  21352152.371    21352155.083     8784615.387 9 -18425137.304 9
  22075449.942    22075450.170    38583014.472 9 -39534049.101 9
  24754049.456    24754049.738    84298364.964 7 -92148598.732 4
  23478234.813    23478238.456   -18829890.588 9   5562299.448 9
 86  6 20  3 52 35.0800000  0  4G12G13G 9G 7
  21354352.929    21354355.661     8796175.395 9 -18416129.511 8
  22077318.304    22077317.358    38592834.366 9 -39526397.235 8
  24758804.618    24758805.197    84323345.999 6 -92129132.988 6
  23476851.804    23476854.682   -18837154.344 9   5556639.376 9
 86  6 20  3 52 41.0800000  0  4G12G13G 9G 7
  21356557.060    21356559.305     8807757.607 9 -18407104.403 8
  22079187.359    22079187.429    38602655.917 9 -39518744.078 9
  24763557.175    24763562.267    84348326.034 6 -92109668.038 6
  23475475.290    23475477.956   -18844392.765 9   5550999.050 9
 86  6 20  3 52 47.0800000  0  4G12G13G 9G 7
  21358765.397    21358767.755     8819361.977 9 -18398062.034 8
  22081055.762    22081056.277    38612479.116 9 -39511089.626 8
  24768309.822    24768308.848    84373305.147 6 -92090203.790 6
  23474102.852    23474104.931   -18851608.821 9   5545376.148 9
 86  6 20  3 52 53.0800000  0  4G12G13G 9G 7
  21360977.844    21360980.591     8830988.573 9 -18389002.351 8
  22082925.630    22082926.595    38622303.917 9 -39503433.932 9
  24773066.631    24773066.083    84398283.147 6 -92070740.354 6
  23472733.468    23472735.236   -18858804.755 9   5539768.939 9
 86  6 20  3 52 59.0800000  0  4G12G13G 9G 7
  21363194.395    21363196.456     8842637.425 9 -18379925.319 8
  22084795.853    22084796.188    38632130.316 9 -39495777.009 7
  24777814.964    24777826.503    84423260.292 6 -92051277.792 5
  23471368.241    23471368.795   -18865981.682 9   5534176.526 9
 86  6 20  3 53  5.0800000  0  4G12G13G 9G 7
  21365415.270    21365418.394     8854308.487 9 -18370830.983 7
  22086665.142    22086666.706    38641958.407 9 -39488118.758 8
  24782571.013    24782568.218    84448236.301 6 -92031815.850 5
  23470005.877    23470008.352   -18873138.235 9   5528599.986 9
 86  6 20  3 53 11.0800000  0  4G12G13G 9G 7
  21367639.805    21367642.068     8866001.727 9 -18361719.368 8
  22088535.777    22088538.062    38651788.143 9 -39480459.223 9
  24787320.176    24787327.665    84473211.326 5 -92012354.880 7
                  23468651.094                     5523043.607 9
 86  6 20  3 53 17.0800000  0  4G12G13G 9G 7
  21369869.265    21369871.240     8877717.132 9 -18352590.477 9
  22090407.351    22090408.888    38661619.407 9 -39472798.502 8
  24792076.013    24792084.897    84498185.149 6 -91992894.817 2
  23467300.766    23467297.754   -18916641.136 9   5517512.925 9
 86  6 20  3 53 23.0800000  0  4G12G13G 9G 7
  21372102.186    21372104.388     8889454.636 9 -18343444.368 8
  22092277.951    22092281.029    38671452.248 9 -39465136.545 8
  24796821.333    24796826.354    84523157.856 6 -91973435.433 5
  23465955.777    23465956.599   -18923702.352 9   5512010.688 8
 86  6 20  3 53 29.0800000  0  4G12G13G 9G 7
  21374340.089    21374342.262     8901214.263 9 -18334281.016 8
  22094148.941    22094151.662    38681286.747 9 -39457473.292 8
  24801581.220    24801584.694    84548129.475 7 -91953977.079 6
  23464618.350    23464619.204   -18930728.759 9   5506535.181 9
 86  6 20  3 53 35.0800000  0  4G12G13G 9G 7
  21376582.295    21376583.826     8912995.915 9 -18325100.513 8
  22096020.904    22096023.424    38691122.797 9 -39449808.834 8
  24806326.700    24806333.275    84573099.892 5 -91934519.599 4
  23463286.847    23463288.715   -18937725.886 9   5501082.878 9
 86  6 20  3 53 41.0800000  0  4G12G13G 9G 7
  21378829.366    21378830.318     8924799.551 9 -18315902.877 7
  22097893.096    22097895.238    38700960.384 9 -39442143.183 9
  24811084.916    24811085.124    84598069.125 6 -91915062.998 6
  23461960.350    23461962.005   -18944697.795 9   5495650.213 9
 86  6 20  3 53 47.0800000  0  4G12G13G 9G 7
  21381080.094    21381081.095     8936625.283 8 -18306688.025 8
  22099765.369    22099766.831    38710799.601 9 -39434476.254 9
  24815832.093    24815839.365    84623037.111 6 -91895607.467 6
  23460637.846    23460640.216   -18951647.517 9   5490234.852 8
 86  6 20  3 53 53.0800000  0  4G12G13G 9G 7
  21383333.217    21383335.512     8948473.106 9 -18297455.962 7
  22101638.899    22101639.522    38720640.291 9 -39426808.175 9
  24820587.589    24820581.899    84648003.875 7 -91876152.821 6
  23459318.301    23459319.612   -18958577.100 9   5484835.175 9
 86  6 20  3 53 59.0800000  0  4G12G13G 9G 7
  21385592.408    21385593.503     8960342.878 9 -18288206.783 9
  22103511.354    22103512.491    38730482.558 9 -39419138.871 8
  24825336.615    24825338.356    84672969.258 7 -91856699.213 6
  23458003.790    23458004.740   -18965487.799 9   5479450.217 8
 86  6 20  3 54  5.0800000  0  4G12G13G 9G 7
  21387856.156    21387856.644     8972234.611 9 -18278940.506 8
  22105384.130    22105386.017    38740326.412 9 -39411468.337 8
  24830087.204    24830090.986    84697933.479 6 -91837246.671 6
  23456692.998    23456694.065   -18972377.639 9   5474081.520 9
 86  6 20  3 54 11.0800000  0  4G12G13G 9G 7
  21390122.417    21390124.256     8984148.358 9 -18269657.059 8
  22107257.489    22107258.198    38750171.842 9 -39403796.567 8
  24834839.851    24834835.682    84722896.298 6 -91817795.014 4
                  23455388.738                     5468733.519 9
 86  6 20  3 54 17.0800000  0  4G12G13G 9G 7
  21392394.549    21392395.459     8996084.096 9 -18260356.485 8
  22109131.513    22109132.346    38760018.850 9 -39396123.573 7
  24839586.567    24839590.926    84747858.039 5 -91798344.419 5
  23454087.130    23454089.827   -19015611.426 9   5463411.814 8
 86  6 20  3 54 23.0800000  0  4G12G13G 9G 7
  21394669.438    21394670.879     9008041.750 9 -18251038.832 9
  22111006.694    22111006.486    38769867.393 9 -39388449.384 9
  24844338.211    24844341.401    84772818.174 6 -91778894.937 6
  23452793.980    23452795.903   -19022404.412 9   5458118.577 9
 86  6 20  3 54 29.0800000  0  4G12G13G 9G 7
  21396949.348    21396950.139     9020021.259 9 -18241704.148 7
  22112881.459    22112880.709    38779717.460 9 -39380774.010 8
  24849082.076    24849085.946    84797777.044 6 -91759446.456 5
  23451507.546    23451508.866   -19029163.354 9   5452851.880 9
 86  6 20  3 54 35.0800000  0  4G12G13G 9G 7
  21399233.822    21399233.604     9032022.681 9 -18232352.393 9
  22114756.559    22114756.079    38789569.060 9 -39373097.421 9
  24853837.864    24853836.805    84822734.385 6 -91739999.169 6
  23450226.162    23450228.432   -19035892.865 9   5447608.104 9
 86  6 20  3 54 41.0800000  0  4G12G13G 9G 7
  21401520.864    21401522.036     9044045.912 9 -18222983.640 8
  22116630.629    22116631.294    38799422.202 9 -39365419.647 8
  24858583.103    24858582.616    84847690.454 3 -91720552.913 5
  23448950.292    23448952.623   -19042597.190 9   5442383.953 9
 86  6 20  3 54 47.0800000  0  4G12G13G 9G 7
  21403813.315    21403814.319     9056090.987 9 -18213597.864 8
  22118505.453    22118505.400    38809276.834 8 -39357740.691 8
  24863334.155    24863334.833    84872644.958 6 -91701107.780 5
  23447679.668    23447680.501   -19049279.266 9   5437177.139 9
 86  6 20  3 54 53.0800000  0  4G12G13G 9G 7
  21406108.607    21406111.343     9068157.923 9 -18204195.051 9
  22120379.339    22120381.018    38819133.027 9 -39350060.547 9
  24868081.433    24868085.140    84897597.985 5 -91681663.904 5
  23446411.612    23446412.247   -19055941.173 9   5431986.032 9
 86  6 20  3 54 59.0800000  0  4G12G13G 9G 7
  21408409.176    21408411.580     9080246.654 9 -18194775.265 8
  22122255.732    22122257.385    38828990.711 9 -39342379.238 9
  24872827.273    24872827.529    84922549.523 4 -91662221.163 2
  23445147.871    23445147.904   -19062584.015 9   5426809.795 9
 86  6 20  3 55  5.0800000  0  4G12G13G 9G 7
  21410714.213    21410715.588     9092357.199 9 -18185338.480 8
  22124131.829    22124132.636    38838849.792 8 -39334696.841 8
  24877578.387    24877579.221    84947499.419 3 -91642779.627 5
  23443888.662    23443888.066   -19069205.648 9   5421650.078 9
 86  6 20  3 55 11.0800000  0  4G12G13G 9G 7
  21413023.648    21413024.807     9104489.480 9 -18175884.755 9
  22126008.474    22126008.909    38848710.401 9 -39327013.248 8
  24882319.850    24882329.745    84972447.897 3 -91623339.343 6
                  23442634.853                     5416511.723 8
 86  6 20  3 55 17.0800000  0  4G12G13G 9G 7
  21415336.513    21415337.259     9116643.416 9 -18166414.154 8
  22127885.644    22127886.457    38858572.511 8 -39319328.488 9
  24887072.345    24887070.104    84997394.664 2 -91603900.235 4
  23441385.071    23441387.876   -19112174.349 9   5411400.057 9
 86  6 20  3 55 23.0800000  0  4G12G13G 9G 7
  21417651.926    21417654.887     9128819.046 9 -18156926.659 9
  22129762.196    22129763.378    38868436.123 8 -39311642.548 8
  24891816.099    24891820.037    85022339.955 5 -91584462.371 5
  23440144.103    23440145.218   -19118697.633 9   5406316.965 9
 86  6 20  3 55 29.0800000  0  4G12G13G 9G 7
  21419973.021    21419976.071     9141016.434 9 -18147422.203 8
  22131640.084    22131640.505    38878301.209 8 -39303955.467 8
  24896568.738    24896568.778    85047283.460 5 -91565025.907 6
  23438909.715    23438911.564   -19125187.700 9   5401260.173 9
 86  6 20  3 55 35.0800000  0  4G12G13G 9G 7
  21422298.423    21422300.684     9153235.575 9 -18137900.783 9
  22133517.296    22133518.006    38888167.839 9 -39296267.180 8
  24901307.579    24901309.742    85072225.476 3 -91545590.564 4
  23437679.763    23437681.337   -19131647.919 9   5396226.237 9
 86  6 20  3 55 41.0800000  0  4G12G13G 9G 7
  21424627.659    21424629.903     9165476.439 9 -18128362.459 9
  22135395.085    22135396.527    38898035.943 9 -39288577.749 8
  24906062.193    24906058.997    85097165.753 3 -91526156.541 6
  23436454.935    23436456.508   -19138083.139 9   5391211.784 9
 86  6 20  3 55 47.0800000  0  4G12G13G 9G 7
  21426959.973    21426963.765     9177738.946 9 -18118807.272 9
  22137273.425    22137274.361    38907905.449 9 -39280887.226 8
  24910808.963    24910805.019    85122104.310 1 -91506723.889 5
  23435234.702    23435235.867   -19144496.114 9   5386214.661 9
 86  6 20  3 55 53.0800000  0  4G12G13G 9G 7
  21429298.496    21429300.831     9190023.076 8 -18109235.212 8
  22139151.769    22139151.295    38917776.438 9 -39273195.547 9
  24915550.892    24915545.673    85147041.269 2 -91487292.551 3
  23434018.336    23434018.880   -19150889.164 9   5381233.065 9
 86  6 20  3 55 59.0800000  0  4G12G13G 9G 7
  21431639.207    21431642.131     9202328.824 8 -18099646.324 8
  22141030.640    22141030.847    38927648.956 9 -39265502.672 9
  24920294.421    24920294.718    85171976.291 4 -91467862.630 5
  23432804.386    23432805.612   -19157262.929 9   5376266.498 8
 86  6 20  3 56  5.0800000  0  4G12G13G 9G 7
  21433985.025    21433988.296     9214656.160 9 -18090040.629 8
  22142909.861    22142910.206    38937523.042 9 -39257808.589 9
  24925038.694    24925041.512    85196909.751 3 -91448434.084 4
  23431595.308    23431598.146   -19163615.145 9   5371316.707 9
 86  6 20  3 56 11.0800000  0  4G12G13G 9G 7
  21436335.524    21436337.576     9227005.082 9 -18080418.097 9
  22144789.974    22144789.867    38947398.555 9 -39250113.374 8
  24929787.924    24929782.070    85221841.176 1 -91429006.885 3
                  23430394.717                     5366388.745 9
 86  6 20  3 56 17.0800000  0  4G12G13G 9G 7
  21438689.595    21438691.553     9239375.522 9 -18070778.794 8
  22146669.011    22146669.517    38957275.489 9 -39242417.056 8
  24934520.885    24934527.465    85246770.983 1 -91409581.157 4
  23429195.557    23429197.925   -19206307.473 9   5361487.761 9
 86  6 20  3 56 23.0800000  0  4G12G13G 9G 7
  21441048.090    21441050.027     9251767.511 9 -18061122.698 9
  22148549.149    22148548.938    38967153.901 9 -39234719.589 8
  24939271.946    24939273.422    85271698.751 3 -91390156.898 4
  23428005.882    23428006.504   -19212560.419 9   5356615.334 9
 86  6 20  3 56 29.0800000  0  4G12G13G 9G 7
  21443410.610    21443412.246     9264181.054 9 -18051449.818 8
  22150429.044    22150429.681    38977033.853 8 -39227020.923 9
  24944012.083    24944015.148    85296624.875 1 -91370733.980 4
  23426822.111    23426822.599   -19218779.277 9   5351769.077 9
 86  6 20  3 56 35.0800000  0  4G12G13G 9G 7
  21445777.223    21445778.812     9276616.047 8 -18041760.217 8
  22152309.203    22152309.344    38986915.228 9 -39219321.150 8
                  24948758.666                   -91351312.650 3
  23425644.714    23425645.029   -19224969.536 9   5346945.509 8
 86  6 20  3 56 41.0800000  0  4G12G13G 9G 7
  21448146.741    21448148.938     9289072.477 8 -18032053.905 8
  22154188.791    22154189.926    38996798.016 9 -39211620.280 8
                  24953501.708                   -91331892.825 3
  23424471.655    23424472.733   -19231134.775 9   5342141.422 9
 86  6 20  3 56 47.0800000  0  3G12G13G 7
  21450522.826    21450522.884     9301550.377 8 -18022330.876 8
  22156068.998    22156070.813    39006682.224 8 -39203918.301 8
  23423302.856    23423302.389   -19237277.855 9   5337354.613 8
 86  6 20  3 56 53.0800000  0  3G12G13G 7
  21452900.515    21452902.446     9314049.661 9 -18012591.166 8
  22157950.728    22157952.587    39016567.847 9 -39196215.223 8
  23422137.378    23422139.273   -19243400.816 9   5332583.464 8
 86  6 20  3 56 59.0800000  0  3G12G13G 7
  21455283.018    21455285.306     9326570.345 9 -18002834.780 9
  22159831.828    22159832.452    39026454.911 9 -39188511.006 8
  23420975.734    23420977.278   -19249504.314 9   5327827.491 9
 86  6 20  3 57  5.0800000  0  3G12G13G 7
  21457669.278    21457671.188     9339112.429 9 -17993061.734 8
  22161713.935    22161715.503    39036343.316 9 -39180805.757 8
  23419818.425    23419819.904   -19255585.903 9   5323088.584 8
 86  6 20  3 57 11.0800000  0  3G12G13G 7
  21460061.373    21460062.151     9351675.921 9 -17983272.002 9
  22163595.832    22163597.343    39046233.244 9 -39173099.312 8
                  23418667.325                     5318371.999 9
 86  6 20  3 57 17.0800000  0  3G12G13G 7
  21462455.453    21462457.413     9364260.725 9 -17973465.665 8
  22165478.283    22165479.536    39056124.625 9 -39165391.735 9
  23417520.588    23417523.074   -19297908.758 9   5313682.718 9
 86  6 20  3 57 23.0800000  0  3G12G13G 7
  21464854.520    21464855.890     9376866.830 9 -17963642.714 8
  22167360.475    22167362.188    39066017.367 9 -39157683.103 8
  23416382.789    23416384.976   -19303890.198 9   5309021.859 8
 86  6 20  3 57 29.0800000  0  3G12G13G 7
  21467257.558    21467259.021     9389494.275 9 -17953803.155 8
  22169244.047    22169244.610    39075911.524 9 -39149973.374 8
  23415249.701    23415252.009   -19309838.209 9   5304387.054 9
 86  6 20  3 57 35.0800000  0  3G12G13G 7
  21469664.450    21469666.240     9402142.971 9 -17943947.033 8
  22171127.118    22171127.968    39085807.025 9 -39142262.589 8
  23414124.208    23414126.992   -19315757.363 9   5299774.736 9
 86  6 20  3 57 41.0800000  0  3G12G13G 7
  21472075.365    21472077.094     9414812.980 8 -17934074.288 8
  22173010.265    22173009.196    39095704.004 9 -39134550.663 7
  23413003.408    23413005.311   -19321651.681 9   5295181.770 9
 86  6 20  3 57 47.0800000  0  3G12G13G 7
  21474490.648    21474491.259     9427504.142 9 -17924185.071 8
  22174894.132    22174895.042    39105602.261 9 -39126837.731 7
  23411884.606    23411887.299   -19327523.843 9   5290606.065 8
 86  6 20  3 57 53.0800000  0  3G12G13G 7
  21476909.993    21476911.879     9440216.630 9 -17914279.250 8
  22176777.944    22176777.483    39115502.053 9 -39119123.605 8
  23410771.572    23410773.947   -19333375.925 9   5286045.992 9
 86  6 20  3 57 59.0800000  0  3G12G13G 7
  21479333.869    21479334.888     9452950.325 9 -17904356.883 9
  22178662.892    22178662.233    39125403.158 9 -39111408.462 8
  23409662.461    23409663.617   -19339208.462 9   5281501.167 8
 86  6 20  3 58  5.0800000  0  3G12G13G 7
  21481760.662    21481762.981     9465705.171 9 -17894418.040 8
  22180547.069    22180548.251    39135305.682 9 -39103692.214 8
  23408556.735    23408557.866   -19345018.657 9   5276973.744 9
 86  6 20  3 58 11.0800000  0  3G12G13G 7
  21484192.459    21484194.178     9478481.191 9 -17884462.720 8
  22182430.837    22182432.543    39145209.527 9 -39095974.928 9
                  23407457.779                     5272469.063 9
 86  6 20  3 58 17.0800000  0  3G12G13G 7
  21486626.679    21486629.137     9491278.297 9 -17874490.928 8
  22184315.104    22184316.643    39155114.660 9 -39088256.632 9
  23406364.154    23406364.471   -19387173.504 9   5267991.801 9
 86  6 20  3 58 23.0800000  0  3G12G13G 7
  21489065.824    21489068.376     9504096.562 9 -17864502.683 8
  22186200.516    22186203.664    39165021.186 9 -39080537.264 8
  23405277.129    23405278.163   -19392882.483 9   5263543.244 9
 86  6 20  3 58 29.0800000  0  3G12G13G 7
  21491507.998    21491511.846     9516935.866 9 -17854498.036 9
  22188085.603    22188087.669    39174929.071 9 -39072816.826 8
  23404197.212    23404197.665   -19398558.243 9   5259120.585 9
 86  6 20  3 58 35.0800000  0  3G12G13G 7
  21493955.577    21493958.427     9529796.336 9 -17844476.901 9
  22189970.507    22189972.829    39184838.388 9 -39065095.285 9
  23403122.414    23403123.108   -19404205.235 9   5254720.327 9
 86  6 20  3 58 41.0800000  0  3G12G13G 7
  21496407.003    21496410.382     9542677.903 9 -17834439.315 8
  22191856.687    22191858.675    39194749.003 9 -39057372.730 9
  23402052.445    23402052.448   -19409827.815 9   5250339.098 9
 86  6 20  3 58 47.0800000  0  3G12G13G 7
  21498863.067    21498865.233     9555580.603 9 -17824385.270 7
  22193744.518    22193745.562    39204661.026 9 -39049649.068 9
  23400986.533    23400987.009   -19415427.998 9   5245975.318 9
 86  6 20  3 58 53.0800000  0  3G12G13G 7
  21501322.770    21501323.876     9568504.189 9 -17814314.947 8
  22195630.794    22195631.580    39214574.300 9 -39041924.427 9
  23399923.867    23399926.459   -19421008.171 9   5241627.134 9
 86  6 20  3 58 59.0800000  0  3G12G13G 7
  21503784.902    21503788.049     9581448.803 9 -17804228.236 8
  22197518.086    22197519.022    39224488.956 9 -39034198.724 8
  23398865.997    23398867.194   -19426568.614 9   5237294.322 9
 86  6 20  3 59  5.0800000  0  3G12G13G 7
  21506252.847    21506254.233     9594414.432 9 -17794125.162 9
  22199404.914    22199406.097    39234404.959 9 -39026471.964 8
  23397811.227    23397813.112   -19432106.355 9   5232979.196 8
 86  6 20  3 59 11.0800000  0  3G12G13G 7
  21508723.211    21508724.924     9607400.948 9 -17784005.788 9
  22201292.459    22201293.680    39244322.288 9 -39018744.179 8
                  23396764.966                     5228687.375 9
 86  6 20  3 59 17.0800000  0  3G12G13G 7
  21511198.431    21511200.877     9620408.491 9 -17773870.035 8
  22203179.708    22203178.888    39254241.060 9 -39011015.264 8
  23395723.424    23395724.436   -19473987.586 9   5224423.565 8
 86  6 20  3 59 23.0800000  0  3G12G13G 7
  21513678.306    21513678.840     9633436.768 9 -17763718.125 8
  22205066.876    22205067.663    39264161.137 9 -39003285.335 9
  23394689.689    23394689.687   -19479422.991 9   5220188.190 9
 86  6 20  3 59 29.0800000  0  3G12G13G 7
  21516161.454    21516163.071     9646486.033 9 -17753549.872 8
  22206954.754    22206954.940    39274082.602 9 -38995554.322 9
  23393661.009    23393661.933   -19484825.793 9   5215978.599 9
 86  6 20  3 59 35.0800000  0  3G12G13G 7
  21518648.093    21518649.678     9659556.188 9 -17743365.333 8
  22208842.691    22208843.668    39284005.359 9 -38987822.303 8
  23392638.715    23392639.644   -19490199.768 9   5211791.094 9
 86  6 20  3 59 41.0800000  0  3G12G13G 7
  21521139.348    21521142.270     9672647.195 9 -17733164.540 9
  22210731.485    22210732.900    39293929.478 9 -38980089.225 9
  23391621.157    23391621.860   -19495549.240 9   5207622.670 9
 86  6 20  3 59 47.0800000  0  3G12G13G 7
  21523634.382    21523635.487     9685759.059 9 -17722947.494 8
  22212620.135    22212621.362    39303854.888 9 -38972355.131 8
  23390606.638    23390607.950   -19500876.700 9   5203471.407 9
 86  6 20  3 59 53.0800000  0  3G12G13G 7
  21526133.842    21526135.225     9698891.755 9 -17712714.233 7
  22214509.255    22214509.850    39313781.603 9 -38964620.037 8
  23389596.807    23389597.442   -19506184.005 9   5199335.834 8
 86  6 20  3 59 59.0800000  0  3G12G13G 7
  21528635.686    21528638.712     9712045.223 9 -17702464.786 8
  22216398.206    22216399.723    39323709.667 9 -38956883.897 9
  23388590.915    23388591.849   -19511471.432 9   5195215.765 9
 86  6 20  4  0  5.0800000  0  2G12G 7
  21531142.998    21531145.057     9725219.357 9 -17692199.236 8
  23387588.567    23387589.788   -19516735.675 9   5191113.750 9
 86  6 20  4  0 11.0800000  0  3G12G13G 7
  21533653.854    21533655.482     9738414.366 9 -17681917.413 8
  22220177.879    22220178.475    39343569.463 9 -38941408.732 9
                  23386593.579                     5187035.495 9
 86  6 20  4  0 17.0800000  0  3G12G13G 7
  21536169.226    21536170.167     9751630.029 9 -17671619.504 8
  22222067.718    22222068.414    39353501.200 9 -38933669.714 9
  23385603.219    23385604.632   -19558344.195 9   5182985.291 9
 86  6 20  4  0 23.0800000  0  3G12G13G 7
  21538688.181    21538689.676     9764866.443 9 -17661305.413 9
  22223958.792    22223959.641    39363434.228 9 -38925929.695 8
  23384621.367    23384621.196   -19563505.346 9   5178963.616 9
 86  6 20  4  0 29.0800000  0  3G12G13G 7
  21541210.329    21541211.855     9778123.526 9 -17650975.218 8
  22225849.676    22225849.455    39373368.582 9 -38918188.635 9
  23383645.409    23383646.901   -19568633.675 9   5174967.521 9
 86  6 20  4  0 35.0800000  0  3G12G13G 7
  21543738.134    21543738.360     9791401.241 9 -17640628.950 8
  22227739.318    22227739.786    39383304.232 9 -38910446.579 8
  23382675.743    23382675.873   -19573733.815 9   5170993.388 9
 86  6 20  4  0 41.0800000  0  3G12G13G 7
  21546268.680    21546270.465     9804699.583 9 -17630266.608 8
  22229629.954    22229630.545    39393241.236 9 -38902703.451 8
  23381710.317    23381710.484   -19578809.389 9   5167038.398 9
 86  6 20  4  0 47.0800000  0  3G12G13G 7
  21548803.159    21548802.694     9818018.555 9 -17619888.187 8
  22231522.045    22231522.631    39403179.562 9 -38894959.300 9
  23380749.307    23380748.968   -19583863.031 9   5163100.503 8
 86  6 20  4  0 53.0800000  0  3G12G13G 7
  21551343.187    21551342.514     9831358.141 9 -17609493.708 8
  22233412.937    22233412.951    39413119.152 9 -38887214.166 9
  23379790.903    23379791.559   -19588896.583 9   5159178.257 8
 86  6 20  4  0 59.0800000  0  3G12G13G 7
  21553884.833    21553885.081     9844718.253 9 -17599083.223 8
  22235304.284    22235304.798    39423059.988 9 -38879468.064 8
  23378836.480    23378837.730   -19593910.172 9   5155271.558 9
 86  6 20  4  1  5.0800000  0  3G12G13G 7
  21556430.436    21556432.453     9858098.966 9 -17588656.694 8
  22237195.763    22237196.282    39433002.146 9 -38871720.929 9
                  23377888.476                     5151383.427 9
 86  6 20  4  1 11.0800000  0  2G12G13
  21558980.305    21558981.802     9871500.143 8 -17578214.217 8
  22239086.818    22239089.055    39442945.448 9 -38863972.908 9
 86  6 20  4  1 17.0800000  0  3G12G13G 7
  21561534.668    21561536.010     9884921.867 9 -17567755.734 8
  22240979.971    22240980.940    39452890.102 9 -38856223.817 9
  23376006.117    23376006.675   -19640235.893 9   5143683.970 9
 86  6 20  4  1 23.0800000  0  3G12G13G 7
  21564091.995    21564093.034     9898363.996 9 -17557281.337 9
  22242871.938    22242874.285    39462836.069 9 -38848473.718 8
  23375075.736    23375077.481   -19645121.976 9   5139876.629 9
 86  6 20  4  1 29.0800000  0  3G12G13G 7
  21566653.082    21566655.814     9911826.695 8 -17546790.929 8
  22244766.414    22244766.189    39472783.333 9 -38840722.595 8
  23374151.628    23374153.039   -19649975.155 9   5136094.934 9
 86  6 20  4  1 35.0800000  0  3G12G13G 7
  21569219.007    21569220.745     9925309.797 9 -17536284.616 9
  22246659.366    22246661.183    39482731.786 9 -38832970.551 9
  23373234.383    23373235.591   -19654800.306 9   5132335.063 9
 86  6 20  4  1 41.0800000  0  3G12G13G 7
  21571787.249    21571791.513     9938813.275 8 -17525762.429 9
  22248553.331    22248553.393    39492681.389 9 -38825217.600 9
  23372319.357    23372320.950   -19659601.189 9   5128594.120 9
 86  6 20  4  1 47.0800000  0  3G12G13G 7
  21574361.356    21574365.157     9952337.227 8 -17515224.291 8
  22250445.578    22250448.006    39502632.309 9 -38817463.647 8
  23371411.025    23371412.327   -19664380.174 9   5124870.240 8
 86  6 20  4  1 53.0800000  0  3G12G13G 7
  21576938.730    21576942.484     9965881.473 9 -17504670.332 8
  22252339.072    22252342.171    39512584.335 9 -38809708.821 8
  23370506.853    23370506.239   -19669139.292 9   5121161.838 9
 86  6 20  4  1 59.0800000  0  3G12G13G 7
  21579519.930    21579523.972     9979446.177 8 -17494100.451 8
  22254233.470    22254235.210    39522537.720 9 -38801952.947 9
  23369604.174    23369604.916   -19673877.993 9   5117469.341 8
 86  6 20  4  2  5.0800000  0  3G12G13G 7
  21582105.923    21582109.406     9993031.151 9 -17483514.768 9
  22256128.198    22256130.233    39532492.270 9 -38794196.156 9
                  23368707.317                     5113795.708 9
 86  6 20  4  2 11.0800000  0  3G12G13G 7
  21584695.820    21584698.490    10006636.425 9 -17472913.247 9
  22258023.065    22258024.359    39542448.073 9 -38786438.387 8
  23367801.903    23367816.484   -19715005.332 9   5110146.538 9
 86  6 20  4  2 17.0800000  0  3G12G13G 7
  21587288.200    21587291.578    10020262.026 8 -17462295.900 8
  22259916.643    22259919.212    39552405.057 9 -38778679.693 9
  23366932.689    23366932.749   -19719652.059 9   5106525.939 9
 86  6 20  4  2 23.0800000  0  3G12G13G 7
  21589885.513    21589886.910    10033907.844 9 -17451662.798 8
  22261812.559    22261814.179    39562363.256 9 -38770920.061 9
  23366055.648    23366056.826   -19724262.088 9   5102933.706 9
 86  6 20  4  2 29.0800000  0  3G12G13G 7
  21592486.431    21592489.052    10047573.949 9 -17441013.878 9
  22263707.557    22263709.718    39572322.695 9 -38763159.450 9
  23365183.906    23365184.590   -19728839.446 9   5099366.929 9
 86  6 20  4  2 35.0800000  0  3G12G13G 7
  21595091.119    21595092.258    10061260.221 9 -17430349.261 9
  22265603.354    22265605.429    39582283.327 9 -38755397.927 8
  23364318.379    23364320.144   -19733389.148 9   5095821.697 9
 86  6 20  4  2 41.0800000  0  3G12G13G 7
  21597698.771    21597699.847    10074966.780 9 -17419668.824 9
  22267499.264    22267499.383    39592245.223 9 -38747635.404 8
  23363456.178    23363458.300   -19737914.547 9   5092295.407 9
 86  6 20  4  2 47.0800000  0  3G12G13G 7
  21600310.679    21600313.547    10088693.410 8 -17408972.754 8
  22269394.422    22269397.030    39602208.313 9 -38739871.960 9
  23362598.555    23362601.884   -19742418.218 9   5088786.048 9
 86  6 20  4  2 53.0800000  0  3G12G13G 7
  21602927.278    21602929.530    10102440.223 9 -17398260.954 8
  22271292.002    22271292.501    39612172.649 9 -38732107.548 9
  23361745.542    23361747.386   -19746901.685 9   5085292.440 9
 86  6 20  4  2 59.0800000  0  3G12G13G 7
  21605545.786    21605549.247    10116207.129 9 -17387533.505 9
  22273188.608    22273188.230    39622138.189 9 -38724342.193 9
  23360896.255    23360897.620   -19751364.639 9   5081814.809 9
 86  6 20  4  3  5.0800000  0  3G12G13G 7
  21608169.867    21608172.467    10129994.199 9 -17376790.327 8
  22275085.073    22275086.050    39632104.926 9 -38716575.908 8
                  23360053.160                     5078356.463 9
 86  6 20  4  3 11.0800000  0  3G12G13G 7
  21610797.540    21610800.959    10143801.331 9 -17366031.520 8
  22276982.391    22276981.808    39642072.838 9 -38708808.701 8
  23359206.875    23359214.159   -19792219.854 9   5074922.754 9
 86  6 20  4  3 17.0800000  0  3G12G13G 7
  21613428.644    21613430.420    10157628.501 9 -17355257.101 9
  22278879.666    22278880.285    39652041.954 9 -38701040.564 8
  23358383.134    23358383.998   -19796589.464 9   5071517.952 9
 86  6 20  4  3 23.0800000  0  3G12G13G 7
  21616063.746    21616064.545    10171475.739 8 -17344467.057 9
  22280777.499    22280776.787    39662012.300 9 -38693271.464 8
  23357558.392    23357557.703   -19800922.628 9   5068141.465 9
 86  6 20  4  3 29.0800000  0  3G12G13G 7
  21618702.689    21618704.440    10185342.898 8 -17333661.484 9
  22282674.000    22282673.785    39671983.797 9 -38685501.457 8
  23356740.275    23356739.567   -19805223.023 9   5064790.130 9
 86  6 20  4  3 35.0800000  0  3G12G13G 7
  21621344.191    21621347.397    10199230.169 8 -17322840.232 9
  22284571.410    22284570.298    39681956.471 9 -38677730.539 9
  23355926.972    23355926.390   -19809496.364 9   5061460.260 8
 86  6 20  4  3 41.0800000  0  3G12G13G 7
  21623990.917    21623994.172    10213137.369 8 -17312003.456 8
  22286468.188    22286469.126    39691930.196 9 -38669958.805 8
  23355118.052    23355118.063   -19813745.581 9   5058149.173 9
 86  6 20  4  3 47.0800000  0  3G12G13G 7
  21626641.517    21626644.901    10227064.501 8 -17301151.148 8
  22288365.549    22288367.633    39701905.149 9 -38662186.109 8
  23354313.093    23354313.308   -19817973.046 9   5054855.045 8
 86  6 20  4  3 53.0800000  0  3G12G13G 7
  21629296.099    21629298.578    10241011.521 9 -17290283.350 9
  22290263.430    22290265.623    39711881.215 9 -38654412.568 9
  23353512.157    23353513.825   -19822180.299 9   5051576.665 9
 86  6 20  4  3 59.0800000  0  3G12G13G 7
  21631953.385    21631956.563    10254978.498 9 -17279399.986 9
  22292163.161    22292163.803    39721858.496 9 -38646638.050 9
  23352715.718    23352717.365   -19826366.946 9   5048314.343 9
